GFSWCAN_prec_cloud_003.txt.gz
Cloud_Cover
100 100 100 100 100 100 100 61 98 96 100 100 100 100 100 100 100 100 100 99 96 89 100 100 76 100 61 67 52 62 78 21 83 100 100 97 100 20 71 56 99 100 100 100 100 100 85 97 85 100 100 24 85 100
100 100 100 100 100 100 100 100 100 100 100 100 100 100 100 100 100 100 100 100 88 64 99 100 100 100 100 92 92 43 36 15 8 51 98 100 100 100 95 100 100 89 97 100 100 60 78 93 100 98 47 89 75 100
100 100 100 100 100 100 100 100 100 100 100 100 100 100 100 100 100 100 100 100 100 100 100 100 100 100 100 100 100 100 88 100 94 80 91 100 100 61 100 100 96 97 100 96 95 79 69 85 47 89 100 100 86 96
100 100 100 100 97 100 100 100 100 100 100 100 100 100 100 100 100 100 100 100 100 100 100 97 100 100 100 100 100 100 100 100 100 100 99 100 100 100 98 59 100 100 100 100 80 52 85 36 100 100 100 100 100 100
100 100 100 100 100 100 100 100 100 100 100 100 100 100 100 100 100 100 100 100 100 100 100 100 100 100 100 100 100 100 100 100 100 100 100 100 100 100 99 100 100 100 100 100 100 100 100 100 100 100 100 100 100 100
100 100 100 100 100 100 96 100 100 100 100 100 100 100 100 100 100 100 100 100 100 100 100 100 62 52 92 100 100 100 100 100 100 100 100 100 100 100 98 99 100 100 100 100 83 92 100 100 100 100 100 100 100 100
100 100 100 100 100 99 100 100 100 100 100 100 100 100 100 100 100 100 100 94 95 100 100 100 96 96 100 98 85 100 100 100 100 98 100 100 100 100 100 100 99 100 100 90 98 99 99 100 100 100 100 100 100 100
99 100 100 100 100 100 100 100 100 100 100 100 100 100 100 100 100 100 100 100 100 100 100 100 100 100 92 100 100 100 99 100 100 100 100 100 100 100 100 98 100 78 94 100 100 100 100 100 100 100 100 88 98 100
100 100 100 100 94 87 100 100 100 100 100 100 100 100 100 100 100 100 100 100 100 100 100 100 100 100 100 100 100 100 97 100 85 100 100 85 69 64 53 7 8 5 97 100 100 100 100 100 100 100 100 100 85 100
100 100 100 100 100 100 100 100 100 100 100 100 100 100 100 100 100 100 100 100 100 100 100 100 100 98 100 100 100 100 100 100 100 40 39 80 5 100 65 28 86 88 15 100 100 100 92 82 91 41 49 63 47 100
100 100 100 100 100 100 100 98 100 100 100 100 100 100 100 100 100 100 100 100 100 100 100 100 100 100 100 100 100 100 100 100 100 100 100 47 12 55 72 63 56 67 97 88 62 7 5 19 5 5 5 11 69 94
100 100 100 100 100 100 100 100 96 95 100 100 100 100 100 100 100 100 100 100 100 100 100 100 100 100 100 100 100 100 100 100 100 69 100 80 70 5 49 70 94 95 8 4 10 31 99 100 24 5 4 6 100 47
100 100 100 100 100 100 100 100 100 70 98 80 86 98 100 100 100 98 100 100 100 100 100 100 100 100 100 100 100 100 100 100 98 99 100 80 100 36 52 63 76 89 87 94 76 65 16 5 17 17 77 99 100 99
100 100 100 100 100 100 100 100 100 100 100 100 100 100 100 98 99 100 100 100 100 100 100 100 100 100 100 100 100 100 62 73 93 53 26 85 92 81 96 97 89 39 4 3 1 0 5 100 100 100 98 100 100 100
100 100 100 100 100 100 100 100 100 100 100 100 100 100 92 99 100 100 100 100 100 100 100 99 81 59 100 96 100 96 100 78 33 19 45 4 5 3 5 5 1 0 26 8 3 5 15 100 84 88 100 100 100 100
100 100 100 73 81 100 100 98 99 100 100 98 100 83 72 99 100 100 100 99 56 98 92 67 64 91 94 61 85 59 4 0 0 0 0 0 0 1 5 0 0 0 2 5 5 5 58 100 99 100 100 100 100 100
100 100 93 100 96 7 10 71 42 72 37 52 89 93 99 99 100 100 95 37 35 97 5 26 12 2 0 7 5 4 0 0 0 0 0 0 0 0 5 5 2 0 5 13 5 72 86 100 100 100 100 100 100 100
100 100 100 100 97 36 100 72 59 51 68 63 85 87 96 99 82 91 89 48 93 5 5 93 72 6 16 1 0 0 0 0 0 0 2 0 0 0 1 5 5 5 25 29 63 83 100 100 100 100 100 100 100 100
96 93 100 100 100 100 100 88 50 78 80 98 100 81 44 35 13 5 47 60 53 65 89 79 83 52 18 17 28 0 2 0 0 0 0 0 0 4 2 5 5 9 71 71 94 100 100 100 100 100 100 100 100 100
100 99 86 25 94 98 98 86 64 80 92 71 80 79 75 57 96 100 100 86 56 100 100 91 15 4 1 0 0 0 0 0 0 2 1 0 3 5 5 5 5 8 85 100 100 100 100 100 100 100 100 100 100 100
92 96 76 90 99 89 98 100 100 99 91 98 93 96 97 100 100 73 35 20 94 86 46 12 0 0 0 0 0 0 0 0 0 4 5 5 3 5 5 5 5 81 100 100 100 100 100 100 100 100 100 100 100 100
100 95 98 100 100 94 66 78 80 91 69 88 98 88 75 53 20 68 71 97 68 4 0 0 1 0 0 3 5 4 2 5 5 5 5 5 5 5 5 41 100 100 100 100 100 100 100 100 100 100 100 100 100 100
100 96 100 100 100 100 60 76 100 94 86 82 87 95 90 77 90 51 45 5 3 26 9 4 5 5 5 3 0 0 0 3 5 5 11 17 43 76 99 100 100 100 100 100 100 100 100 100 100 100 100 100 100 100
100 100 100 100 78 97 95 100 90 97 91 97 96 100 85 88 48 98 56 4 85 12 5 5 7 12 22 5 5 5 49 93 90 91 64 100 100 100 100 100 100 100 100 100 100 100 100 100 100 100 100 100 100 100
100 100 100 96 79 98 100 100 100 100 100 94 100 93 31 32 51 77 4 0 0 1 4 4 5 4 6 10 26 86 89 88 74 100 100 96 96 92 100 100 100 99 100 100 100 100 100 100 100 100 100 99 100 100
100 91 58 89 93 89 94 92 65 90 100 100 84 83 33 94 100 61 4 7 48 54 93 69 39 5 71 92 93 72 84 100 100 100 100 96 100 100 100 100 100 100 100 100 100 100 100 100 100 100 100 100 99 100
100 68 71 58 93 100 95 64 33 74 38 96 84 100 100 100 99 9 95 81 87 21 30 58 50 72 16 20 97 97 100 100 100 92 100 84 77 76 100 100 100 100 100 100 100 100 100 100 100 100 100 100 100 100
15 37 36 27 40 34 96 55 30 74 81 88 95 100 100 51 6 79 77 95 97 97 92 25 75 74 21 72 100 100 100 100 100 100 100 100 94 94 99 100 100 100 100 100 100 100 100 100 100 90 97 100 100 100
4 34 71 37 98 98 94 96 100 100 100 100 100 61 34 72 100 100 100 100 100 100 100 100 92 96 100 100 100 99 100 100 100 100 100 97 100 93 94 100 96 100 100 100 100 100 100 100 100 100 100 100 100 100
62 100 100 100 100 63 50 100 98 100 100 100 100 90 82 100 100 96 98 100 100 100 100 99 100 100 100 100 98 92 100 100 100 100 100 99 100 100 100 100 100 100 100 100 100 100 100 100 100 100 100 100 100 100
79 100 67 97 86 86 100 100 98 99 89 95 100 100 70 72 80 65 63 88 95 100 98 100 100 100 100 100 100 100 100 100 100 100 99 84 100 100 100 100 100 100 100 100 100 100 100 100 100 100 100 100 100 100
96 97 100 100 96 87 74 100 99 100 82 98 100 96 100 100 100 95 100 100 100 100 100 100 100 100 100 100 100 100 96 100 100 99 99 100 100 100 100 100 100 100 100 100 100 100 100 100 100 100 100 100 100 100
100 100 99 98 95 75 79 81 94 89 100 100 100 100 100 100 99 100 100 100 100 100 100 100 100 100 100 100 100 100 100 100 100 100 100 100 100 100 100 100 100 100 100 100 100 100 100 100 100 100 100 100 100 100

GFSWCAN_prec_cloud_006.txt.gz
Cloud_Cover
100 100 100 100 100 100 100 100 100 100 100 100 100 100 100 100 100 100 100 100 86 52 100 100 100 100 100 100 99 100 93 100 100 100 100 60 100 17 14 9 74 92 100 74 100 99 74 99 100 100 99 100 100 100
100 97 100 100 100 99 100 100 100 100 100 100 100 100 100 100 100 100 100 100 100 77 100 100 100 100 100 100 100 40 92 100 99 100 100 99 100 94 91 95 99 94 100 60 30 30 5 7 100 100 100 99 50 100
100 100 100 100 100 100 100 100 100 100 100 100 100 100 100 100 100 100 100 100 100 100 100 100 100 100 100 100 100 79 88 100 100 95 99 100 100 100 98 98 88 100 100 99 62 92 64 98 86 92 99 93 98 100
100 100 100 100 100 100 100 100 100 99 100 100 100 100 100 100 100 85 100 100 100 100 100 100 100 100 100 100 100 99 70 99 100 100 100 100 100 100 87 57 100 100 100 73 42 5 10 18 24 100 100 100 100 97
100 100 100 100 100 100 100 100 97 100 100 100 100 100 100 100 100 100 100 100 100 100 100 100 69 100 100 100 100 100 100 100 100 100 100 100 100 92 75 100 100 100 98 100 18 19 80 4 5 77 87 100 88 72
100 100 100 100 100 100 100 100 100 100 100 100 100 100 100 100 100 100 100 98 100 100 100 100 84 100 100 100 100 100 100 100 100 93 100 98 99 100 100 100 100 100 98 90 8 59 5 53 100 87 96 90 100 100
98 100 100 100 100 100 100 100 100 100 100 100 100 100 100 100 100 100 100 100 100 100 100 100 99 87 89 95 90 97 100 76 89 100 100 100 100 100 100 100 100 98 43 44 28 96 100 100 100 99 100 99 100 100
100 100 100 100 100 100 100 100 95 100 100 100 100 100 100 100 100 100 100 100 100 100 100 100 100 100 100 100 100 100 100 100 100 100 100 100 100 100 100 100 100 100 76 92 100 100 100 100 100 100 100 100 100 98
100 100 100 100 100 100 100 98 100 100 100 100 100 100 100 100 100 100 100 100 100 100 100 100 100 100 99 100 100 100 100 100 100 100 100 100 100 100 100 98 74 100 100 100 100 100 100 79 95 100 93 65 77 72
100 100 100 100 100 100 100 100 100 100 100 100 100 100 100 100 100 100 100 100 100 100 100 100 100 100 100 95 100 100 100 100 100 64 46 99 98 100 100 99 83 100 100 100 82 99 100 100 100 100 99 100 97 11
100 100 100 100 100 100 100 100 100 100 100 100 100 100 100 100 100 100 100 100 100 100 100 99 98 100 99 100 100 100 100 100 100 40 79 28 23 98 100 100 100 98 100 100 98 100 99 97 100 94 80 4 0 17
100 100 100 100 100 100 100 100 100 100 100 100 100 100 100 100 100 100 100 85 100 100 100 98 100 100 100 100 100 100 100 99 88 61 92 47 82 88 91 60 85 100 100 100 100 100 100 100 92 9 1 4 5 30
100 100 100 100 100 100 100 100 100 100 100 100 100 100 100 98 95 94 96 100 100 100 100 100 100 99 100 100 100 100 100 100 94 90 50 87 100 100 98 84 26 63 89 11 5 0 0 0 0 4 18 94 100 97
100 100 100 100 100 100 100 100 100 100 100 100 100 100 100 100 100 97 99 100 100 100 100 100 100 100 100 100 100 100 100 99 96 100 100 100 99 99 96 96 76 4 0 0 0 0 0 0 4 12 99 100 88 97
100 100 100 100 100 100 100 100 100 100 100 100 100 100 100 100 100 100 100 100 100 100 100 100 100 100 100 100 100 100 100 100 100 100 100 47 45 31 5 5 2 0 0 0 0 0 2 3 73 46 30 87 97 100
100 100 100 100 100 100 100 100 100 100 100 100 100 100 100 100 100 100 100 100 100 100 100 100 100 100 100 100 100 100 100 100 100 72 9 5 2 0 0 0 0 0 0 0 0 4 5 5 77 56 76 100 100 100
100 100 100 100 100 100 100 98 100 100 100 100 100 100 100 100 100 100 100 100 100 100 100 100 100 100 100 100 100 100 100 82 20 4 2 0 0 0 4 0 0 0 0 4 5 5 5 5 87 100 100 100 100 100
100 99 50 97 100 96 99 95 87 63 62 8 69 99 100 100 100 100 100 98 100 100 100 100 100 87 4 5 2 3 2 0 0 0 0 0 0 0 0 1 0 0 3 5 5 7 25 89 100 100 100 100 100 100
100 44 41 99 100 100 100 100 85 85 36 79 84 82 40 25 6 5 40 62 5 12 61 6 18 5 4 4 4 0 0 0 0 0 0 0 0 0 0 0 0 0 0 5 64 8 35 99 100 100 100 100 100 100
87 87 95 100 100 96 99 73 46 68 96 91 49 89 63 42 25 96 87 94 71 85 92 78 6 5 5 4 1 0 0 0 2 4 2 2 3 5 5 5 5 5 5 13 14 84 100 100 100 100 100 100 100 100
91 100 99 100 100 99 95 76 100 99 77 98 72 61 46 5 6 61 86 98 100 82 5 5 5 2 0 0 0 0 1 5 5 5 5 4 0 5 5 5 5 5 11 90 100 100 100 100 100 100 100 100 100 100
88 99 100 100 100 90 73 66 61 58 45 53 56 72 32 47 63 33 10 86 72 6 2 0 1 4 4 5 5 5 5 22 0 0 0 4 5 10 5 5 62 99 100 100 100 100 100 100 100 100 100 100 100 100
89 98 100 100 100 100 54 51 99 79 71 87 49 84 73 62 18 15 56 5 2 1 1 5 0 0 5 4 5 2 0 1 4 5 36 88 63 37 76 68 100 100 96 80 100 100 100 100 100 100 100 100 100 100
100 100 100 99 35 60 61 100 92 81 68 88 93 81 42 5 5 22 58 5 74 7 3 5 5 5 5 5 5 5 3 59 95 66 23 29 64 74 99 96 97 100 100 100 100 100 100 100 100 100 100 100 100 100
100 99 100 84 90 97 84 96 96 100 97 98 73 74 17 5 32 11 5 70 69 5 2 1 12 78 10 0 4 3 48 100 100 90 36 73 95 100 100 100 100 100 100 100 100 100 100 100 100 100 100 100 100 100
100 100 63 79 99 61 56 63 82 43 35 55 86 33 13 39 67 53 5 19 17 5 81 75 78 34 5 5 5 26 100 93 18 88 84 100 100 100 100 100 100 100 100 97 97 100 100 100 100 100 100 100 100 100
98 86 68 42 75 77 21 47 77 100 86 52 5 27 78 100 52 0 88 13 20 64 75 71 65 79 24 5 13 82 39 42 100 100 95 98 100 100 100 92 100 100 100 100 100 100 100 100 100 100 100 100 88 100
22 22 22 68 83 68 96 56 29 63 60 36 35 99 100 52 3 66 97 56 67 100 100 100 100 81 16 5 39 90 94 98 100 100 100 100 91 70 78 96 100 83 98 100 100 100 100 100 100 100 96 100 100 100
7 36 100 77 54 61 16 5 5 32 83 100 100 45 30 66 63 60 90 100 95 99 66 100 100 99 88 56 100 100 100 100 100 100 100 100 100 89 98 99 100 100 100 100 100 100 100 100 100 100 100 100 100 100
8 48 14 6 26 5 21 94 13 94 100 100 100 89 48 27 74 98 78 83 81 64 82 90 93 79 100 100 100 100 100 100 100 100 98 92 93 75 97 100 100 100 100 100 100 100 100 100 100 100 100 100 100 100
58 64 36 70 41 11 96 100 97 52 64 52 96 98 19 9 8 23 42 98 100 100 100 100 98 92 99 100 100 100 99 96 100 100 100 97 89 100 100 100 100 100 100 100 100 100 100 100 100 100 100 100 100 100
50 61 37 24 6 56 86 72 38 45 11 44 50 44 44 97 99 99 100 100 100 100 100 100 100 100 100 100 100 100 84 83 89 99 97 86 100 100 100 99 98 100 100 100 100 100 100 100 100 100 100 100 100 100
60 70 97 100 63 8 84 100 90 75 72 86 60 96 100 100 100 100 100 99 98 100 99 100 100 100 100 94 96 96 88 98 97 93 93 98 100 99 100 100 100 100 100 100 100 100 100 100 100 100 100 100 100 96

GFSWCAN_prec_cloud_009.txt.gz
Cloud_Cover
100 100 100 100 100 100 100 100 100 100 100 100 100 100 100 100 100 100 100 100 64 100 100 100 96 94 100 100 100 94 95 99 100 100 100 97 99 50 29 16 42 16 76 89 77 96 63 18 12 18 7 9 96 6
100 100 100 100 100 100 100 100 100 100 100 100 100 100 100 97 99 100 99 97 63 23 99 100 100 100 91 84 100 100 81 99 99 90 100 96 100 100 59 99 72 90 100 65 29 5 5 44 92 5 94 97 33 85
100 100 100 100 100 100 100 100 99 100 100 100 100 100 100 100 100 100 100 100 100 100 36 100 100 100 100 100 100 72 81 100 82 36 74 100 100 100 100 100 82 100 100 64 31 6 5 8 8 40 10 31 79 100
100 100 100 100 100 100 100 100 100 100 100 100 100 100 100 100 94 99 100 100 100 100 100 100 100 100 100 100 100 100 91 100 99 100 100 100 100 100 100 100 100 100 100 83 54 29 9 5 5 47 45 97 100 94
100 100 100 100 100 100 100 100 100 100 100 100 100 100 100 100 96 48 97 100 100 100 100 100 98 100 100 100 100 100 99 100 100 100 100 100 100 99 82 96 100 100 100 100 57 5 74 6 94 100 100 100 100 99
100 100 100 100 100 100 100 100 100 100 100 100 100 100 100 100 100 100 100 97 100 100 100 100 69 97 100 100 100 100 100 100 100 100 100 97 98 100 100 99 100 100 100 100 96 39 30 52 26 100 100 100 100 100
100 100 100 100 100 100 100 100 100 100 100 100 100 100 100 100 100 100 100 100 100 100 100 100 100 100 100 100 100 100 100 100 100 100 100 100 100 100 100 100 100 97 67 86 71 98 100 100 100 100 100 100 97 38
100 100 100 100 100 100 100 100 100 100 100 100 100 100 100 100 100 100 100 100 100 100 100 100 100 100 100 100 100 100 100 100 100 100 100 100 100 100 100 100 91 60 100 100 100 100 100 99 97 99 100 100 100 100
100 100 100 100 100 100 100 100 100 100 100 100 100 100 100 100 100 100 100 100 100 100 100 100 100 100 100 79 92 100 100 100 74 100 100 100 100 100 100 99 100 19 42 74 100 100 99 100 100 100 100 53 100 100
96 100 100 100 100 100 100 100 100 100 100 100 100 100 100 100 100 100 100 100 100 100 100 100 100 100 67 100 100 100 100 100 100 93 89 100 71 15 85 89 52 65 100 59 77 100 100 100 97 100 100 100 100 98
98 100 100 100 100 100 100 100 100 100 100 100 100 100 100 100 100 100 100 100 100 100 100 99 100 100 100 100 100 100 100 100 100 19 73 38 70 56 5 5 50 100 74 100 100 80 100 100 100 99 53 78 7 4
100 100 100 100 100 100 100 100 100 100 100 100 100 100 100 100 100 100 100 100 100 76 100 98 100 100 100 100 100 100 100 100 92 63 92 95 73 82 14 71 100 56 100 100 100 100 98 90 100 96 52 21 7 24
100 100 100 99 100 100 100 100 100 100 100 100 100 100 100 100 100 86 75 96 98 100 100 100 100 76 100 99 100 99 96 87 60 89 100 99 100 100 100 92 97 96 47 91 98 100 100 100 32 4 2 1 21 78
100 100 100 100 100 100 98 100 100 100 100 100 100 100 100 100 88 84 99 100 100 100 100 100 100 100 91 96 100 99 70 82 100 100 100 100 96 65 79 90 100 100 97 100 93 11 5 1 0 4 5 5 96 98
100 100 100 100 100 100 100 100 100 100 100 100 100 100 100 100 100 100 100 100 100 100 100 100 100 100 100 100 100 100 100 100 100 100 100 100 100 96 89 44 29 8 10 11 6 0 0 0 0 12 26 10 29 52
100 100 100 100 100 100 100 100 100 100 100 100 99 98 100 98 100 100 100 100 100 100 100 100 100 100 100 100 100 100 100 100 100 100 100 100 100 100 72 9 7 93 76 8 0 0 0 0 3 5 82 100 100 100
96 64 100 100 100 100 100 100 100 100 100 88 95 100 100 100 100 100 100 100 100 100 100 100 100 100 100 100 100 100 100 100 100 100 100 100 100 7 5 0 0 0 0 0 0 0 0 3 93 76 93 56 100 100
100 100 100 100 100 100 100 99 100 100 100 100 100 100 100 100 100 100 100 100 100 100 100 100 100 100 100 100 100 100 96 86 68 37 27 4 5 5 4 0 0 0 0 0 0 3 5 14 31 100 100 100 100 100
100 96 100 100 100 99 100 80 73 32 15 5 20 55 5 11 20 43 50 64 77 100 100 100 100 87 43 10 5 4 5 2 5 6 3 1 0 4 2 0 0 0 0 3 5 5 15 44 100 100 100 100 100 100
45 28 100 100 99 97 99 64 25 26 74 85 27 66 12 13 54 59 98 100 78 97 99 90 7 3 5 4 2 0 0 0 0 0 2 0 5 3 0 0 4 5 5 5 5 74 99 100 100 100 100 100 100 100
76 91 100 72 100 82 42 34 40 80 38 5 5 29 52 78 70 99 94 74 100 100 65 5 0 0 0 0 0 0 0 5 5 92 47 5 0 0 0 5 5 9 61 83 71 35 82 95 99 100 100 100 100 100
56 94 99 100 98 86 59 10 18 44 8 19 31 26 28 5 6 19 6 85 97 5 2 0 0 0 0 0 0 2 5 18 66 5 0 0 6 12 8 75 45 36 76 100 84 96 100 99 100 100 100 100 100 100
98 100 100 100 92 91 33 52 67 82 33 25 5 5 5 5 5 1 11 5 5 0 0 0 0 0 0 0 5 5 5 5 4 2 5 12 83 93 100 24 88 100 92 90 100 100 100 100 100 100 100 100 100 100
31 86 95 89 41 46 42 73 68 58 5 5 5 5 5 5 5 5 19 5 4 1 0 0 0 1 5 5 5 5 2 8 5 5 88 98 99 92 54 89 100 100 100 100 100 100 100 100 100 100 100 100 100 100
100 94 100 100 45 68 100 89 92 17 5 5 5 5 5 4 5 5 5 41 9 5 5 0 0 0 2 5 2 5 5 5 5 9 100 82 29 100 100 100 100 94 89 100 100 100 100 100 100 100 100 100 100 100
93 62 78 39 97 72 47 6 5 5 5 6 26 5 10 41 66 19 5 15 5 5 40 21 29 38 39 95 49 13 5 7 5 29 9 75 100 100 100 100 100 99 84 100 100 100 100 100 100 100 100 100 100 100
99 67 52 9 58 11 9 51 81 40 10 89 6 26 96 100 38 4 5 2 1 8 37 86 91 91 74 66 98 99 93 35 78 64 85 100 100 100 100 100 100 93 51 97 100 100 100 100 94 100 100 100 100 100
44 81 77 99 92 86 75 14 28 58 33 49 40 98 97 10 3 5 39 71 63 26 11 77 99 98 91 82 98 100 92 100 100 97 100 90 99 70 100 99 100 100 100 100 100 100 100 100 100 100 100 100 100 100
98 100 100 97 54 31 12 5 16 5 41 84 75 9 5 5 5 6 44 92 100 100 74 82 58 69 100 96 74 99 100 100 100 98 100 81 98 99 58 40 51 100 100 100 100 100 100 100 98 98 99 100 100 100
100 90 27 5 5 6 5 5 4 21 89 100 100 78 5 6 30 77 70 22 31 69 46 58 97 100 100 100 97 100 100 100 100 100 97 72 85 82 100 100 100 100 100 100 100 100 100 100 100 100 100 100 100 100
5 5 5 5 5 4 26 90 100 89 8 30 90 82 7 32 40 93 92 97 98 100 100 100 100 100 100 100 100 100 99 94 79 85 91 98 99 88 96 93 94 68 57 70 78 95 100 100 100 100 100 100 100 100
35 75 99 99 58 15 60 98 72 21 9 6 5 22 59 98 100 100 88 100 100 100 100 100 100 100 100 100 100 86 89 82 80 85 85 78 77 80 83 84 84 69 78 99 100 100 100 100 100 100 100 100 100 100
100 100 100 100 100 72 98 100 70 11 5 5 5 6 5 58 98 98 98 95 100 100 100 100 100 100 99 100 100 98 97 97 98 92 80 79 77 75 72 71 73 75 81 95 100 100 100 100 100 100 100 100 100 100

GFSWCAN_prec_cloud_012.txt.gz
Cloud_Cover
100 100 100 100 100 100 100 100 100 100 100 100 100 100 100 100 100 100 100 100 100 100 100 100 100 99 43 5 60 54 5 76 98 93 76 35 61 5 41 58 77 29 88 62 73 98 68 43 100 100 80 56 75 5
100 100 100 100 100 100 100 100 100 100 100 100 100 100 100 100 100 100 100 96 94 100 95 97 100 100 100 100 17 5 9 5 43 91 98 82 99 98 98 100 96 96 100 94 6 8 6 100 96 33 78 75 5 21
100 100 100 100 100 100 100 100 100 100 100 100 100 96 11 94 89 100 100 33 44 100 100 100 100 100 100 38 5 5 55 88 23 87 50 93 100 85 96 100 96 100 100 100 89 53 5 63 92 78 72 43 100 100
100 100 100 100 100 100 100 100 100 100 100 100 98 98 74 80 20 13 54 40 24 100 100 98 100 100 100 74 18 21 13 85 100 78 100 100 100 100 100 100 100 100 100 100 56 39 11 30 90 97 100 100 100 100
100 100 100 100 100 100 100 100 100 100 100 100 100 89 82 99 62 100 96 100 91 96 100 95 91 100 100 100 100 93 93 100 100 93 100 99 100 100 100 100 100 100 96 90 49 89 99 42 100 100 100 100 100 100
100 100 100 100 100 100 100 100 100 100 100 100 100 100 100 94 99 100 100 94 100 100 99 100 80 100 100 100 100 68 71 83 100 100 100 88 100 100 100 100 100 100 97 85 100 100 100 100 100 100 100 100 100 100
100 100 100 100 100 100 100 100 100 100 100 100 100 100 100 100 100 100 100 100 100 100 100 100 100 100 100 100 100 100 100 100 64 62 100 99 100 100 100 100 100 100 100 100 100 96 66 100 99 91 100 98 100 100
100 100 100 100 100 100 100 100 100 100 100 100 100 100 100 100 100 100 100 100 100 100 100 100 100 100 100 100 100 100 100 100 96 100 100 100 100 100 100 100 100 100 100 100 100 98 100 100 100 100 100 100 97 100
100 100 100 100 100 100 100 100 100 100 100 100 100 100 100 100 100 100 100 100 100 100 100 100 100 100 100 100 100 100 100 100 100 100 100 100 100 100 100 96 87 100 100 100 100 100 86 100 100 99 100 100 100 100
100 100 100 100 100 100 100 100 100 100 100 100 100 100 100 100 100 100 100 100 100 100 100 100 100 100 100 100 100 100 100 100 100 100 99 100 100 100 9 5 5 10 34 52 26 77 100 100 100 92 100 97 100 100
100 100 100 100 100 100 100 100 100 100 100 100 100 100 100 100 100 100 100 100 100 100 100 95 100 100 100 100 100 100 100 100 99 65 100 93 97 20 12 5 5 9 32 80 100 100 99 95 91 7 40 98 100 100
100 100 100 100 100 100 100 98 100 100 100 100 100 100 100 100 100 100 100 100 100 98 100 98 100 100 100 100 100 100 100 100 78 81 98 96 32 26 14 5 22 99 100 55 62 62 100 100 100 100 97 59 71 25
100 100 98 72 68 100 88 100 100 100 100 100 100 100 96 99 100 100 100 100 100 100 100 100 100 100 100 98 100 100 99 75 87 97 100 84 100 100 100 100 99 98 99 100 100 100 100 97 52 15 2 5 5 7
100 100 100 100 100 100 98 100 100 100 100 100 100 100 100 100 81 100 100 100 100 100 100 100 100 100 100 100 98 100 45 85 99 100 100 100 96 100 100 100 100 98 100 100 98 52 20 5 2 0 0 0 16 99
100 100 100 100 100 100 100 100 100 100 100 100 100 100 100 100 100 100 100 100 100 100 100 100 100 100 100 100 100 100 100 97 100 100 100 98 100 98 100 100 92 84 80 95 42 11 2 0 0 0 0 5 64 100
99 100 99 98 90 100 100 100 97 100 100 95 90 100 100 100 100 100 100 100 100 100 100 100 100 100 100 100 100 100 100 100 100 88 53 85 98 100 100 79 56 79 30 5 4 0 0 0 2 4 5 12 95 98
89 100 100 100 100 100 100 100 98 76 68 88 82 99 100 100 100 100 100 100 100 100 100 100 100 100 100 100 100 100 100 100 82 60 99 100 100 100 97 73 60 6 2 0 0 0 0 4 5 70 91 11 100 100
100 100 100 100 92 100 100 91 100 98 96 40 38 62 99 100 100 100 100 100 100 100 100 100 99 96 100 99 100 98 95 96 60 21 7 5 5 5 2 0 0 0 0 0 2 5 5 5 7 5 84 85 67 81
100 100 100 100 98 94 90 92 99 39 59 59 93 100 100 100 100 100 100 98 100 100 94 99 82 82 89 40 5 5 5 5 3 1 0 0 0 0 0 0 0 0 1 5 5 5 45 81 87 46 93 97 100 100
100 100 100 100 96 100 99 95 46 99 29 13 13 7 6 18 30 75 67 58 87 100 100 92 39 5 5 4 5 5 5 5 4 4 2 0 0 0 0 0 1 0 4 5 5 7 80 100 63 85 100 100 100 100
100 100 100 98 98 100 21 11 6 5 5 5 6 15 16 62 73 60 100 87 100 100 93 8 5 1 2 5 5 5 4 4 5 5 5 4 0 4 3 0 0 5 5 9 92 79 82 99 99 100 100 100 100 100
100 100 100 96 93 24 8 5 6 7 9 29 32 52 65 92 90 92 52 99 100 48 5 2 0 0 0 0 0 1 1 5 5 5 5 5 5 4 2 3 25 16 76 100 87 96 95 100 100 100 100 100 100 100
78 86 95 96 65 36 7 19 23 92 64 52 99 67 22 42 17 6 78 24 5 5 2 1 0 0 0 0 0 5 5 5 5 5 2 1 0 5 8 5 37 100 100 96 100 100 100 100 100 100 100 100 100 100
20 94 95 76 51 64 81 100 100 100 80 97 76 50 5 30 5 48 8 5 4 5 2 0 0 4 2 3 3 5 4 1 0 2 5 4 14 13 20 8 89 100 100 85 100 100 100 100 100 99 100 100 100 100
49 73 54 100 100 91 100 100 100 100 100 78 5 5 5 6 9 63 11 2 4 5 1 4 5 5 5 5 4 5 6 6 5 5 14 22 42 11 5 16 94 100 77 91 100 100 100 100 100 100 100 100 100 100
70 52 93 92 88 86 99 100 98 78 64 21 31 5 15 11 26 6 5 5 5 5 5 5 5 5 68 78 16 24 89 92 50 30 73 99 100 100 88 100 85 36 56 100 100 100 100 100 100 100 100 81 80 84
72 74 92 87 100 96 50 27 5 15 8 5 12 5 8 84 30 4 5 5 5 8 38 100 100 91 73 48 69 72 21 39 6 12 32 99 100 73 91 91 88 80 84 99 100 100 100 100 100 100 100 98 100 100
13 58 82 84 34 26 42 35 14 32 10 27 5 31 74 28 3 5 6 32 62 100 98 100 100 98 19 5 10 21 65 86 88 92 100 98 91 28 84 95 78 85 74 99 100 100 100 100 100 100 100 94 100 100
82 100 100 100 100 100 100 84 16 5 16 43 21 5 5 6 5 5 12 100 100 98 28 21 89 89 99 99 99 100 95 87 100 100 100 85 100 67 58 97 97 100 100 100 90 99 100 100 100 100 100 100 100 100
100 100 100 94 60 56 18 64 5 5 5 60 84 86 22 5 10 100 86 33 12 23 66 97 79 100 100 100 100 100 99 100 100 99 99 90 87 78 100 78 96 96 97 94 74 62 82 96 100 100 100 100 100 100
16 49 20 17 5 6 4 5 5 22 19 5 5 16 5 5 18 83 84 83 100 100 100 100 100 99 94 92 90 100 99 84 89 88 88 87 80 78 76 97 100 97 93 84 71 57 78 91 100 100 100 100 100 100
84 41 43 85 25 76 78 79 79 51 46 87 38 54 5 31 72 91 93 99 99 100 100 100 100 100 99 98 84 96 100 100 100 100 100 100 89 79 76 83 76 70 83 83 78 88 86 80 89 100 100 100 100 100
98 100 100 96 68 76 26 13 11 51 53 51 5 43 6 23 96 100 94 84 100 100 100 97 100 98 100 100 100 100 100 100 100 100 100 99 99 99 95 86 80 76 78 86 91 80 73 71 78 86 98 99 100 100

GFSWCAN_prec_cloud_015.txt.gz
Cloud_Cover
100 100 100 100 100 100 100 100 100 100 100 100 100 92 88 42 84 5 18 8 5 38 32 5 5 0 2 81 21 5 5 14 98 84 52 20 40 62 86 88 88 100 91 96 99 100 48 23 59 79 78 99 98 86
100 100 100 100 100 100 100 100 100 100 100 100 100 100 100 100 100 95 71 78 82 58 50 92 100 100 33 5 5 15 7 5 9 90 76 87 100 88 38 98 100 97 100 47 92 66 96 100 100 86 98 96 7 90
100 100 100 100 100 100 100 100 100 100 100 100 100 100 100 100 100 100 100 100 100 100 100 100 100 96 27 5 7 10 7 6 7 5 60 98 97 92 74 100 100 100 100 89 96 74 100 66 61 100 99 100 99 100
100 100 100 100 100 100 100 100 100 100 100 100 100 100 100 100 100 100 100 100 100 97 100 82 72 17 54 75 9 40 26 8 6 36 100 100 100 100 98 86 100 100 100 91 100 66 38 82 100 100 100 100 100 99
100 100 100 100 100 100 100 100 100 100 100 100 100 100 100 100 100 100 100 86 91 41 92 82 97 92 100 80 73 43 78 45 94 100 100 100 100 100 100 100 100 100 99 88 99 69 100 100 100 100 100 100 100 100
100 100 100 100 100 100 100 100 100 100 100 100 100 100 100 100 100 100 100 100 100 100 100 100 100 100 100 100 100 100 38 60 90 100 100 100 100 97 100 100 100 100 100 100 100 100 100 100 100 100 100 100 100 100
100 100 100 100 100 100 100 100 100 100 100 100 100 100 100 100 100 100 100 100 100 100 100 100 100 100 100 100 100 100 100 100 100 100 100 100 100 100 100 100 100 100 100 100 100 100 100 100 100 100 100 100 87 96
100 100 100 100 100 100 100 100 100 100 100 100 100 100 100 100 100 100 100 100 100 100 100 100 100 100 100 100 100 100 100 100 100 100 100 100 100 100 100 100 100 100 100 100 100 100 100 100 100 100 100 98 89 100
100 100 100 100 100 100 100 100 100 100 100 100 100 100 100 100 100 100 100 100 100 100 100 100 100 100 100 100 100 100 100 100 100 100 100 100 100 100 100 100 100 100 100 100 100 100 98 94 100 80 100 100 100 94
100 100 100 100 100 100 100 100 100 100 100 100 100 100 100 100 100 100 100 100 100 100 100 100 100 100 100 100 100 100 100 100 100 100 100 100 100 100 100 100 100 98 77 41 100 100 100 100 100 99 91 100 98 82
100 100 100 100 100 100 100 100 100 100 100 100 100 100 100 100 100 100 100 100 100 100 100 100 100 100 100 100 100 100 100 100 100 21 98 92 74 11 60 64 10 5 8 82 81 100 99 94 52 11 5 19 95 100
100 100 100 100 100 100 100 100 100 100 100 100 100 100 100 100 100 100 100 100 100 98 98 98 100 100 100 100 100 100 86 98 76 93 99 100 63 100 71 62 54 70 96 100 84 81 99 100 100 100 99 80 35 8
100 100 100 100 100 100 100 100 100 100 100 100 100 100 100 100 100 87 78 83 100 100 100 100 100 100 100 100 100 96 100 88 99 99 88 88 100 79 100 100 100 91 77 81 100 100 100 99 8 5 3 5 1 2
100 100 100 100 100 100 100 100 100 100 100 100 100 100 99 99 93 100 100 100 100 100 100 100 100 100 100 100 100 100 97 99 99 100 100 100 95 98 99 99 96 100 92 98 100 91 15 5 0 4 1 3 5 5
100 100 100 100 100 100 100 100 100 100 99 96 96 77 91 90 94 100 100 100 100 100 100 98 100 98 100 100 100 100 99 100 100 100 80 100 100 100 92 88 93 91 77 62 12 4 0 0 0 0 4 5 5 5
100 100 100 100 100 100 100 100 100 100 100 100 100 100 99 100 94 99 100 100 100 100 100 82 71 57 86 74 70 100 97 100 100 50 90 100 100 95 73 72 56 10 5 1 0 0 0 5 5 5 5 5 5 16
100 100 100 100 100 100 100 100 100 100 100 99 100 100 100 100 95 99 100 99 87 99 80 51 61 75 38 66 88 100 100 100 37 5 81 92 42 57 30 5 4 0 0 0 0 0 5 5 5 5 5 5 5 8
100 100 100 100 100 100 100 100 100 100 100 100 100 100 100 100 96 97 96 93 58 89 72 33 6 5 30 62 100 74 14 6 71 24 5 10 6 5 3 5 0 0 0 0 2 5 5 5 19 74 82 87 82 99
100 100 96 100 100 100 100 100 100 100 92 91 82 92 92 81 55 46 54 42 99 100 100 46 5 11 84 79 19 41 38 27 5 3 1 2 4 5 1 3 5 0 0 3 5 5 5 26 32 51 92 100 100 100
100 100 100 100 93 99 100 70 27 60 6 5 11 21 5 6 51 99 54 46 35 100 100 87 28 7 5 5 5 5 5 5 5 5 0 1 5 5 5 4 0 0 3 5 5 29 96 66 88 42 100 100 100 100
100 100 100 100 100 93 63 27 10 5 9 5 16 6 11 78 93 84 42 94 100 100 95 34 5 5 5 5 5 5 5 5 5 5 5 4 2 5 5 0 0 1 14 34 55 85 100 76 84 92 100 100 100 100
100 100 100 100 100 97 89 36 5 11 5 7 5 29 38 35 89 96 66 100 75 6 5 2 0 0 3 4 0 3 2 2 5 5 5 5 7 0 0 3 17 48 15 6 91 100 100 92 74 100 100 100 100 100
100 97 100 100 77 17 9 7 5 6 16 6 9 15 13 55 33 53 97 95 5 5 1 3 0 0 0 0 2 3 4 5 5 5 4 0 0 0 5 5 66 74 13 5 49 100 95 90 100 100 100 100 100 100
100 99 89 42 35 30 52 99 30 46 27 49 77 72 28 53 28 90 66 12 5 5 5 3 5 5 5 5 5 5 4 5 5 1 5 5 5 5 7 6 20 48 61 44 80 99 100 100 100 99 67 93 100 100
46 74 6 69 97 66 75 96 100 97 100 76 67 36 11 38 12 86 42 5 5 5 2 5 5 5 5 5 5 5 8 5 7 5 5 5 36 52 7 53 100 100 93 23 81 84 100 84 92 100 100 87 78 95
70 68 66 29 98 21 95 100 100 86 82 81 68 20 51 8 10 5 5 5 5 5 5 4 5 5 7 5 6 10 57 82 8 9 6 12 60 65 73 100 100 83 74 97 98 100 90 82 100 98 100 100 100 98
88 82 94 38 65 55 75 69 44 41 95 44 12 21 9 5 11 5 5 5 5 5 5 47 97 70 81 72 36 5 5 7 18 35 61 84 99 100 100 100 95 87 94 88 100 100 100 100 100 100 99 100 100 100
56 95 100 100 91 47 11 67 36 34 5 5 20 37 35 11 5 5 5 5 5 86 100 100 42 10 15 6 7 62 68 75 90 97 82 69 93 94 100 100 73 99 100 94 100 100 100 100 100 94 100 100 100 100
90 93 66 70 47 77 44 18 5 27 100 100 73 49 72 83 100 78 5 5 14 72 23 5 5 83 44 52 90 98 85 99 100 77 95 100 100 94 74 100 92 100 100 90 85 92 65 75 69 90 100 100 100 100
81 99 74 66 97 99 70 70 7 5 18 83 97 92 75 16 10 42 40 44 64 85 53 63 88 97 91 100 100 95 91 91 94 96 97 88 77 78 92 85 100 100 98 96 98 68 49 57 30 50 66 99 100 100
61 63 41 78 36 5 5 28 42 61 41 19 28 80 12 57 85 93 90 96 89 100 100 99 99 96 100 98 100 100 98 97 98 98 100 98 96 98 100 100 100 99 91 100 100 100 80 74 78 99 100 100 100 100
100 76 58 46 52 46 68 46 12 6 13 80 6 61 59 92 99 100 99 87 100 100 100 100 100 100 95 94 97 98 96 98 100 100 100 100 100 100 100 100 77 69 74 85 95 85 67 78 84 95 97 100 86 100
18 39 67 70 63 56 24 5 10 45 69 48 5 2 11 81 99 100 98 100 99 99 100 100 100 100 100 100 100 99 95 80 95 100 100 100 100 98 81 71 54 67 89 99 93 84 76 65 61 67 95 100 99 91

GFSWCAN_prec_cloud_018.txt.gz
Cloud_Cover
100 100 100 100 100 100 100 100 100 100 100 100 100 100 100 100 100 100 92 86 24 31 32 5 7 17 5 5 5 5 9 58 98 100 97 44 23 13 10 76 35 8 82 46 69 100 64 6 97 81 100 67 68 19
100 100 100 100 100 100 100 100 100 100 100 99 84 97 100 100 100 100 100 46 14 13 27 5 5 5 5 4 1 5 60 84 8 80 57 76 60 29 9 92 38 38 97 90 75 18 48 49 66 99 100 84 99 100
100 100 100 100 100 100 100 100 100 100 100 100 100 100 100 100 100 100 91 40 10 100 5 8 3 6 8 8 6 18 66 5 6 16 18 58 47 9 40 87 68 87 100 63 96 100 100 100 100 95 43 94 100 100
100 100 100 100 100 100 100 100 100 100 100 100 100 100 100 100 100 95 100 98 100 100 100 100 100 100 100 82 61 10 7 5 5 50 100 100 100 94 95 76 100 100 100 94 62 79 52 100 76 78 100 100 100 100
100 100 100 100 100 100 100 100 100 100 100 100 100 100 100 100 100 100 100 100 100 100 100 100 100 100 100 100 73 5 11 6 100 100 100 100 97 88 100 100 100 100 96 85 61 86 100 95 100 100 100 100 100 100
100 100 100 100 100 100 100 100 100 100 100 100 100 100 100 100 100 100 100 100 100 100 100 100 100 100 100 100 100 72 100 41 76 100 100 100 99 100 100 100 100 100 100 100 100 87 100 100 99 100 100 100 100 100
100 100 100 100 100 100 100 100 100 100 100 100 100 100 100 100 100 100 100 100 100 100 100 100 100 100 100 100 100 100 94 100 100 100 100 100 100 100 100 100 100 100 100 100 100 100 100 100 100 100 98 53 47 98
100 100 100 100 100 100 100 100 100 100 100 100 100 100 100 100 100 100 100 100 100 100 100 100 100 100 100 100 100 100 100 100 100 100 100 100 100 100 100 100 100 100 100 100 100 100 100 86 82 82 97 92 57 64
100 100 100 100 100 100 100 100 100 100 100 100 100 100 100 100 100 100 100 100 100 100 100 100 100 100 100 100 100 100 100 100 100 100 100 100 100 100 97 100 100 100 100 92 54 36 75 99 100 99 97 100 86 56
100 100 100 100 100 100 100 100 100 100 100 100 100 100 100 100 100 100 100 100 100 100 100 100 100 100 100 100 100 100 100 100 100 100 74 100 100 100 100 99 100 84 92 97 100 100 100 100 100 99 100 38 5 14
100 100 100 100 100 100 100 100 100 100 100 100 100 100 100 100 100 100 100 100 100 100 100 100 100 100 100 100 100 100 100 100 96 36 93 99 100 82 50 78 66 78 97 100 98 95 100 92 95 24 33 90 77 36
100 100 100 100 100 100 100 100 100 100 100 100 100 100 100 100 100 100 100 100 100 82 99 99 100 100 100 100 100 100 100 100 97 88 93 83 7 16 86 99 96 98 63 56 52 38 80 84 71 94 73 41 16 5
100 100 100 100 100 100 100 100 100 100 100 100 100 100 100 100 100 58 76 99 100 100 100 100 100 100 100 100 100 100 98 85 85 98 94 99 92 99 89 99 72 11 5 54 82 100 98 66 16 6 5 4 0 4
100 100 100 100 100 100 100 100 100 100 100 100 100 100 100 100 100 100 100 100 100 100 100 100 100 100 100 100 100 100 99 100 100 90 46 79 90 100 99 95 56 68 46 55 5 5 5 4 0 0 5 5 5 5
99 100 100 100 100 100 100 100 100 100 100 100 100 100 100 100 100 100 100 100 100 100 100 100 100 100 100 100 100 100 100 100 92 56 62 98 100 98 69 17 5 5 5 5 3 5 5 3 5 5 5 5 5 5
81 100 100 100 100 100 100 100 100 100 100 100 100 100 100 100 100 100 100 100 100 100 100 100 100 100 100 100 100 100 100 100 76 86 87 73 62 45 10 4 2 1 5 5 5 5 3 5 5 5 5 5 5 5
100 100 100 100 100 100 100 100 100 100 100 100 100 100 100 100 100 100 100 100 100 100 100 100 100 100 100 100 99 100 94 30 7 5 35 5 3 0 0 0 4 5 5 5 0 0 0 5 5 6 10 5 5 62
100 100 100 100 100 100 100 100 100 100 100 100 100 100 100 100 100 100 100 100 100 100 100 100 100 100 100 100 93 27 20 5 5 8 5 3 1 0 2 5 1 5 5 5 0 0 5 5 41 81 5 5 59 100
100 100 100 100 100 100 100 100 100 100 100 100 100 100 100 100 100 99 100 100 100 100 100 100 100 100 100 100 91 35 15 5 5 0 2 1 5 5 5 5 5 5 5 2 1 5 5 5 12 25 6 31 100 100
100 100 100 100 98 99 99 87 100 100 100 100 100 100 100 100 100 100 100 100 100 100 100 100 96 62 51 88 100 66 5 3 5 5 3 5 5 5 5 5 5 4 0 0 5 43 20 53 100 99 86 100 100 100
100 100 100 100 100 94 62 42 44 99 100 100 96 100 100 100 100 100 81 84 82 100 100 100 100 100 100 97 5 5 5 5 5 5 4 4 4 5 5 5 0 0 3 16 60 6 7 99 100 100 100 100 100 100
100 100 100 100 100 100 94 19 31 24 7 8 14 36 71 90 99 100 100 100 100 100 100 97 86 30 3 4 1 3 3 5 5 5 5 5 6 8 4 3 11 5 17 20 18 18 10 76 98 66 100 100 100 100
88 79 80 83 68 82 58 46 43 21 8 14 31 31 38 59 45 94 100 100 27 5 5 5 2 0 1 0 4 5 4 5 5 5 5 5 5 2 5 5 29 91 96 15 46 77 69 74 99 85 98 100 98 100
100 100 93 24 36 47 40 81 38 60 61 56 64 61 21 67 83 100 95 65 9 15 6 3 5 5 6 5 5 5 5 5 5 5 7 24 5 5 5 5 31 22 76 52 6 33 75 40 94 100 100 100 86 86
98 100 50 70 79 72 72 95 98 98 99 87 85 69 16 58 75 100 98 5 5 5 4 5 5 5 5 5 5 5 5 5 5 5 4 5 6 6 11 54 57 96 100 88 93 100 100 100 100 100 100 89 96 84
100 77 51 100 94 41 62 100 100 99 100 100 92 30 40 47 10 5 5 5 5 5 5 5 5 5 6 5 5 5 19 89 34 22 4 5 5 42 80 95 78 66 100 100 100 100 100 100 100 100 100 93 90 97
100 92 94 45 7 11 81 78 58 71 94 83 14 69 46 36 27 5 5 5 5 5 5 5 5 14 5 5 16 24 33 6 5 5 16 52 96 100 100 100 91 96 96 100 99 100 100 99 92 82 86 74 75 94
41 93 99 85 90 35 26 89 57 77 6 5 5 48 46 28 11 5 65 98 86 8 5 5 5 5 5 5 5 28 62 97 95 93 89 91 92 67 85 98 91 94 100 100 100 94 76 71 93 97 100 100 100 100
97 95 54 99 100 98 36 6 5 6 81 94 93 62 74 69 100 100 95 100 91 90 74 65 21 49 12 64 50 53 100 100 100 100 100 63 84 84 81 80 84 100 100 100 94 91 87 85 90 95 61 73 55 68
95 87 76 86 84 48 6 38 19 5 36 18 55 5 17 33 82 47 87 84 97 100 97 91 99 100 88 98 91 89 100 95 100 97 98 85 74 83 99 95 100 100 100 100 100 99 99 98 60 72 62 69 82 91
80 81 89 89 77 14 5 39 48 71 56 13 36 25 5 15 96 93 92 98 100 100 100 100 98 98 95 100 99 99 100 90 83 83 91 74 72 72 82 88 100 100 100 100 98 100 96 67 68 90 91 89 72 74
100 93 61 95 18 14 54 69 75 83 82 44 7 54 65 92 98 100 95 98 100 100 100 98 98 100 100 100 100 100 100 100 100 100 100 94 80 77 64 67 71 80 92 97 93 77 39 59 71 66 94 100 100 90
53 84 92 87 22 42 6 41 50 89 84 75 38 96 79 84 96 100 99 99 100 100 100 100 100 100 100 100 100 100 100 100 100 100 100 98 93 84 74 64 80 76 66 70 65 62 28 42 55 62 72 81 85 94

GFSWCAN_prec_cloud_021.txt.gz
Cloud_Cover
100 100 100 100 100 100 100 100 100 100 100 100 100 100 100 100 100 100 100 100 100 100 97 67 52 34 43 74 33 51 68 12 98 100 97 97 14 5 26 13 5 28 15 91 98 99 57 9 91 100 99 100 83 100
100 100 100 100 99 98 100 100 100 100 100 100 100 100 100 100 100 100 100 100 100 100 97 92 42 64 63 7 5 5 30 24 6 79 57 75 98 70 39 27 86 97 27 85 98 35 20 98 100 52 86 59 81 98
100 100 100 100 100 100 100 100 100 100 100 100 100 100 100 100 100 100 100 100 100 100 100 93 52 42 7 5 5 5 5 7 57 5 12 45 29 10 60 75 29 100 66 73 96 96 13 35 47 47 75 100 100 100
100 100 100 100 100 100 90 100 100 100 100 100 100 100 100 100 100 100 100 100 100 100 100 66 30 5 5 5 6 20 96 100 100 52 100 100 100 96 100 98 62 83 69 87 27 67 72 100 100 100 100 100 100 100
100 100 100 100 100 100 100 100 100 100 100 100 100 100 100 100 100 91 61 62 29 30 88 88 5 54 89 83 97 100 100 100 100 100 100 100 67 100 100 78 97 100 70 64 86 74 99 100 100 100 100 100 100 100
100 100 100 100 100 100 100 100 100 100 100 100 100 100 100 100 100 100 99 100 100 73 99 100 92 100 100 100 100 100 100 63 96 100 100 100 100 100 100 100 100 71 98 100 98 100 100 100 100 100 100 100 100 98
100 100 100 100 100 100 100 100 100 100 100 100 100 100 100 100 100 100 100 100 100 100 100 100 100 100 100 100 100 99 100 100 88 100 100 100 100 100 100 100 100 90 100 100 90 100 94 100 100 99 92 26 46 100
100 100 100 100 100 100 100 100 100 100 100 100 100 100 100 100 100 100 100 100 100 100 100 100 100 96 100 100 100 100 100 100 100 100 100 100 100 100 100 100 100 100 99 100 100 100 100 100 69 88 86 94 14 96
100 100 100 100 100 100 100 100 100 100 100 100 100 100 100 100 100 100 100 100 100 100 100 100 100 100 100 100 100 100 100 100 100 100 100 100 100 100 100 100 100 100 100 100 100 100 100 100 100 100 91 99 95 71
100 100 100 100 100 100 100 100 100 100 100 100 100 100 100 100 100 100 100 100 100 100 100 100 100 100 100 100 100 100 100 100 100 100 100 100 100 100 100 100 100 100 100 100 76 90 28 9 5 17 79 46 10 4
100 100 100 99 100 100 100 100 100 100 100 100 100 100 100 100 100 100 100 100 100 100 100 100 100 100 100 100 100 100 100 100 100 80 100 94 100 94 99 100 100 100 98 92 89 27 5 5 5 5 5 5 2 0
100 100 100 100 100 100 100 100 100 100 100 100 100 100 100 100 100 100 100 100 100 100 100 100 100 100 100 100 100 100 100 100 87 81 97 71 75 73 100 100 100 97 79 96 56 8 5 5 12 8 0 0 1 2
100 100 100 100 100 100 100 100 100 100 100 100 100 100 100 100 100 100 77 90 97 96 96 97 100 100 100 100 100 98 100 100 90 95 55 85 90 100 100 100 70 86 65 5 54 15 5 5 5 3 4 4 5 5
100 100 100 100 100 100 100 100 100 100 100 100 100 100 100 100 100 100 100 100 100 100 100 100 100 100 100 99 99 99 96 93 98 87 72 78 92 97 60 60 100 18 24 100 32 5 5 7 5 5 5 5 5 5
100 100 100 100 100 100 100 100 100 100 100 100 100 100 100 100 100 100 100 100 100 100 100 100 100 98 100 100 94 77 99 89 64 85 41 54 97 100 100 99 22 100 87 9 5 19 7 5 5 5 5 5 5 5
100 100 100 100 100 100 100 100 100 100 100 100 100 100 100 100 100 100 100 100 100 100 100 100 100 100 100 100 90 98 100 100 68 31 70 88 100 100 81 72 100 90 9 10 40 5 5 5 4 5 5 5 5 5
100 100 100 100 100 100 100 100 100 100 100 100 100 100 100 100 100 100 100 100 100 100 100 100 100 100 100 100 100 100 100 100 100 100 100 100 100 100 100 81 96 77 60 21 5 5 5 0 5 5 7 5 5 11
100 100 100 100 100 100 100 100 100 100 100 100 100 100 100 100 100 100 100 100 100 100 100 100 100 100 100 100 100 100 100 100 100 100 99 100 100 100 100 95 88 87 6 40 5 5 0 3 6 5 16 37 80 100
100 100 100 100 100 100 100 100 100 100 100 100 100 100 100 100 100 100 100 100 100 100 100 100 100 100 100 100 100 100 100 100 100 99 96 99 100 99 75 37 6 62 20 5 5 0 0 5 8 5 48 94 100 100
100 100 100 100 100 100 100 100 100 100 100 100 100 100 100 100 100 100 100 100 100 100 100 100 100 100 100 100 100 99 77 82 100 100 100 99 26 5 54 93 30 5 5 1 3 41 5 5 5 9 99 100 100 100
100 100 100 100 100 100 94 84 100 100 100 100 100 100 100 100 100 100 100 100 100 100 100 100 100 100 100 100 100 100 100 100 100 23 5 17 86 6 4 5 5 5 5 5 5 6 29 10 41 95 100 79 90 100
100 100 100 100 100 97 62 100 98 92 96 84 83 58 72 78 97 100 100 100 100 100 100 100 98 90 100 96 41 67 91 56 7 5 5 5 5 5 5 5 5 5 5 6 25 33 24 97 74 74 93 100 100 99
100 100 100 100 100 77 99 100 100 100 98 98 56 35 48 62 63 100 100 100 97 93 100 100 90 54 9 0 2 3 5 5 5 5 5 5 5 5 5 5 5 28 32 95 23 30 75 85 99 88 100 100 100 100
100 100 100 100 84 78 44 54 86 92 89 99 100 100 95 87 93 100 100 90 17 5 5 4 5 5 5 5 5 5 5 5 5 5 5 5 5 5 5 5 7 99 98 83 73 75 100 100 100 100 100 100 100 99
100 100 56 84 76 54 65 89 100 96 100 99 99 85 25 89 97 100 100 32 5 5 5 5 5 5 5 5 5 5 5 5 5 5 3 5 5 5 5 5 72 96 97 73 65 66 99 100 100 100 100 100 90 88
100 75 44 72 83 53 91 99 98 100 100 100 98 67 65 68 66 25 5 5 5 5 5 3 2 2 4 5 5 5 5 78 95 41 6 61 99 36 26 76 69 81 81 84 82 76 86 92 100 96 92 83 100 100
100 98 100 69 7 10 79 93 92 80 100 98 82 100 62 57 41 4 5 5 5 34 62 89 100 68 5 38 51 5 5 5 5 20 59 95 100 99 100 100 100 95 96 100 99 90 93 90 93 90 100 100 100 100
100 95 75 90 93 41 42 91 94 92 61 5 19 48 12 6 5 29 85 92 100 98 74 100 100 100 89 78 18 20 8 16 65 100 100 100 100 94 84 81 91 90 98 94 92 84 97 92 96 95 95 100 100 91
98 90 64 100 100 100 79 5 20 6 29 48 71 90 99 100 96 96 74 94 87 99 98 98 86 91 100 100 86 84 100 100 100 100 89 99 100 100 90 68 77 90 84 85 98 100 97 92 96 91 90 76 68 59
100 100 94 100 100 84 28 16 40 94 75 74 55 9 5 64 100 95 88 60 66 99 99 97 100 100 97 99 100 100 100 100 100 100 100 100 99 95 84 81 86 99 99 90 82 100 100 98 87 80 71 75 89 74
99 100 96 97 78 7 27 67 69 84 85 57 75 19 6 91 100 84 90 84 92 96 69 78 81 100 100 100 100 100 100 100 100 100 100 100 100 100 100 100 93 96 100 98 90 83 74 66 74 77 61 73 79 87
100 99 100 100 52 6 48 60 85 74 94 58 12 59 77 93 98 96 100 88 42 71 96 99 94 99 100 100 100 100 100 100 100 100 100 100 100 100 97 97 91 100 77 64 62 54 35 49 58 71 78 82 81 90
88 99 100 100 18 5 5 12 4 12 29 30 82 100 97 90 92 92 90 89 99 100 100 100 100 100 100 100 100 100 100 100 100 100 100 100 100 100 100 100 76 70 53 42 65 33 25 21 70 71 77 79 81 83

GFSWCAN_prec_cloud_024.txt.gz
Cloud_Cover
100 100 100 100 100 100 100 100 100 100 100 100 100 100 100 100 100 100 100 100 100 100 100 100 100 100 99 55 27 11 35 13 86 100 99 98 100 86 41 60 7 32 83 83 81 100 78 57 100 92 98 89 98 90
100 100 100 100 100 100 100 100 100 100 100 99 80 100 100 100 100 100 100 100 100 100 100 100 100 100 100 35 71 28 5 7 6 59 92 94 99 90 100 6 5 15 6 30 12 7 98 98 17 80 72 59 70 100
100 100 100 100 100 100 100 100 100 100 100 96 32 99 100 100 100 100 100 100 100 100 100 99 95 100 100 98 71 26 42 10 5 5 6 65 100 100 100 41 26 56 10 21 18 93 97 98 26 23 68 90 100 100
100 100 100 100 100 100 100 100 100 100 100 94 13 62 100 100 100 100 100 100 100 100 100 98 100 100 100 100 99 89 44 17 5 6 99 100 100 100 73 36 57 62 89 76 70 20 70 100 77 88 100 100 100 100
100 100 100 100 100 100 100 81 97 100 100 100 93 100 100 93 100 100 100 100 100 80 87 100 57 100 100 100 72 34 7 5 93 100 100 100 100 68 68 48 92 100 97 100 95 99 100 100 99 100 100 100 100 86
100 100 100 100 100 100 100 100 90 100 100 100 100 100 100 100 100 100 100 100 100 98 97 100 76 60 83 27 32 26 34 68 100 58 100 43 47 64 100 100 100 100 100 100 96 100 100 100 100 100 92 100 100 92
100 100 100 100 100 100 100 100 100 100 100 100 100 100 100 100 100 100 34 99 100 86 100 100 98 88 100 100 100 100 100 100 98 99 100 92 88 98 100 100 100 100 100 100 100 90 100 100 98 72 73 52 15 55
100 100 100 100 100 100 100 100 100 100 100 100 100 100 100 100 96 99 100 100 100 100 100 100 100 100 100 100 100 100 100 100 96 100 100 98 94 100 100 100 100 95 99 100 100 100 99 34 69 94 53 5 5 5
100 100 100 98 100 100 100 100 100 100 100 100 100 100 100 100 100 100 100 100 100 100 100 100 100 100 100 100 100 100 100 100 97 100 100 100 100 100 100 100 100 100 100 100 76 89 96 100 94 8 5 5 5 28
100 100 100 100 100 100 100 100 100 100 100 100 100 100 100 100 100 100 100 100 100 100 100 100 100 100 100 100 100 100 100 100 100 100 100 100 100 94 100 100 100 100 100 100 79 96 36 13 5 5 5 22 5 5
90 100 100 100 100 100 100 100 100 100 100 100 100 100 100 100 100 100 100 100 100 100 100 100 100 100 100 100 100 100 100 100 100 100 100 100 82 100 100 99 98 100 100 96 84 22 5 4 1 5 5 5 5 5
95 100 95 99 100 100 100 100 100 100 100 100 100 100 100 100 100 100 100 100 100 100 100 100 100 100 100 100 100 100 100 100 100 60 100 100 68 91 93 100 100 100 81 55 5 5 5 5 5 5 5 5 5 26
100 100 100 98 100 100 100 100 100 100 100 100 100 100 100 100 100 100 100 100 100 100 92 100 100 100 100 100 100 100 100 100 52 100 68 75 95 100 100 100 91 51 8 5 5 6 6 5 5 5 5 8 16 8
98 100 100 100 100 100 100 100 100 100 100 100 100 100 100 100 100 100 100 96 97 100 100 100 100 100 100 100 100 100 100 100 100 99 67 97 92 66 79 50 86 13 5 5 5 14 6 23 23 58 42 63 5 5
37 99 89 100 100 100 100 100 100 100 100 100 100 100 100 100 100 100 100 100 100 100 100 100 100 100 100 100 100 100 100 100 80 85 27 46 72 78 77 61 5 5 20 68 35 69 98 80 38 100 100 64 5 5
85 100 100 100 100 100 100 100 100 100 100 100 100 100 100 100 100 100 100 100 100 100 100 100 100 100 100 100 100 100 100 100 89 48 14 20 81 88 20 5 36 46 62 78 100 96 53 60 100 74 14 5 5 15
100 100 63 100 100 100 100 100 100 100 100 100 100 100 100 100 100 100 100 100 100 100 100 100 100 100 100 100 100 100 100 42 5 49 98 100 100 90 84 100 100 100 100 100 78 46 98 100 7 6 19 5 6 54
100 100 97 99 100 100 100 100 100 100 100 100 100 100 100 100 100 100 100 100 100 100 100 100 100 100 100 100 100 29 28 73 100 100 100 100 100 100 100 100 100 100 81 100 100 100 98 9 5 5 8 23 32 51
100 95 81 100 100 100 100 100 100 100 100 100 100 100 100 100 100 100 100 100 100 100 100 100 100 100 100 100 89 100 100 100 100 100 100 100 100 100 100 100 100 100 100 100 100 81 5 5 5 14 44 86 94 100
100 100 100 100 100 100 100 100 98 100 100 100 100 100 100 100 100 100 100 100 100 100 100 100 100 100 100 100 100 100 100 100 100 100 100 100 100 100 100 100 100 100 91 19 5 5 5 5 14 71 100 100 72 92
100 100 100 100 100 100 100 100 100 100 100 100 100 100 100 100 100 100 100 100 100 100 100 100 100 100 100 100 100 100 100 100 100 100 100 96 82 39 8 6 5 5 5 5 10 5 36 86 92 100 100 98 96 81
100 100 100 98 100 100 100 100 100 100 92 100 100 100 100 100 100 100 100 100 100 100 100 100 100 100 100 100 100 99 90 61 10 6 5 5 13 39 16 5 5 9 5 37 5 38 59 94 100 100 100 100 100 95
100 100 100 100 100 91 100 100 99 95 95 99 96 97 100 100 100 100 100 100 100 100 100 100 100 100 84 25 2 0 0 0 0 0 5 5 5 5 5 5 5 47 7 5 13 70 99 63 42 80 100 100 100 100
100 100 100 100 72 87 38 67 77 99 100 100 100 83 32 67 87 100 88 11 5 5 8 3 0 0 0 0 0 0 0 0 0 0 4 5 5 5 5 5 5 5 17 45 95 98 98 100 82 98 100 100 100 100
100 100 100 100 100 100 96 100 99 85 99 88 55 18 72 90 82 98 38 5 4 2 21 0 0 0 0 0 0 0 0 0 0 0 2 5 65 6 5 30 87 82 44 100 89 100 100 88 100 100 100 100 93 100
100 100 100 100 100 100 98 71 92 98 90 93 82 69 87 75 8 3 0 4 5 4 52 39 0 0 1 3 5 12 37 89 23 9 5 5 5 32 54 60 91 99 100 100 100 100 100 100 100 99 100 100 100 100
100 100 100 92 49 25 76 93 83 77 97 80 57 84 50 5 5 1 2 46 21 55 61 44 44 51 74 96 84 62 91 100 100 96 81 80 68 90 99 99 100 100 100 100 100 100 100 100 100 100 100 100 100 100
100 100 100 90 73 34 23 42 32 57 7 5 19 18 5 5 1 66 91 94 98 93 64 73 83 77 76 98 92 100 92 100 100 100 100 100 100 100 95 100 100 100 100 98 92 95 100 100 100 100 100 100 100 100
91 85 66 100 100 96 30 5 5 5 5 5 5 6 5 48 100 100 93 98 100 100 81 64 64 98 95 99 95 94 100 100 100 100 100 100 100 100 100 100 100 100 100 100 98 91 94 99 100 98 98 94 99 100
100 92 82 99 98 55 6 6 9 8 6 5 6 17 63 100 100 100 100 100 92 100 100 100 100 100 100 100 100 100 100 100 100 100 100 100 100 100 100 100 100 100 100 100 100 100 99 94 90 99 96 100 100 100
89 96 84 84 64 56 63 82 66 56 13 5 62 8 43 100 100 100 100 100 100 100 100 100 100 100 100 100 100 100 99 100 100 100 100 100 100 100 100 100 100 100 100 100 100 100 100 98 100 100 100 100 100 100
92 88 92 97 65 57 29 24 49 62 5 5 6 76 100 100 100 100 100 100 100 100 100 100 100 100 100 100 100 100 100 100 100 100 100 100 100 100 100 100 100 100 100 100 100 100 100 100 100 100 100 100 100 100
99 100 100 100 77 5 4 4 2 2 5 6 97 100 100 100 100 100 99 100 100 100 100 100 100 100 100 100 100 100 100 100 100 100 100 100 100 100 100 100 100 100 100 100 100 100 100 100 100 100 100 100 100 99

GFSWCAN_prec_cloud_027.txt.gz
Cloud_Cover
100 100 100 100 100 100 100 100 100 100 100 100 100 100 100 100 100 100 100 95 97 100 99 95 98 100 100 100 100 100 100 100 45 100 94 62 97 9 19 51 10 32 61 78 77 97 68 10 48 90 79 39 53 100
100 100 100 100 100 100 100 100 100 100 100 100 100 100 100 100 100 100 100 100 100 100 100 100 86 82 100 100 100 100 100 100 100 63 96 90 96 90 50 95 20 20 7 49 75 21 100 100 100 85 99 95 21 53
100 100 100 100 100 100 100 100 100 100 100 100 100 100 100 100 100 100 100 100 100 100 100 100 100 100 100 100 100 92 28 66 34 21 17 66 100 41 98 37 76 55 59 75 77 47 100 100 100 61 62 99 57 100
100 100 100 100 100 100 100 100 100 100 100 100 100 100 100 100 100 100 100 100 100 100 100 100 90 100 100 100 100 94 97 76 97 35 99 100 100 6 27 26 100 100 90 33 76 85 63 32 66 99 100 91 57 94
100 100 100 100 100 100 100 100 100 100 100 100 100 100 100 100 100 100 100 100 100 100 92 100 100 100 100 100 100 100 100 96 100 99 100 80 12 19 61 67 100 100 50 27 73 90 99 100 100 100 100 34 77 98
100 100 100 100 100 100 100 100 100 100 100 100 100 100 100 100 100 100 100 100 100 100 100 100 100 100 100 100 100 100 100 100 97 88 88 20 71 60 100 76 100 96 93 5 7 42 93 100 100 91 60 99 100 64
100 100 100 100 100 100 100 100 100 100 100 100 100 100 100 100 89 42 91 97 100 100 100 94 42 44 76 100 100 100 100 100 100 97 95 100 100 94 100 93 97 46 68 30 66 99 95 100 59 34 91 70 30 6
100 100 100 100 100 100 100 100 100 100 100 100 100 100 100 100 100 68 72 65 61 72 89 100 86 98 100 100 97 100 100 100 100 100 100 100 70 98 100 98 40 67 72 82 100 90 88 57 9 86 68 93 100 91
100 100 100 100 100 100 100 100 100 100 100 100 100 100 100 100 100 100 100 100 97 87 100 100 100 98 97 100 100 100 100 100 100 100 100 100 100 96 100 100 100 95 100 100 100 100 8 26 48 81 87 100 93 29
100 100 100 100 100 100 100 100 100 100 100 100 100 100 100 100 100 100 100 100 100 100 100 100 100 100 100 100 100 100 100 100 100 100 100 100 100 90 100 100 97 77 100 100 100 99 84 100 100 81 99 19 33 6
100 100 100 100 96 90 100 90 100 100 100 100 100 100 100 100 100 100 100 100 100 100 100 95 100 100 100 100 100 100 100 100 100 82 100 100 76 100 100 100 81 100 100 100 100 92 100 100 78 5 5 5 5 6
100 100 100 100 100 100 100 100 100 100 100 100 100 100 100 100 100 100 100 100 100 100 100 100 100 100 100 100 100 100 100 100 99 90 100 100 96 100 100 97 97 92 96 84 10 15 8 21 7 5 5 5 5 5
100 100 100 100 100 100 100 100 100 100 100 100 100 100 100 100 100 100 100 100 100 100 100 100 100 100 100 100 100 100 100 100 98 100 90 100 100 79 77 68 90 88 58 5 5 5 5 5 5 5 5 5 27 5
91 100 100 100 100 100 100 100 100 100 100 100 100 100 100 100 100 100 100 100 100 100 100 100 100 100 100 100 100 100 100 99 100 99 99 99 100 92 78 99 100 67 5 6 5 5 5 5 5 91 71 10 16 53
5 99 100 100 100 100 100 100 100 100 100 100 100 100 100 100 100 100 100 100 100 100 100 100 100 100 100 100 100 100 100 100 92 95 100 100 100 100 100 96 50 9 66 54 25 5 37 54 100 66 48 66 99 46
5 31 100 100 100 100 100 100 100 100 100 100 100 100 100 100 100 100 100 100 100 100 100 100 100 100 100 100 100 100 100 100 100 100 100 100 100 100 82 21 61 97 90 69 16 79 100 90 53 92 100 100 74 88
6 93 28 100 100 100 100 100 100 100 100 100 100 100 100 100 100 100 100 100 100 100 100 100 100 100 100 100 100 100 100 100 100 100 100 100 89 65 56 64 99 100 100 98 100 100 76 99 100 100 80 6 65 80
91 76 77 100 100 100 100 100 100 100 100 100 100 100 100 100 100 100 100 100 100 100 100 100 100 100 100 100 100 100 100 100 100 100 100 100 100 100 100 100 100 99 100 100 100 100 100 100 86 14 14 52 63 85
98 99 98 100 100 100 98 98 92 99 100 100 100 100 100 100 100 100 100 100 100 100 100 100 100 100 100 100 100 100 100 100 100 100 100 100 100 99 97 100 100 100 100 100 100 100 100 92 5 13 85 72 100 100
100 100 100 100 100 100 99 90 60 100 93 97 100 100 100 100 100 100 100 100 100 100 100 100 100 100 100 100 100 100 100 100 100 100 100 100 100 100 100 100 100 100 100 100 100 99 24 5 35 71 83 100 100 98
100 100 100 100 100 100 85 64 80 34 99 82 88 86 100 100 100 100 100 100 100 100 100 100 100 100 100 100 100 100 100 100 100 100 94 94 100 100 100 100 100 100 100 88 18 3 5 5 59 100 100 100 81 99
100 100 100 100 100 98 91 92 96 100 80 96 76 79 88 100 100 100 100 100 100 100 100 100 100 100 100 100 100 99 100 100 91 95 96 100 100 99 100 100 100 62 4 29 5 20 31 58 95 100 100 100 100 100
100 100 100 99 100 100 100 89 100 100 92 98 100 91 86 89 100 92 100 73 22 93 100 100 100 100 100 100 100 100 100 100 100 100 99 100 100 100 82 18 5 44 19 5 43 73 95 98 100 100 100 100 100 100
100 100 100 83 66 93 99 100 100 100 99 79 83 78 97 97 88 84 40 25 7 13 62 42 19 5 55 89 93 99 100 100 94 78 64 25 5 31 60 52 5 5 30 98 100 80 86 97 100 100 100 100 100 100
100 100 100 91 67 91 100 100 91 68 82 94 100 84 78 75 90 91 90 18 62 78 26 6 4 1 2 5 8 56 29 28 5 5 5 6 6 9 60 49 92 58 51 97 100 100 97 81 100 100 100 100 96 99
100 100 100 100 100 100 100 100 82 82 100 70 79 80 73 88 60 18 18 98 100 71 98 91 53 20 19 68 62 71 86 81 74 36 14 38 57 87 96 98 26 12 96 100 89 96 100 100 100 100 100 100 94 93
100 100 100 85 98 97 100 100 100 99 42 20 65 76 69 22 5 59 79 79 96 99 100 100 100 86 82 79 90 94 100 100 100 100 88 41 24 89 100 100 100 100 100 100 100 100 100 100 100 100 100 100 100 100
100 100 100 100 100 100 90 14 10 6 5 5 22 50 5 5 51 99 100 99 100 99 98 98 99 91 98 100 100 100 100 100 93 60 12 19 98 98 96 100 100 100 100 100 100 100 100 100 100 100 100 100 100 100
100 100 100 100 100 100 97 74 15 8 5 5 30 32 90 97 100 100 98 100 100 100 97 98 98 99 100 100 100 100 100 100 100 96 100 100 100 100 100 100 100 100 100 100 100 100 100 100 100 100 100 100 100 100
100 100 90 96 99 100 92 58 97 97 10 33 46 24 58 100 100 100 100 100 99 100 100 100 100 100 100 100 100 100 100 100 100 100 100 100 100 100 100 100 100 100 100 100 100 100 100 100 100 100 100 100 100 100
100 100 99 88 89 99 100 85 94 84 78 85 87 66 99 100 100 100 100 100 100 100 100 100 100 100 100 100 100 100 99 100 100 100 100 100 100 100 100 100 100 100 100 100 100 100 100 100 100 100 100 100 100 100
100 100 99 96 88 100 73 85 88 81 88 35 93 83 99 100 100 100 100 100 100 100 100 100 100 100 100 100 100 100 100 100 100 100 100 100 100 100 100 100 100 100 100 100 100 100 100 100 100 100 100 100 100 100
94 93 93 87 90 60 35 4 2 4 44 87 100 100 100 100 100 100 100 100 100 100 100 100 100 100 100 100 100 100 100 100 100 100 100 100 100 100 100 100 100 100 100 100 100 100 100 100 100 100 100 100 100 100

GFSWCAN_prec_cloud_030.txt.gz
Cloud_Cover
100 100 100 100 100 100 100 100 100 100 100 100 100 100 100 100 100 100 100 100 100 84 26 49 39 61 34 58 46 67 69 100 100 100 100 100 100 100 100 94 10 12 48 83 80 91 30 10 32 83 56 32 53 83
100 100 100 100 100 100 100 100 100 100 100 100 100 100 100 100 100 100 100 100 100 100 97 68 100 100 100 100 100 100 100 100 100 100 100 100 100 81 80 42 5 5 7 7 7 5 5 99 85 51 20 87 100 94
100 100 100 100 100 100 100 100 100 100 100 100 100 100 100 100 100 100 100 100 100 99 100 100 100 98 100 100 100 100 100 100 100 100 100 100 100 95 100 100 100 87 61 4 5 5 10 87 54 72 78 100 82 99
100 100 100 100 100 100 100 100 100 100 100 100 100 100 100 100 100 100 100 100 100 100 100 100 100 100 100 100 100 100 100 100 100 100 100 100 100 96 100 100 93 100 86 24 20 5 61 55 34 8 88 100 96 78
100 100 100 100 100 100 100 100 100 100 100 100 100 100 100 100 100 100 100 100 100 88 99 100 100 100 100 99 97 100 95 98 100 100 100 100 94 98 40 76 100 100 100 100 7 11 5 26 22 94 100 100 86 56
100 100 100 100 100 100 100 100 100 100 100 100 100 100 100 100 99 88 96 95 100 80 99 100 100 88 100 100 100 100 100 100 100 100 100 100 100 100 100 90 100 100 100 98 5 5 10 48 75 62 35 34 37 95
100 100 100 100 100 100 100 100 100 100 100 100 100 100 100 100 100 97 100 100 100 100 100 100 95 100 100 100 100 100 100 100 100 100 100 100 100 9 100 95 100 100 100 26 12 9 40 96 96 76 97 69 63 100
100 100 100 100 100 100 100 100 100 100 100 100 100 100 100 100 100 100 100 100 100 100 100 100 100 100 100 100 100 100 100 97 98 79 99 99 34 91 100 100 100 100 85 11 73 11 84 100 100 100 96 79 43 5
100 100 100 100 100 100 100 100 100 100 100 100 100 100 100 100 99 100 100 100 100 100 100 100 100 100 100 100 100 100 100 100 88 100 100 79 100 100 100 100 100 86 12 24 94 100 100 100 96 100 72 5 22 42
100 100 100 100 100 100 100 100 100 100 100 100 100 100 100 100 100 100 100 100 100 100 100 100 100 99 100 100 100 100 100 100 100 100 100 100 100 100 100 100 79 8 93 100 100 100 100 89 55 99 92 29 59 30
98 100 100 100 100 100 100 100 100 100 100 100 100 100 100 100 100 100 100 100 100 100 100 100 100 100 100 100 100 100 100 100 100 69 100 100 98 99 100 100 100 100 100 100 100 81 98 92 100 91 47 64 6 5
100 100 100 100 100 100 100 100 100 100 100 100 100 100 100 100 100 100 100 100 100 100 100 100 100 100 100 100 100 100 100 100 100 85 100 96 100 100 100 100 100 100 97 82 93 100 100 100 93 99 75 12 5 5
100 100 100 100 100 100 100 100 100 100 100 100 100 100 100 100 100 100 100 100 100 100 100 100 100 100 100 100 100 100 100 100 100 100 99 97 87 93 100 100 100 78 72 62 82 82 99 100 83 73 39 49 60 76
100 100 100 100 100 100 96 100 100 100 100 100 100 100 100 100 100 100 100 100 100 100 100 100 100 100 100 100 100 100 100 100 100 100 88 99 100 100 100 100 87 85 99 79 70 99 95 88 99 85 96 100 95 99
100 100 100 100 100 100 100 98 99 100 100 100 100 100 100 100 100 100 100 100 100 100 100 100 100 100 100 100 100 100 100 100 100 100 100 100 100 100 100 100 99 66 31 97 78 68 94 100 100 100 100 100 100 79
33 100 100 100 100 100 100 100 91 99 100 100 100 100 100 100 100 100 100 100 100 100 100 100 100 100 100 100 100 100 100 100 100 100 100 100 100 100 100 99 99 100 100 100 100 100 100 100 100 100 100 75 44 71
8 92 38 100 100 100 100 100 100 100 64 100 100 100 100 100 100 100 100 100 100 100 100 100 100 100 100 100 100 100 100 100 100 100 100 100 100 100 100 100 100 100 100 100 100 100 100 100 97 68 40 56 97 100
99 88 98 100 100 82 92 100 100 100 100 100 100 100 100 100 100 100 100 100 100 100 100 100 100 100 100 100 100 100 100 100 100 100 100 100 100 100 100 100 100 100 100 100 100 100 95 99 92 33 41 100 100 90
87 63 100 100 100 82 74 64 90 100 98 100 100 100 100 100 100 100 100 100 100 100 100 100 100 100 100 100 100 100 100 100 100 100 100 100 100 100 100 100 100 100 100 100 100 96 98 81 93 100 93 58 77 42
82 100 100 100 100 90 93 18 18 23 42 98 100 100 100 100 100 100 100 100 100 100 100 100 100 100 100 100 100 100 100 100 100 100 100 100 100 100 100 100 100 100 100 100 97 100 100 100 100 94 18 57 98 100
100 100 100 100 100 100 100 99 64 66 32 90 98 97 100 100 100 100 100 100 100 100 100 100 100 100 100 100 100 100 100 100 100 100 100 100 100 100 100 100 74 60 98 100 100 69 15 80 52 37 100 100 100 100
100 100 100 100 100 95 94 67 96 39 90 100 100 95 100 94 100 100 95 86 99 100 100 100 100 100 100 100 100 100 100 100 100 100 100 100 100 100 100 100 96 90 98 99 100 98 100 83 46 96 100 100 100 100
100 100 100 100 100 82 85 70 69 80 99 100 99 100 100 100 100 85 94 42 9 5 15 22 15 5 36 86 100 100 100 100 100 100 100 100 100 100 99 28 8 59 62 25 72 91 78 79 79 98 82 99 100 100
100 100 100 100 100 99 56 100 86 96 100 100 100 100 100 100 99 90 57 41 56 53 33 5 5 5 5 3 6 60 44 22 16 25 18 11 2 4 4 5 5 35 87 9 58 100 100 100 100 95 50 73 100 100
100 100 100 99 63 95 89 100 100 100 100 100 100 100 100 100 96 79 71 73 86 99 100 58 6 10 34 86 61 66 36 25 65 57 5 5 21 40 33 5 5 5 5 21 97 100 100 100 100 38 42 72 100 100
100 100 95 85 89 74 90 100 100 100 100 97 94 94 100 98 98 94 95 100 100 100 100 100 100 45 72 44 60 74 86 81 88 97 76 69 38 66 87 86 82 55 59 97 100 100 100 100 100 100 100 100 100 100
100 100 100 60 88 98 100 100 100 100 79 51 74 72 32 40 15 64 96 100 99 100 100 100 100 87 91 87 90 98 100 98 89 96 68 67 100 99 100 100 100 100 91 93 100 100 100 100 100 90 100 100 100 100
96 100 88 100 100 100 100 100 100 100 98 83 98 100 94 44 75 99 100 100 100 100 100 100 100 100 100 99 98 97 95 92 80 32 2 92 100 84 92 100 100 100 100 100 100 100 100 100 100 100 100 100 100 100
100 100 100 100 100 100 100 97 100 100 100 90 78 91 94 95 100 100 97 99 100 100 99 98 93 100 99 100 99 100 100 100 92 74 75 89 68 43 89 100 100 97 89 100 100 100 100 97 100 100 100 100 100 100
100 100 100 100 100 100 100 100 100 100 100 95 53 24 72 100 100 100 100 98 100 100 99 98 100 100 100 100 99 95 100 100 100 100 100 100 100 100 100 100 100 100 100 100 100 100 100 100 100 100 100 100 100 100
100 100 100 98 99 100 100 100 100 99 100 89 94 98 98 100 100 100 100 100 100 100 99 100 100 100 100 100 100 100 100 100 100 100 100 100 100 100 100 100 100 100 98 100 100 100 100 100 100 100 100 100 100 100
100 100 100 99 100 100 100 100 99 100 100 100 93 83 96 99 100 100 100 100 100 100 99 100 100 100 100 100 100 77 100 99 100 100 100 100 100 100 100 100 100 100 100 100 100 100 100 100 100 100 100 100 100 100
96 96 90 94 83 88 65 27 7 28 60 84 98 99 95 99 100 100 100 99 98 100 100 100 100 100 100 100 29 100 100 96 80 100 100 100 99 93 100 100 100 100 99 100 100 100 100 100 100 100 100 100 100 100

GFSWCAN_prec_cloud_033.txt.gz
Cloud_Cover
100 100 100 100 100 100 100 100 100 100 100 100 100 100 100 100 100 100 100 100 100 100 100 100 100 5 6 55 84 93 96 100 94 42 45 100 91 92 100 100 100 100 99 100 50 41 52 5 5 5 5 5 5 5
100 100 100 100 100 100 100 100 100 100 100 100 100 100 100 100 100 100 100 100 100 100 100 100 89 32 53 99 96 13 40 34 89 100 92 93 97 100 100 100 100 100 100 100 100 96 8 5 5 32 33 5 19 8
100 100 100 100 100 100 100 100 100 100 100 100 100 100 100 100 100 100 100 100 100 100 100 100 100 96 33 98 100 100 100 100 100 100 100 100 100 100 100 100 100 100 100 100 57 71 6 4 5 5 5 9 84 19
100 100 100 100 100 100 100 100 100 100 100 100 100 100 100 100 100 100 100 100 100 100 100 100 100 100 41 58 100 100 100 100 100 100 100 100 100 99 100 100 100 100 100 97 13 62 5 5 5 5 5 52 24 5
100 100 100 100 100 100 100 100 100 100 100 100 100 100 100 85 100 100 100 100 100 100 100 100 100 100 100 100 100 100 100 100 100 100 100 100 92 100 100 100 100 100 100 97 100 100 9 32 77 83 18 82 45 16
100 100 100 100 100 100 100 100 100 100 100 100 100 100 100 100 79 90 100 99 100 100 100 100 100 100 100 100 100 100 100 100 100 100 95 100 100 100 100 100 100 100 100 100 100 6 65 100 100 37 59 100 78 99
100 100 100 100 100 100 100 100 100 100 100 100 100 100 100 100 100 100 89 80 82 65 87 100 99 100 100 100 100 100 100 100 100 100 100 100 100 99 100 100 100 100 100 100 100 100 100 100 96 66 98 81 82 92
100 100 100 100 100 100 100 100 100 100 100 100 100 100 100 100 100 100 100 100 100 71 81 98 100 100 100 100 100 100 100 100 100 99 100 100 100 100 100 100 100 100 100 100 100 100 97 100 98 76 88 100 100 97
100 100 100 100 100 100 100 100 100 100 100 100 100 100 100 100 92 100 100 100 100 47 100 95 100 100 100 100 100 100 100 100 100 100 100 61 100 100 100 100 100 100 100 100 94 99 100 100 98 100 100 100 100 99
100 100 100 100 100 100 100 100 100 100 100 100 100 100 100 100 100 100 100 100 100 100 100 100 100 100 100 100 100 100 100 100 100 100 97 100 100 98 100 100 100 99 93 100 100 100 100 100 98 100 100 100 83 50
100 100 100 100 100 100 100 100 100 100 100 100 100 100 100 100 100 100 100 100 100 100 100 100 100 100 100 100 100 100 100 100 100 100 100 86 99 100 100 100 100 96 100 100 100 100 100 100 100 100 100 88 37 53
100 100 100 100 100 100 100 100 100 100 100 100 100 100 100 100 100 100 100 100 100 99 100 100 100 100 100 100 100 100 100 100 100 81 100 100 99 100 100 100 100 100 100 100 100 100 100 80 63 59 40 40 66 62
100 100 100 100 100 100 100 100 100 100 100 100 100 100 100 100 100 100 100 100 100 100 100 100 100 100 100 100 100 100 100 100 100 100 81 78 100 97 95 100 100 100 96 98 100 100 100 100 94 81 83 99 98 67
100 100 100 100 100 100 100 100 100 100 100 100 100 100 100 100 100 100 100 100 100 100 100 100 100 100 100 100 100 100 100 100 100 100 88 100 100 100 100 100 100 100 100 100 100 100 100 100 100 100 100 86 44 81
100 100 100 100 100 100 100 100 100 100 100 100 100 100 100 100 100 100 100 100 100 100 100 100 100 100 100 100 100 100 100 100 100 100 100 100 100 100 100 100 100 100 100 100 100 98 100 97 84 96 100 100 99 100
100 100 100 100 100 100 100 100 100 100 100 100 100 100 100 100 100 100 100 100 100 100 100 100 100 100 100 100 100 100 100 100 100 100 100 100 100 100 100 100 100 95 89 75 74 79 94 92 93 100 100 100 100 100
100 100 100 100 100 100 100 100 100 100 100 100 100 100 100 100 100 100 100 100 100 100 100 100 100 100 100 100 100 100 100 100 100 100 100 100 100 100 100 100 100 100 100 99 100 100 100 100 100 100 100 100 100 100
98 100 100 100 100 100 100 100 100 100 100 100 100 100 100 100 100 100 100 100 100 98 100 100 100 100 100 100 100 100 100 100 100 100 100 100 100 100 100 100 100 100 100 100 100 100 100 100 100 100 100 100 100 100
94 52 100 100 98 64 64 69 56 84 100 100 100 100 100 100 100 100 100 100 100 100 100 100 100 100 100 100 100 100 100 100 100 100 100 100 100 100 100 100 100 100 100 100 100 100 99 100 100 100 100 100 100 97
65 96 100 100 99 82 72 5 5 5 31 73 100 100 100 100 100 100 100 100 100 100 100 100 100 100 100 100 100 100 100 100 100 100 100 100 100 100 100 100 100 100 100 100 100 100 100 100 100 100 100 100 98 93
57 75 100 100 100 98 79 65 63 88 74 95 98 35 100 100 100 100 100 83 100 100 100 100 100 100 100 100 100 100 100 100 100 100 100 100 100 100 100 100 100 100 100 100 100 100 98 99 100 100 100 100 100 93
100 74 100 100 100 93 34 77 82 58 89 93 100 90 100 100 100 100 99 62 29 5 56 87 100 100 74 2 22 96 100 100 100 100 100 100 100 100 100 94 78 53 56 23 5 5 48 98 100 100 99 100 100 100
99 100 100 100 100 86 82 60 67 84 94 100 100 98 100 100 100 98 95 90 19 52 5 30 5 4 4 3 0 2 1 1 4 5 5 5 3 3 3 5 5 64 43 6 11 50 55 81 88 100 100 100 100 100
100 100 97 100 100 100 76 79 77 92 83 92 92 84 100 100 98 100 96 86 90 38 5 5 5 5 6 26 78 64 8 5 6 5 5 5 40 48 20 5 5 11 65 85 74 89 100 100 100 99 100 100 97 100
100 100 80 90 100 91 89 80 68 82 20 84 75 80 100 100 100 100 99 95 100 84 42 82 57 21 20 65 61 24 8 9 68 62 5 5 11 28 38 64 74 100 100 97 100 97 81 61 100 100 100 100 61 74
99 100 100 98 100 98 81 100 67 98 100 100 100 100 100 100 100 74 93 100 100 100 99 91 66 41 5 9 35 54 97 32 5 45 17 65 100 98 98 100 95 73 73 100 100 100 94 98 97 100 100 98 78 84
100 100 95 86 92 100 100 100 99 96 100 100 100 100 89 62 32 99 99 95 97 100 100 100 52 5 74 23 53 98 96 39 21 66 7 99 90 74 93 99 100 100 88 100 100 100 100 100 100 99 100 100 86 99
100 95 100 100 100 100 100 95 100 100 99 92 100 83 41 41 91 97 100 99 100 100 97 77 5 64 93 100 98 99 16 5 5 5 13 98 87 9 5 45 100 44 48 100 97 100 100 100 100 100 100 100 100 100
96 100 100 100 100 100 100 95 100 100 100 98 75 69 100 98 100 100 100 100 100 100 99 100 98 90 49 63 10 52 72 26 5 25 17 35 29 24 77 92 100 95 99 100 84 93 100 100 100 100 100 100 100 100
100 100 100 100 100 100 100 100 100 100 100 100 100 100 100 100 100 100 99 98 96 100 100 100 99 65 63 62 58 7 78 97 79 82 98 91 99 95 61 48 100 100 100 100 100 71 81 100 100 100 100 100 100 100
100 100 100 100 100 100 100 100 100 100 100 95 93 96 80 85 95 88 84 100 100 87 75 53 77 59 51 65 93 80 50 95 99 71 82 88 100 99 60 55 38 89 99 35 84 96 100 100 100 100 100 100 100 100
100 100 100 100 100 100 100 100 100 100 97 100 100 96 98 95 99 99 92 99 100 58 34 38 66 81 35 100 90 23 95 90 61 28 97 100 100 98 47 5 56 90 100 49 90 92 100 100 100 100 100 100 100 100
99 100 100 100 100 100 100 78 10 28 13 71 99 100 100 91 96 99 72 41 10 8 55 48 10 30 100 99 58 77 5 5 24 77 86 100 68 10 10 58 99 98 52 49 95 99 100 100 100 100 100 100 100 100

GFSWCAN_prec_cloud_036.txt.gz
Cloud_Cover
100 100 100 100 100 100 100 100 100 100 100 100 100 100 100 99 100 100 100 100 100 99 66 78 94 89 55 12 8 5 40 88 73 91 53 86 60 9 100 61 97 100 100 100 98 97 18 29 8 6 50 100 99 39
100 100 100 100 100 100 100 100 100 100 100 100 100 100 100 100 100 100 100 100 100 100 86 83 92 99 100 100 80 5 30 6 6 42 82 82 97 90 52 83 100 100 100 100 100 100 100 100 60 46 15 100 97 100
100 100 100 100 100 100 100 100 100 100 100 100 100 100 100 100 100 100 100 100 100 100 100 93 99 100 100 100 68 11 49 28 82 65 78 92 92 100 100 100 100 100 100 100 36 78 100 17 15 39 100 59 92 99
100 100 100 100 100 100 100 100 100 100 100 100 100 100 100 100 100 100 100 100 100 100 100 100 100 100 100 100 100 79 62 79 100 100 100 100 100 100 100 100 100 100 49 10 5 18 5 5 5 10 44 88 100 100
100 100 100 100 100 100 100 100 100 100 100 100 100 100 100 100 100 100 100 100 100 100 100 100 100 100 100 100 100 100 100 99 100 100 100 100 100 100 100 100 100 100 79 6 39 85 5 15 37 98 99 100 100 99
100 100 100 100 100 100 100 100 100 100 100 100 100 100 100 100 100 100 100 100 100 100 100 100 100 100 100 100 100 100 100 100 100 100 100 100 100 100 100 100 100 100 71 100 100 100 100 100 100 100 100 100 100 78
100 100 100 100 100 100 100 100 100 100 100 100 100 100 100 99 57 52 99 100 100 100 100 100 100 100 100 100 100 100 100 100 100 100 100 100 100 89 100 100 100 100 100 100 100 100 100 100 100 100 100 91 90 96
100 100 100 100 100 100 100 100 100 100 100 100 100 100 100 100 97 46 99 77 63 44 48 87 93 100 100 100 100 100 100 100 100 99 99 100 99 98 100 100 100 100 100 100 100 96 87 78 100 100 99 100 97 64
100 100 100 100 100 100 100 100 100 100 100 100 100 100 100 100 100 100 100 100 47 5 100 100 100 100 100 100 100 100 100 100 95 100 100 43 99 79 100 100 100 100 100 100 100 98 77 100 100 100 100 100 100 96
100 100 100 100 100 100 100 100 100 100 100 100 100 100 100 100 100 100 100 100 100 100 100 100 100 100 100 100 100 100 100 100 94 19 93 100 100 100 100 100 100 100 89 68 100 100 100 100 100 100 100 99 100 100
100 100 100 100 100 100 100 100 100 100 100 90 100 100 100 100 100 100 98 96 97 100 100 100 100 100 100 100 100 100 100 99 99 21 75 79 100 100 100 100 79 98 100 100 100 100 100 100 100 100 100 100 90 66
100 100 100 100 100 100 100 100 100 100 100 100 100 100 100 99 100 100 100 100 100 100 100 100 100 100 100 100 100 100 100 100 100 100 100 100 100 100 100 100 100 100 100 100 100 100 100 100 100 100 95 79 81 79
100 100 100 100 100 100 100 100 100 100 100 100 100 100 100 100 100 100 100 100 100 100 100 100 100 100 100 100 100 100 100 100 100 100 100 100 100 100 100 100 100 100 100 100 98 99 100 98 100 100 100 100 100 88
100 100 100 100 100 100 100 100 100 100 100 100 100 100 100 100 100 100 100 100 100 100 100 100 100 100 100 100 100 100 100 100 100 100 98 100 100 100 100 100 100 100 100 100 100 100 100 100 100 100 94 100 100 100
100 100 100 100 100 100 100 100 100 100 100 100 100 100 100 100 100 100 100 100 100 100 100 100 100 100 100 100 100 100 100 100 100 100 100 100 100 100 100 100 100 100 100 100 100 100 100 100 100 100 100 100 100 100
100 100 100 100 100 100 100 100 100 100 100 100 100 100 100 100 100 100 100 100 100 100 100 100 100 100 100 100 100 100 100 100 100 100 100 100 100 100 100 100 100 100 100 100 100 90 91 99 100 100 100 100 100 97
100 100 100 100 100 100 100 100 100 100 100 100 100 100 100 100 100 100 100 100 100 100 100 100 100 100 100 100 100 100 100 100 100 100 100 100 100 100 100 100 100 100 100 100 99 90 96 99 100 100 100 100 100 100
100 100 100 100 100 100 100 100 100 100 100 100 100 100 100 100 100 100 100 100 89 96 93 100 99 100 100 100 100 100 100 100 100 100 100 100 100 100 100 100 100 100 100 100 100 100 100 100 100 100 100 100 100 100
100 100 100 100 100 100 100 100 100 100 100 100 100 100 100 100 100 100 100 100 100 100 100 100 100 97 100 100 100 100 100 100 100 100 100 100 100 100 100 100 100 100 100 100 100 100 100 100 100 100 100 100 65 16
100 100 100 100 100 100 100 100 100 100 100 100 100 100 100 100 100 100 100 100 100 100 100 100 100 100 100 100 100 100 100 100 100 100 100 100 100 100 100 100 100 100 100 100 100 100 100 82 51 14 16 5 44 75
10 32 6 88 100 100 100 100 100 100 100 100 100 100 100 100 100 100 100 100 100 100 100 100 100 10 7 62 44 100 89 99 99 82 15 5 9 6 13 4 4 5 5 5 5 6 6 13 5 5 69 84 91 100
89 48 98 95 100 37 34 83 74 90 97 100 100 99 100 100 100 100 98 97 73 6 5 5 5 5 5 5 17 11 0 1 2 5 5 7 27 46 61 34 5 6 27 57 85 100 90 63 52 78 96 84 54 83
91 97 100 100 64 51 74 94 92 88 94 95 97 97 100 100 99 77 92 49 84 98 100 100 72 5 36 13 5 5 5 5 7 9 12 9 17 9 5 7 34 82 98 95 92 96 83 78 59 89 88 100 100 100
95 100 97 90 82 99 97 100 83 96 98 99 100 94 68 94 81 77 80 97 99 100 100 99 36 37 36 67 93 88 35 5 5 5 22 20 62 75 80 91 97 97 97 97 95 95 93 100 91 92 97 100 100 100
96 49 69 87 77 84 100 93 83 50 68 99 99 96 71 53 71 88 57 97 100 100 100 100 64 16 87 93 96 92 92 86 100 74 90 88 52 9 7 5 5 60 91 99 100 100 98 88 98 100 100 100 100 100
96 47 83 62 91 89 99 100 97 92 28 71 72 42 42 66 86 57 95 100 100 100 93 85 100 100 98 74 95 100 58 5 5 33 69 99 84 79 93 100 100 88 84 71 100 100 100 100 100 99 93 84 100 100
96 77 100 100 100 100 96 100 97 98 86 71 77 100 85 92 96 99 98 99 98 97 98 94 50 38 30 89 100 90 24 5 6 6 61 94 49 14 22 90 100 86 77 77 100 100 100 100 100 100 100 100 100 100
80 99 100 100 100 100 100 99 100 100 100 100 90 96 99 78 90 100 95 100 99 88 92 88 34 33 82 99 88 44 8 5 5 8 99 92 25 46 36 52 45 6 14 14 99 100 100 100 100 100 100 100 100 100
100 100 69 100 100 100 100 100 100 100 100 100 100 100 100 100 100 100 100 100 100 100 100 89 75 95 88 92 90 69 48 6 5 44 99 99 46 22 99 27 5 5 15 97 76 33 86 100 100 100 100 100 100 100
100 100 100 100 100 100 100 100 100 100 100 100 99 100 100 100 100 100 99 91 85 85 100 97 90 47 100 86 94 44 99 100 92 88 100 100 100 99 72 39 5 6 69 100 100 58 6 31 85 100 100 100 100 100
100 100 100 100 100 100 100 100 100 100 100 100 100 97 89 88 99 98 91 97 91 99 99 94 91 98 95 98 98 100 92 68 63 90 98 99 98 98 52 5 5 70 99 98 47 91 99 90 77 74 98 100 100 100
100 100 100 100 100 100 100 100 100 100 100 100 100 100 100 97 99 87 100 100 74 88 100 100 100 100 100 100 100 98 86 87 52 97 90 98 91 28 30 54 79 97 53 6 40 91 99 96 81 62 59 94 100 100
100 97 96 98 100 96 55 14 52 73 99 100 100 100 100 96 84 91 100 89 38 55 87 74 68 95 92 100 51 5 14 19 89 76 79 60 54 86 28 73 84 40 32 15 64 94 82 37 37 59 61 66 93 100

GFSWCAN_prec_cloud_039.txt.gz
Cloud_Cover
66 96 36 79 100 100 100 100 100 100 100 100 100 100 100 100 100 100 97 100 100 96 26 96 100 100 100 21 82 21 55 98 26 75 90 79 58 100 100 99 98 46 50 76 95 100 100 100 83 43 10 5 63 81
100 100 98 100 100 100 100 100 100 100 100 100 100 100 100 100 100 100 100 100 100 100 96 91 100 100 100 58 71 79 90 6 6 5 40 23 97 100 76 94 80 5 78 100 100 100 100 98 9 23 5 27 100 100
78 100 100 100 100 100 100 100 100 100 100 100 100 100 100 100 100 100 100 100 100 100 97 89 100 100 100 96 68 100 100 94 92 55 44 45 35 38 68 96 86 69 100 100 78 100 100 7 23 5 14 50 93 100
99 100 100 100 100 100 100 100 100 100 100 100 100 100 100 100 100 100 100 100 100 100 100 100 100 100 100 100 100 100 100 100 100 89 74 88 38 98 100 96 100 98 100 95 75 88 10 27 8 55 75 98 100 100
100 100 100 100 100 100 100 100 100 100 100 100 100 100 100 100 100 100 100 100 100 100 100 100 100 100 100 100 100 100 100 100 100 100 100 100 100 100 93 98 100 100 90 5 58 91 12 26 79 76 48 46 63 69
100 100 100 100 100 100 100 100 100 100 100 100 100 100 100 100 100 100 100 100 100 100 100 100 100 100 100 100 100 100 100 100 100 100 100 100 100 100 100 100 100 100 72 51 15 5 19 100 72 93 77 100 100 100
100 100 100 100 100 100 100 100 100 100 100 100 100 100 100 100 100 100 100 100 100 100 100 100 100 100 100 100 100 100 100 100 100 100 100 100 100 97 100 100 100 100 100 100 100 99 100 100 100 100 100 100 100 100
100 100 100 100 100 100 100 100 100 100 100 100 100 100 100 100 100 100 100 100 100 100 80 99 100 100 100 100 100 100 100 100 100 100 100 100 99 100 100 100 100 100 100 100 71 100 100 100 100 100 100 100 100 100
100 100 100 100 100 100 100 100 100 100 100 100 100 100 100 100 100 100 100 100 100 73 60 95 100 100 100 100 100 100 100 100 98 100 100 56 100 100 100 100 69 71 99 100 100 100 100 100 100 100 100 100 100 100
100 100 100 100 100 100 100 100 100 100 100 100 100 100 100 100 100 100 59 52 100 98 100 100 100 100 100 100 100 100 100 68 61 23 98 100 100 100 93 79 100 100 89 97 100 100 100 100 100 100 100 100 100 100
100 100 100 100 100 100 100 100 100 100 100 100 100 100 100 100 100 82 88 63 90 75 100 97 100 100 100 100 100 89 98 87 94 11 80 66 100 100 100 100 100 100 100 100 100 100 100 100 100 100 99 100 100 100
100 100 100 100 100 100 100 100 94 100 100 100 100 100 100 89 98 94 100 100 100 100 100 100 100 100 100 100 100 100 100 98 83 92 100 100 98 100 100 100 100 100 100 100 100 100 100 100 100 100 100 100 100 100
100 100 100 100 100 100 100 100 100 100 98 100 100 99 66 71 92 98 100 100 100 100 100 100 100 100 86 100 100 100 100 100 95 100 100 100 100 100 100 100 100 100 100 100 100 100 100 100 100 100 100 100 100 100
100 100 100 100 100 100 100 100 100 100 100 100 100 100 100 100 100 100 100 100 100 100 100 100 100 100 100 100 100 100 100 100 100 100 100 100 100 100 100 100 100 100 100 100 100 100 100 100 100 100 100 100 100 100
100 100 100 100 100 100 100 100 100 100 100 100 100 100 100 100 100 100 100 100 100 100 100 100 100 100 100 100 100 100 100 100 100 100 100 100 100 100 100 98 100 100 99 100 100 100 100 100 100 100 100 100 100 100
99 100 100 100 100 100 100 100 100 100 100 100 100 100 100 100 100 100 100 100 100 100 100 100 100 100 100 100 100 100 100 100 100 100 100 100 100 76 92 99 100 100 100 100 100 100 100 100 100 100 100 100 100 100
87 100 100 87 92 100 100 100 100 100 100 100 100 100 100 100 100 100 100 100 100 100 100 100 89 100 90 100 99 100 95 86 99 100 100 100 100 100 100 100 100 99 100 100 100 100 100 100 100 100 100 100 100 100
100 96 100 100 100 80 95 100 100 99 100 100 100 100 100 100 100 100 100 100 100 100 100 100 100 100 100 100 100 100 100 100 100 100 100 100 100 100 100 100 100 100 100 100 100 100 100 100 100 100 100 86 17 5
100 100 100 100 100 98 95 99 100 100 100 100 100 100 100 100 100 100 100 100 100 100 100 100 100 100 100 100 100 100 100 100 100 100 100 100 100 100 100 100 100 100 100 100 72 60 36 20 12 5 6 6 17 5
100 100 100 100 100 100 100 100 100 100 100 100 100 100 100 100 100 100 100 100 100 100 100 100 100 100 100 100 100 100 100 100 100 100 100 100 100 100 100 48 25 7 6 5 8 25 61 51 28 22 50 90 98 89
100 100 100 100 100 100 100 100 100 100 100 100 100 100 100 100 100 100 100 100 100 100 100 100 100 100 100 100 100 100 100 100 100 92 51 21 19 11 5 5 5 6 36 73 100 100 100 100 87 82 99 100 100 100
100 100 100 100 99 100 100 100 100 100 100 100 100 100 100 100 100 100 100 100 100 100 98 100 100 100 98 99 100 62 19 5 5 6 11 12 10 9 29 83 84 93 84 77 85 91 100 98 91 94 100 96 87 84
45 94 100 100 87 98 100 94 99 97 100 100 100 100 100 100 99 85 97 91 89 46 57 62 88 48 49 54 53 64 14 5 9 5 5 5 29 81 87 100 91 88 89 75 98 99 81 31 65 94 100 97 97 99
74 84 97 91 56 78 63 94 96 100 100 99 99 92 65 100 99 98 88 100 94 100 89 98 82 68 70 86 98 43 7 5 45 77 78 95 95 72 25 40 96 100 83 22 31 78 98 93 68 96 100 100 92 100
25 58 21 59 75 75 65 83 93 89 98 100 100 100 84 88 94 97 85 92 100 100 89 100 81 95 100 100 100 90 96 100 100 99 90 6 16 5 5 5 28 99 12 96 95 100 100 99 94 93 90 100 100 100
82 60 50 20 63 88 83 79 86 98 90 100 99 81 84 91 90 89 96 99 100 100 100 100 100 100 100 100 100 100 93 44 5 69 100 48 5 25 54 57 59 23 9 81 100 100 100 100 100 100 100 88 93 100
92 83 64 78 96 88 95 94 97 100 100 98 90 100 100 97 87 99 96 99 99 99 100 100 92 91 97 100 72 34 26 6 12 66 80 31 5 24 69 79 95 32 6 36 69 100 100 100 100 100 100 94 100 100
82 89 82 73 94 100 99 100 100 100 100 100 100 100 97 82 88 99 99 100 100 100 100 100 100 80 84 85 80 92 90 5 93 96 98 20 17 70 37 48 21 28 14 9 55 100 100 100 100 100 100 100 100 95
100 100 100 100 100 100 100 100 100 100 100 100 100 100 99 100 100 100 100 100 100 100 100 98 96 95 85 95 83 82 66 5 5 67 100 100 91 60 90 33 37 5 58 88 63 54 96 97 98 100 100 92 98 80
100 100 100 100 100 100 100 100 100 100 100 100 100 100 100 100 100 100 100 100 100 97 96 93 100 90 100 80 86 94 94 91 50 79 100 100 100 97 70 46 70 90 96 96 76 10 56 40 45 44 13 25 42 52
100 100 100 100 100 100 100 100 100 100 100 100 100 100 100 100 100 100 100 99 100 100 99 95 100 100 97 100 100 100 89 16 87 99 99 99 100 99 80 69 84 100 99 58 43 84 100 79 62 52 27 31 10 53
94 100 100 100 100 100 100 100 100 100 100 100 100 100 94 92 95 100 100 100 100 91 100 100 92 100 95 90 95 86 55 80 100 100 100 99 100 96 76 72 100 71 52 15 26 97 100 82 71 95 100 80 64 62
100 100 100 100 100 95 72 39 91 72 100 99 100 100 100 90 78 98 100 94 62 70 88 72 78 100 91 83 34 5 51 57 95 100 100 100 100 100 72 97 100 78 40 52 61 92 99 92 79 69 86 76 75 61

GFSWCAN_prec_cloud_042.txt.gz
Cloud_Cover
100 100 100 100 100 100 100 100 100 100 100 100 100 100 100 100 100 100 100 100 100 100 100 100 100 100 100 99 5 28 89 77 45 72 68 11 39 62 92 69 62 31 89 100 63 10 32 6 35 99 83 40 88 64
100 100 100 100 100 100 100 100 100 100 100 100 100 100 100 100 100 100 100 100 100 100 100 100 100 100 100 96 74 100 80 21 50 81 100 65 96 60 7 27 5 11 33 7 35 5 5 43 99 100 100 87 87 100
100 100 100 100 100 100 100 100 100 100 100 100 100 100 100 100 100 100 100 100 100 100 100 100 100 90 100 100 98 99 95 10 63 78 69 32 55 98 99 100 68 68 99 73 5 58 84 100 100 100 100 94 100 100
100 100 100 100 100 100 100 100 100 100 100 100 100 100 100 100 100 90 100 100 100 100 100 100 100 100 100 100 100 100 96 56 64 59 83 70 38 100 100 76 46 96 68 8 100 100 100 100 100 100 100 100 100 100
100 100 100 100 100 100 100 100 100 100 100 100 100 100 100 100 100 100 100 100 100 100 100 100 100 100 100 100 100 100 100 100 98 100 100 99 100 100 100 100 100 100 100 100 100 98 84 100 100 100 100 100 100 100
84 100 90 100 100 100 100 100 100 100 100 100 100 100 100 100 100 100 100 100 100 100 100 100 100 100 100 100 100 100 100 100 100 100 100 100 100 100 100 100 100 100 100 97 33 52 76 32 42 46 90 98 79 71
93 100 100 100 100 100 100 100 100 100 100 100 100 100 100 100 100 100 100 100 100 100 100 100 100 100 100 100 100 100 100 100 100 100 100 100 100 90 100 100 100 100 100 100 73 10 7 9 43 64 76 92 100 100
100 100 100 100 100 100 100 100 100 100 100 100 100 100 100 100 100 100 100 100 100 100 100 100 100 100 100 100 100 100 100 100 100 100 100 91 100 100 100 100 100 100 77 42 47 58 90 97 100 100 100 100 100 100
100 100 100 100 100 100 100 100 100 100 100 100 100 100 100 100 100 100 100 100 100 100 100 100 100 100 100 100 100 100 100 100 99 100 100 71 100 100 100 100 100 93 88 99 100 100 100 100 100 100 100 100 100 100
100 100 100 100 100 100 100 100 100 100 100 100 100 100 100 100 100 100 100 100 100 100 100 100 100 100 100 100 100 100 100 98 78 85 100 100 100 91 100 100 100 100 100 100 100 100 100 100 100 100 100 100 99 100
100 100 100 100 100 100 100 100 100 100 100 100 100 100 100 100 100 100 91 76 92 94 100 100 100 100 100 100 100 71 94 79 65 44 95 85 100 100 100 100 100 100 100 100 100 100 100 100 100 100 100 100 100 100
100 100 100 100 100 100 100 100 100 100 100 100 100 100 100 100 100 100 100 95 85 100 100 100 100 100 100 100 100 97 77 93 79 89 96 98 100 100 100 100 100 100 100 100 100 100 100 100 100 100 100 100 100 100
100 100 100 100 100 100 100 100 100 88 100 100 100 99 98 90 89 92 99 100 100 100 100 100 100 100 100 100 100 98 99 99 72 100 100 99 100 100 100 100 100 100 100 100 100 100 100 100 100 100 100 100 100 100
100 100 100 100 100 100 100 100 100 100 100 83 100 100 100 100 100 100 100 100 100 100 100 100 100 100 100 96 100 100 100 100 100 100 100 100 100 100 100 100 100 100 100 100 100 100 100 100 100 100 100 100 100 100
100 100 100 100 100 100 100 100 100 100 100 100 100 100 100 100 100 100 100 100 100 100 100 100 100 100 100 100 100 100 100 96 89 100 100 100 100 100 100 100 100 100 100 95 91 96 96 100 100 100 97 100 100 100
100 100 100 100 100 100 100 100 100 100 100 100 97 79 100 100 100 100 100 100 100 100 100 100 100 100 100 100 100 100 100 100 100 100 100 100 100 86 100 100 100 100 72 75 96 100 100 100 100 100 100 100 100 100
100 100 100 100 100 100 100 100 100 100 100 100 100 100 100 100 100 100 100 100 100 100 100 100 100 100 100 100 100 100 100 100 100 100 100 100 100 100 100 100 100 94 78 98 100 100 100 100 100 100 100 100 100 100
100 100 100 100 100 100 100 100 100 100 100 100 100 100 100 100 100 100 100 100 100 100 100 100 100 100 100 100 100 100 100 100 94 100 91 100 100 100 100 100 100 100 100 100 100 100 100 100 100 97 78 28 31 13
100 100 100 100 100 100 100 100 100 100 100 100 100 100 100 100 100 100 100 100 100 100 100 100 100 100 100 100 100 100 100 100 100 100 100 100 100 100 100 100 100 100 100 100 100 100 72 32 71 90 89 91 100 100
100 100 100 100 100 100 100 99 90 100 100 100 100 100 100 100 100 100 100 100 100 100 100 100 100 100 100 100 100 98 100 100 100 100 100 100 100 100 100 100 100 100 70 21 5 11 29 78 95 93 91 98 92 93
100 100 100 100 100 100 100 100 71 100 100 100 100 100 100 100 100 100 100 100 100 100 100 100 100 100 100 100 97 100 100 100 100 100 100 100 100 100 99 77 13 5 28 72 90 88 96 95 72 86 98 83 98 100
100 100 100 100 91 100 100 100 100 100 100 100 100 100 100 100 100 99 84 72 89 98 60 58 53 84 89 100 100 100 100 71 16 26 29 38 76 90 100 93 5 24 56 76 92 92 85 62 62 59 77 83 93 98
98 100 100 100 90 100 100 100 100 100 100 100 100 100 100 100 91 97 98 100 100 100 100 100 100 100 100 100 100 98 100 100 100 100 100 100 93 92 95 96 74 25 5 5 5 6 61 36 44 63 60 67 63 90
21 75 100 88 62 100 100 100 100 100 100 100 100 100 100 100 98 92 100 100 95 82 100 100 97 99 96 97 100 100 100 100 100 100 100 100 100 92 54 83 99 61 5 49 5 16 5 45 40 63 60 82 89 100
5 75 34 80 88 7 89 80 99 99 97 100 100 96 89 97 98 100 94 98 100 100 100 100 100 100 100 100 100 100 100 99 100 100 100 89 7 5 5 5 21 8 5 86 97 99 69 47 66 77 77 97 100 100
72 91 50 92 90 51 71 80 84 100 100 100 100 100 99 94 90 98 98 99 100 100 99 99 100 100 100 100 100 100 100 100 99 77 84 5 10 20 30 39 23 8 10 90 100 100 100 97 100 91 99 68 78 98
5 11 75 82 96 88 43 93 73 95 100 100 100 100 99 97 89 99 100 100 100 100 100 100 100 100 100 100 100 100 88 61 51 75 80 83 58 9 8 81 89 5 25 50 94 100 100 100 100 96 100 82 95 100
68 66 43 14 85 68 96 98 100 87 90 89 85 100 100 100 90 100 100 100 100 100 100 100 100 100 100 100 94 83 93 100 99 81 54 51 86 87 19 10 21 68 73 58 100 100 100 100 100 100 100 100 99 82
57 60 70 65 87 100 100 100 100 100 97 100 100 100 100 100 100 100 100 100 100 100 100 99 100 98 100 100 100 100 76 5 5 6 48 100 91 31 61 34 44 44 82 100 89 73 95 98 97 80 29 84 70 61
72 86 96 82 88 100 100 100 100 100 100 100 100 100 100 100 99 100 100 100 100 100 100 90 93 99 100 76 100 88 89 100 47 24 100 100 94 99 100 100 100 99 100 96 44 56 91 48 52 44 5 6 5 5
94 91 98 98 100 100 100 100 100 100 100 100 100 100 100 100 100 100 100 100 100 100 98 100 100 100 100 100 100 100 54 24 99 100 100 96 100 100 100 100 96 100 94 59 77 100 100 64 81 69 56 25 9 47
100 100 100 100 100 100 100 100 100 100 100 100 100 99 100 100 98 100 99 96 97 90 100 100 88 97 94 99 100 91 22 77 100 100 100 100 100 100 100 91 100 88 59 61 63 100 94 96 80 95 100 98 69 75
99 100 100 98 93 84 88 72 85 90 96 100 99 100 100 99 96 100 100 100 86 37 78 66 63 100 100 87 6 16 46 85 100 100 100 100 100 100 98 99 100 100 93 80 70 100 100 97 85 77 80 99 76 55

GFSWCAN_prec_cloud_045.txt.gz
Cloud_Cover
100 100 100 100 100 100 100 100 100 100 100 100 100 100 100 100 100 100 100 100 100 100 100 100 100 100 100 100 100 22 5 13 80 100 99 25 61 62 48 5 5 5 27 60 98 75 15 15 25 89 71 83 100 100
100 100 100 100 100 100 100 100 100 100 100 100 100 100 100 100 100 100 100 100 100 100 100 100 100 100 100 100 48 24 45 86 91 42 60 76 69 65 53 97 5 17 6 81 28 27 5 21 61 54 20 97 100 100
100 100 100 100 100 100 100 100 100 100 100 100 100 100 100 100 100 100 100 100 100 100 100 100 100 100 100 100 7 49 100 100 47 42 36 65 95 84 49 59 21 17 43 24 5 5 5 5 5 51 100 100 100 100
100 100 100 100 100 100 100 100 100 100 100 100 100 100 100 100 100 100 100 100 100 100 100 100 100 100 100 97 24 87 100 100 80 62 94 96 79 99 92 5 29 86 33 5 42 84 98 100 100 100 100 100 100 94
100 100 100 100 100 100 100 100 100 99 100 100 100 100 100 100 100 100 100 100 100 100 100 100 100 100 100 100 98 100 100 100 100 100 100 99 100 100 100 100 100 100 100 100 100 100 100 100 100 100 100 83 37 44
100 100 100 100 100 100 100 100 100 100 100 100 100 100 100 100 100 100 100 100 100 100 100 100 100 100 100 100 100 100 100 100 100 100 100 100 100 100 100 100 100 100 100 100 100 86 59 45 36 68 38 21 40 72
100 99 100 100 66 100 100 100 100 100 100 100 100 100 100 100 100 100 100 100 100 100 100 100 100 100 100 100 100 100 84 80 90 100 100 100 100 98 100 100 100 100 86 52 30 42 66 36 13 59 35 26 92 100
100 100 100 67 92 100 100 100 100 100 100 100 100 100 100 100 100 100 100 100 100 100 100 100 100 100 100 100 100 100 100 100 100 100 100 96 100 100 100 100 100 100 100 95 74 40 24 21 53 89 100 100 100 100
100 100 100 100 100 100 100 100 100 100 100 100 100 100 100 100 100 100 100 100 100 100 100 100 100 100 100 100 100 100 100 100 100 100 100 100 100 100 100 100 100 100 100 100 66 68 93 93 100 100 100 100 100 100
99 100 100 100 100 100 100 100 100 100 100 100 100 100 100 100 100 100 100 100 100 100 100 100 100 100 100 100 100 100 100 100 64 82 100 100 100 100 100 100 100 77 52 59 100 98 100 100 100 100 100 100 100 100
100 100 100 100 100 100 100 100 100 100 100 100 100 100 100 100 100 100 100 100 100 100 100 100 100 100 100 100 100 100 100 89 43 45 97 95 99 100 100 100 100 99 96 100 100 100 100 100 100 100 100 100 100 100
100 100 100 100 100 100 100 100 100 100 100 100 100 100 96 100 89 94 99 100 100 100 100 100 100 100 100 100 100 88 81 83 52 98 100 99 100 100 100 100 100 100 100 100 100 100 100 100 100 100 100 100 100 100
100 100 100 100 100 100 100 100 100 100 100 100 100 100 84 86 99 90 64 100 100 100 100 100 100 100 98 98 99 100 97 82 92 94 86 100 100 100 100 100 100 100 100 100 100 100 100 100 100 100 100 100 100 100
100 100 100 100 100 100 100 100 100 100 100 100 100 100 94 98 84 100 100 100 100 100 100 100 100 100 100 100 100 100 100 100 100 100 100 100 100 100 100 100 100 100 100 100 100 100 100 100 99 85 80 87 100 100
100 100 100 100 100 100 100 100 100 100 100 100 94 82 87 100 100 100 100 100 100 100 100 100 100 100 100 100 100 100 100 92 98 100 99 100 100 100 100 100 100 100 100 100 100 100 100 100 94 75 77 88 100 100
100 100 100 100 100 100 100 100 100 100 100 100 94 100 100 100 100 100 100 100 100 100 100 100 100 100 100 100 100 100 100 100 74 92 100 100 100 100 98 96 94 100 100 99 100 85 74 60 86 100 100 100 100 100
100 100 100 100 100 100 100 100 100 100 100 100 100 100 100 100 100 100 100 100 100 100 100 100 100 100 100 100 100 100 100 100 100 100 100 100 100 100 96 86 100 98 99 98 99 99 99 100 100 100 100 65 58 8
100 100 100 100 100 100 100 100 100 100 100 100 100 100 100 100 100 100 100 100 100 100 100 100 100 100 100 100 100 100 100 100 100 100 100 100 100 100 100 99 88 100 100 100 100 83 76 19 22 43 6 5 5 5
100 100 100 100 100 100 100 100 100 100 100 100 100 100 100 100 100 100 100 100 100 100 100 100 100 100 100 100 100 100 100 100 100 100 100 100 100 100 100 99 100 93 78 60 32 37 9 42 30 5 5 5 15 41
100 100 100 100 100 100 100 100 100 100 100 100 100 100 100 100 100 100 100 100 100 100 100 100 100 100 100 100 100 100 98 80 91 99 100 100 99 98 76 42 60 87 84 80 46 5 5 5 5 5 5 5 5 5
100 100 100 100 100 100 100 100 100 100 100 100 100 100 100 100 100 100 100 100 100 100 100 100 100 100 100 100 100 100 91 84 74 83 83 86 83 85 89 100 100 100 89 60 54 26 21 5 6 7 14 5 14 71
100 100 100 100 100 100 100 100 100 100 100 100 100 100 100 100 100 99 100 100 100 100 100 97 92 70 76 89 70 18 22 21 29 34 11 43 86 95 77 86 86 94 100 100 99 58 5 5 12 29 61 70 92 87
100 100 100 100 100 100 100 100 100 100 97 100 100 100 100 100 91 84 97 98 100 100 99 100 97 94 80 71 71 68 81 98 99 93 92 95 98 98 96 96 100 99 85 60 5 5 5 24 21 78 92 85 96 86
100 100 100 100 100 100 100 100 100 100 100 100 100 90 92 100 99 86 100 100 100 100 100 100 99 100 100 100 100 100 96 90 99 100 100 100 100 100 100 100 100 100 89 68 31 45 7 44 46 85 90 100 94 100
53 93 42 97 67 47 93 100 99 100 100 100 100 100 100 100 99 100 100 100 100 100 100 100 100 100 100 93 86 80 97 94 88 100 100 100 100 100 100 100 99 85 75 77 84 89 67 60 73 84 92 100 100 100
55 91 68 100 94 68 75 87 98 63 64 68 85 78 97 95 98 96 100 100 100 100 100 100 100 100 100 100 94 90 96 100 100 100 100 100 100 100 92 63 7 5 63 98 100 100 92 90 99 95 96 92 88 99
5 69 99 88 96 85 54 93 76 87 72 65 82 100 100 100 100 99 100 100 100 100 100 100 100 100 100 100 98 99 100 100 100 99 100 100 84 23 5 5 8 30 100 89 97 100 100 100 100 100 100 100 100 100
90 88 45 44 88 90 78 90 75 91 98 97 98 100 100 100 100 100 100 100 100 100 100 100 100 100 100 100 100 99 100 100 100 100 96 68 74 85 44 26 12 96 83 70 91 97 100 100 100 100 100 99 100 100
92 85 81 92 88 98 98 94 91 93 100 100 100 100 100 100 100 100 100 100 100 100 100 100 100 100 100 100 100 100 100 99 80 59 37 5 5 5 11 69 59 59 94 90 58 84 100 99 93 82 11 55 59 21
77 82 84 86 96 99 97 96 99 100 100 100 100 100 100 100 100 100 100 100 100 100 100 100 100 100 100 94 91 67 76 94 32 5 5 41 35 89 93 100 100 90 100 71 16 53 80 34 50 6 5 5 46 56
89 98 97 88 83 84 90 88 97 99 100 100 100 100 100 100 100 100 100 100 100 100 100 100 100 100 88 92 92 36 6 25 98 100 98 96 100 100 100 100 100 100 100 69 59 94 100 63 74 67 55 43 27 53
93 98 94 86 92 83 90 99 100 100 100 100 100 100 100 100 100 100 100 100 88 34 100 100 48 84 98 100 99 87 31 89 77 99 100 100 100 94 100 100 100 100 100 91 71 72 97 89 83 76 78 69 67 56
70 89 84 85 67 65 72 48 64 84 75 98 99 100 100 99 95 99 100 95 65 32 23 56 80 100 100 99 54 18 66 75 93 100 100 100 100 100 100 100 100 100 100 100 94 87 68 76 67 76 80 77 46 44

GFSWCAN_prec_cloud_051.txt.gz
Cloud_Cover
2 4 28 4 2 0 5 3 0 51 100 100 100 100 100 100 100 61 98 100 100 93 3 65 100 100 100 100 98 100 100 100 100 100 100 48 67 97 45 26 7 12 8 72 37 96 63 17 27 76 37 5 5 5
2 3 1 0 0 0 11 99 100 100 100 100 100 100 100 100 100 99 95 100 100 100 54 5 96 94 100 100 100 100 100 100 97 33 94 28 99 68 63 46 5 5 7 5 11 5 7 51 33 40 14 5 12 9
100 100 100 100 100 100 100 100 100 100 100 100 100 100 100 100 100 76 100 100 100 100 9 43 93 100 100 100 100 100 100 100 95 98 88 16 100 9 79 61 5 5 5 5 5 5 15 71 64 61 77 94 86 100
100 100 100 100 100 100 100 100 100 100 100 100 100 100 100 100 100 100 100 100 100 70 83 99 100 100 100 100 100 100 100 100 100 100 94 68 88 6 5 10 13 10 5 5 47 17 13 38 87 42 85 100 100 100
100 100 100 100 100 100 100 100 100 100 100 100 100 100 100 100 100 100 100 100 100 86 100 100 100 100 100 100 100 98 70 42 100 100 100 78 14 47 52 25 56 26 25 27 92 100 97 100 100 100 100 93 27 54
100 100 100 100 100 100 100 100 100 100 100 100 100 100 100 100 100 100 100 100 100 100 100 100 97 100 100 100 100 100 99 99 100 100 100 87 100 62 84 100 100 98 94 100 100 100 100 100 100 35 8 36 98 100
100 100 100 100 100 100 100 100 100 100 100 100 100 100 100 100 100 100 100 100 100 100 100 100 100 100 100 100 100 100 100 100 100 100 100 100 100 64 98 100 100 100 100 100 100 93 35 36 56 99 98 100 89 40
100 100 100 100 100 100 100 100 100 100 100 100 100 100 100 100 100 100 100 100 100 100 100 100 100 100 100 100 100 100 100 79 97 100 100 100 100 92 48 100 100 100 100 99 29 17 47 98 80 78 93 88 93 100
100 100 100 100 100 100 100 100 100 100 100 100 100 100 100 100 100 100 96 100 100 100 100 100 100 100 100 100 100 100 100 100 74 98 100 100 100 100 100 100 100 100 100 34 58 99 100 83 88 99 84 98 91 86
100 100 100 100 100 100 100 100 100 100 100 68 48 96 100 100 100 100 100 100 100 100 100 100 100 100 100 100 100 91 100 95 99 100 100 100 100 100 100 100 100 100 99 97 100 100 100 100 99 90 87 97 96 83
100 100 100 100 100 100 100 100 100 100 93 96 99 100 100 100 100 100 100 100 96 100 100 96 100 100 100 100 100 98 100 99 100 100 97 96 100 100 100 100 100 98 96 100 100 100 96 93 100 92 66 92 98 97
100 100 100 100 100 100 100 100 100 100 100 100 100 100 100 100 100 100 100 100 100 98 100 100 100 100 100 100 100 100 100 100 100 100 100 100 100 100 99 100 100 100 100 100 99 100 91 82 90 100 99 94 96 100
100 100 100 100 100 100 100 100 100 100 100 100 100 100 100 100 100 100 100 100 100 100 100 100 100 100 100 100 100 100 100 100 94 100 99 100 100 100 100 100 100 100 100 100 100 100 100 100 100 100 100 100 100 100
100 100 100 100 100 100 100 100 100 100 100 100 100 100 100 100 100 100 100 100 100 100 100 100 100 100 100 100 100 100 100 100 100 100 100 100 100 100 100 100 100 100 100 100 100 100 100 100 100 100 100 100 100 100
100 100 100 100 100 100 100 100 100 100 100 100 100 100 100 100 100 100 100 100 100 100 100 100 100 100 100 100 100 100 100 100 94 97 100 100 100 100 100 92 99 100 100 100 100 100 100 100 100 100 100 100 100 100
100 100 100 100 100 100 100 100 100 100 100 100 100 100 100 100 100 100 100 100 100 100 100 100 100 100 100 100 98 100 100 100 98 99 100 100 100 100 100 100 93 98 100 100 100 100 100 100 100 100 86 81 67 17
100 100 100 100 100 100 100 100 100 100 100 100 100 100 100 100 100 100 100 100 100 100 100 100 100 100 100 100 100 100 100 100 100 100 100 100 100 100 99 98 99 100 100 100 100 100 100 90 35 5 5 5 2 2
98 100 100 100 100 100 100 100 100 100 100 100 100 100 100 100 100 100 100 100 100 100 100 100 100 100 100 100 100 100 100 100 100 100 100 100 100 100 100 100 100 96 91 86 85 84 95 10 5 5 4 3 2 5
84 100 100 100 100 100 100 100 100 100 100 100 100 100 100 100 100 100 100 100 100 100 100 100 100 100 100 100 100 100 100 100 100 100 100 100 100 100 100 96 100 100 94 93 100 60 11 4 2 3 5 5 5 27
100 100 100 100 100 100 100 100 100 100 100 100 100 100 100 100 100 100 100 100 100 100 100 100 100 100 100 100 100 100 100 100 100 100 100 100 100 100 100 100 100 100 95 100 100 34 4 4 5 7 28 7 9 40
98 92 100 100 100 100 100 100 100 100 100 100 100 100 100 100 100 100 100 100 100 100 100 100 100 100 100 100 100 100 100 99 100 68 71 99 100 99 90 83 78 76 75 78 40 5 5 5 5 5 59 98 100 100
95 75 100 100 100 100 100 100 100 100 100 100 100 100 100 100 100 100 100 100 100 100 100 100 100 100 100 100 100 100 88 80 93 100 99 93 96 99 99 93 98 99 70 33 52 15 9 5 5 41 98 100 100 100
100 100 100 100 100 100 100 100 100 100 100 100 100 100 100 100 100 98 100 100 100 100 100 100 100 100 98 91 99 98 98 98 100 100 100 100 98 100 100 92 59 46 56 67 5 5 36 22 94 89 100 100 100 100
100 100 100 100 100 100 100 100 100 100 100 100 100 100 100 100 96 100 100 100 100 100 100 100 100 100 100 100 100 100 100 94 94 99 90 96 96 91 77 71 94 95 54 6 19 87 96 100 94 100 100 100 100 100
100 100 100 100 100 100 100 100 100 100 100 100 100 100 100 100 100 100 100 100 100 100 100 100 100 100 100 100 100 100 100 100 100 100 96 100 96 84 90 97 90 80 58 93 100 100 100 100 100 100 100 100 100 100
54 100 98 100 100 94 90 96 100 100 100 100 100 100 100 100 100 100 100 100 100 100 100 100 100 100 100 100 100 100 100 100 100 100 100 100 100 100 98 91 91 100 100 100 100 100 100 100 100 100 100 100 100 100
74 98 96 100 100 100 100 100 100 100 100 100 100 100 100 100 100 100 100 100 100 100 100 100 100 100 100 100 100 100 100 100 100 100 100 99 98 100 100 100 100 100 98 100 100 100 100 100 100 100 100 100 100 100
100 99 87 100 100 100 100 98 99 100 100 100 100 100 100 100 100 100 100 100 100 100 100 100 100 100 100 100 100 100 100 100 100 100 100 100 100 100 100 100 95 70 99 100 100 100 100 100 100 100 100 100 100 100
100 100 84 78 98 100 100 98 100 100 100 100 100 100 100 100 100 100 100 100 100 100 100 100 100 100 100 100 100 100 100 100 100 99 100 100 86 100 100 100 100 100 100 100 100 100 100 100 100 100 100 100 100 100
100 100 100 92 99 100 100 99 100 100 100 99 94 100 100 100 100 100 100 100 100 100 100 100 100 100 100 100 100 100 100 99 100 94 58 60 100 100 100 100 100 100 100 100 100 100 100 100 100 100 100 100 100 100
100 100 100 100 100 100 100 97 94 98 100 100 100 100 100 100 100 100 100 100 100 100 100 100 100 100 100 96 96 96 98 100 94 89 96 100 100 100 100 100 100 100 100 100 100 100 100 100 100 100 100 100 100 100
98 99 100 100 100 96 92 100 100 100 100 100 100 100 100 100 100 100 100 100 100 100 100 100 100 100 100 100 100 79 25 92 100 100 100 100 100 100 100 100 100 100 100 100 100 100 100 100 100 100 100 100 100 100
100 99 98 99 100 100 87 99 100 100 100 100 100 100 100 100 100 100 100 100 100 100 100 100 100 100 90 93 87 90 98 100 93 100 100 100 100 100 100 100 100 100 100 100 100 100 100 100 100 100 100 100 100 100

GFSWCAN_prec_cloud_054.txt.gz
Cloud_Cover
98 90 100 100 100 97 100 18 5 5 32 8 70 2 95 100 100 100 100 100 100 100 100 81 100 100 95 44 60 96 65 5 2 59 100 100 100 100 20 5 52 40 72 74 33 98 86 5 5 5 5 5 5 5
100 100 100 100 100 100 100 89 1 0 5 3 43 9 100 100 100 100 100 100 100 100 100 78 23 7 90 71 79 85 92 100 96 100 100 100 100 100 6 5 61 51 55 29 53 9 33 21 5 5 5 5 16 65
84 52 5 38 69 100 89 5 0 0 2 22 8 100 100 100 100 100 100 100 100 100 100 100 22 56 76 100 78 100 100 83 42 100 100 100 100 100 80 6 48 56 78 49 24 5 33 21 26 11 12 56 67 91
47 41 5 2 0 0 0 1 5 31 100 68 96 100 100 100 100 98 100 100 100 100 100 95 14 14 100 100 65 100 100 100 100 100 100 100 100 100 40 5 59 54 70 5 65 5 5 35 19 5 28 69 100 100
100 100 100 100 81 92 100 100 100 100 100 100 100 90 100 100 100 100 100 66 96 80 90 100 100 100 82 65 100 100 100 100 100 100 100 100 100 100 45 7 79 58 43 5 18 98 5 26 40 85 94 100 100 100
100 100 100 100 100 100 100 100 100 100 100 100 100 100 100 100 100 100 100 100 100 100 100 100 100 100 100 100 100 100 100 99 94 100 100 100 100 100 98 38 52 100 10 6 10 9 46 69 99 100 100 100 100 100
100 100 100 100 100 100 100 100 100 100 100 100 100 100 100 100 100 100 99 29 68 100 100 100 100 100 100 100 100 100 100 100 100 100 100 100 100 100 100 100 100 96 28 5 5 20 81 100 100 100 100 88 81 96
100 100 100 100 100 100 100 100 100 100 100 100 100 100 100 100 100 100 100 100 100 100 100 100 100 100 99 96 100 100 100 100 100 100 100 100 100 100 98 100 100 100 75 61 75 45 11 75 99 60 96 75 100 100
100 100 100 100 100 100 100 100 100 100 100 100 100 100 100 100 100 100 100 100 100 100 100 100 100 100 100 100 100 100 100 100 100 100 100 100 100 94 100 100 100 100 100 100 100 100 94 82 74 84 92 100 32 33
100 100 100 100 100 100 100 100 100 100 100 100 100 100 100 100 100 100 100 100 100 100 100 100 100 100 100 100 100 100 100 100 100 100 100 100 100 100 100 100 100 100 100 100 100 100 100 100 77 98 74 85 100 97
100 100 100 100 100 100 100 100 100 100 100 100 100 100 100 100 100 100 96 100 94 100 100 100 100 100 100 100 100 100 100 100 100 100 92 98 100 100 100 100 100 100 100 100 100 100 100 100 100 98 100 100 93 85
100 100 100 100 100 100 100 100 100 100 100 100 100 100 100 100 100 100 100 100 98 100 100 100 100 100 100 100 100 100 100 100 100 100 98 100 100 100 100 100 100 100 100 100 100 100 100 100 100 97 100 94 96 100
100 100 100 100 100 100 100 100 100 100 100 100 100 100 100 100 100 100 99 97 100 100 100 100 100 100 100 100 100 100 100 99 75 100 100 100 100 100 100 100 100 100 100 100 100 100 100 94 99 99 100 100 100 100
100 100 100 100 100 100 100 100 100 100 100 100 100 100 100 100 100 100 100 100 100 100 100 100 100 100 100 100 100 100 97 100 100 100 100 100 100 100 100 100 100 100 100 100 100 100 100 100 100 100 100 100 100 100
100 100 100 100 100 100 100 100 100 100 100 100 100 100 100 100 100 100 100 100 100 100 100 100 100 100 100 100 100 100 100 100 100 100 100 100 100 100 100 100 100 100 100 100 100 100 100 100 100 100 100 100 100 100
100 100 100 100 100 100 100 100 100 100 100 100 100 100 100 100 100 100 100 100 100 100 100 100 100 100 100 100 100 100 100 100 100 100 100 100 100 100 100 100 100 100 100 100 100 100 100 100 100 100 100 100 100 85
100 100 100 100 100 100 100 100 100 100 100 100 100 100 100 100 100 100 100 100 100 100 100 100 100 100 100 100 100 100 100 100 100 100 100 100 100 100 100 100 100 100 100 100 100 100 100 100 100 100 92 11 5 3
100 100 100 100 100 100 100 100 100 100 100 100 100 100 100 100 100 100 100 100 100 100 100 100 100 100 100 100 100 100 100 100 100 100 100 100 100 100 100 100 100 100 100 100 100 100 100 100 89 70 13 4 0 1
99 100 100 100 100 100 100 100 100 100 100 100 100 100 100 100 100 100 100 100 100 100 100 100 100 100 100 100 100 100 100 100 100 100 100 100 100 100 100 100 100 100 100 100 95 72 96 81 71 33 1 1 5 15
100 100 100 84 99 100 100 100 100 100 100 100 100 100 100 100 100 100 100 100 100 100 100 100 100 100 100 100 100 100 100 100 100 100 100 100 100 100 100 100 100 100 100 100 98 97 99 49 8 4 5 28 85 75
86 88 100 100 98 99 100 100 100 100 100 100 100 100 100 100 100 100 100 100 100 100 100 100 100 100 100 100 100 100 100 100 100 100 100 100 100 100 100 100 100 100 100 98 51 82 67 5 28 78 65 87 54 61
100 99 80 100 100 98 94 99 100 100 100 100 100 100 100 100 100 100 100 100 100 100 100 100 100 100 100 100 100 100 100 100 100 100 100 100 86 95 99 98 99 96 96 96 99 80 89 99 94 61 81 75 74 87
88 100 98 74 100 100 95 98 100 100 100 100 100 100 100 100 100 100 100 100 100 100 100 100 100 100 100 100 100 100 100 100 100 100 100 100 100 97 98 100 100 100 100 100 91 79 96 50 99 19 84 98 96 94
2 76 39 46 12 89 69 100 100 100 100 100 100 100 100 100 100 100 100 100 100 100 100 100 100 100 100 100 100 100 100 100 100 100 100 100 100 99 100 99 100 100 98 98 100 98 98 100 82 100 100 95 100 100
36 32 44 100 100 91 92 97 100 100 100 100 100 100 100 100 100 100 100 100 100 100 100 100 100 100 100 100 100 100 100 100 100 100 100 99 96 90 99 100 100 100 100 96 100 100 98 99 100 99 95 100 100 100
75 97 83 97 100 100 100 100 100 100 100 100 100 100 100 100 100 100 100 100 100 100 100 100 100 100 100 100 100 100 100 100 100 100 100 100 100 100 100 100 100 100 100 98 100 100 100 100 100 100 100 100 100 100
97 100 100 100 100 100 100 100 100 100 100 100 100 100 98 97 100 100 100 100 100 100 100 100 100 100 100 100 100 100 100 100 100 100 100 100 100 100 100 100 100 96 86 100 100 100 100 100 100 100 100 100 100 100
100 100 100 100 98 100 96 98 100 100 98 85 98 98 100 100 100 100 100 100 100 100 100 100 100 100 100 100 100 100 100 100 100 100 100 100 100 100 100 100 100 100 100 100 99 100 100 100 100 100 100 100 100 100
100 98 77 85 100 100 100 100 100 100 100 100 100 100 100 100 100 100 100 100 100 100 100 100 100 100 100 100 100 100 100 100 100 100 100 99 100 100 100 100 100 100 100 100 100 100 100 100 100 100 100 100 95 100
97 87 99 83 98 100 100 100 100 100 100 91 88 100 100 100 100 100 100 100 100 100 100 100 100 98 100 100 100 99 90 57 28 89 95 100 100 100 100 100 100 100 100 100 100 100 100 100 100 100 100 100 100 100
100 95 100 100 100 100 100 100 95 89 94 95 100 97 100 100 100 100 100 100 99 100 100 100 100 100 95 92 100 100 100 99 96 88 81 100 100 100 100 100 100 100 100 100 100 100 100 100 100 100 100 100 100 100
100 100 99 100 100 97 100 100 100 100 100 100 100 97 100 100 100 100 100 100 100 100 100 100 100 100 100 100 100 95 84 100 100 100 100 100 100 100 100 100 100 100 100 100 100 100 100 100 100 100 100 100 100 100
100 98 99 98 100 100 85 93 100 100 100 100 100 100 100 100 100 100 100 100 100 100 100 100 100 100 100 100 76 98 100 100 100 100 100 86 5 84 98 100 100 100 100 100 100 100 100 100 100 100 100 100 100 100

GFSWCAN_prec_cloud_057.txt.gz
Cloud_Cover
100 100 100 100 93 9 5 60 100 100 100 100 100 91 30 86 100 100 100 100 100 100 100 100 100 100 100 100 100 100 100 100 100 100 100 100 90 4 0 98 64 36 73 76 78 67 95 5 89 6 5 5 5 5
100 100 97 99 68 99 100 100 100 100 100 90 17 80 37 54 100 86 100 100 100 100 82 100 100 100 100 100 100 100 100 100 100 100 99 86 100 96 7 90 100 83 100 59 74 31 45 70 79 61 5 5 25 5
100 100 100 100 100 100 100 100 100 100 98 5 22 39 0 2 98 100 100 100 100 100 100 100 100 100 100 89 79 100 97 49 100 86 91 98 100 100 96 100 100 100 100 99 16 5 28 88 97 5 5 5 5 5
100 100 100 81 96 100 95 95 94 62 5 10 41 0 0 84 100 100 100 100 100 100 100 96 87 100 81 96 69 85 93 100 100 100 99 97 88 66 100 100 66 100 100 36 36 5 5 29 50 29 8 5 23 54
100 100 96 94 98 98 69 93 33 0 0 38 75 0 8 90 100 99 100 100 100 100 100 100 93 100 42 88 8 14 71 100 100 100 100 78 100 100 100 100 77 83 100 86 6 33 5 5 27 84 68 40 43 33
5 87 100 100 100 5 5 5 4 0 5 53 40 5 100 97 100 100 100 100 100 100 100 100 100 100 87 98 60 5 100 100 100 100 86 78 99 100 100 100 83 100 100 61 44 5 24 51 6 8 83 100 100 100
100 100 47 1 0 0 1 7 9 5 8 50 13 62 100 100 73 100 100 100 100 100 100 100 100 75 45 74 99 82 44 100 100 100 100 100 100 100 100 100 100 100 100 67 16 44 85 98 42 46 55 36 45 97
100 100 100 100 100 100 99 93 99 100 97 100 100 100 100 100 100 100 100 100 100 100 100 100 100 91 79 89 94 100 44 99 100 100 100 100 100 100 100 100 100 100 100 95 98 100 100 100 100 99 95 100 100 100
100 100 100 100 100 100 100 100 100 100 100 100 100 100 100 100 100 100 100 100 56 100 100 100 100 100 99 92 76 100 100 100 100 100 100 100 100 100 100 100 100 100 100 100 100 100 100 99 100 100 100 100 100 100
100 100 100 100 100 100 100 100 100 100 100 100 100 100 100 100 100 100 100 97 100 100 100 100 100 100 100 91 100 100 100 100 100 100 100 100 100 100 100 100 100 100 100 100 100 100 100 100 100 100 100 100 100 96
100 100 100 100 100 100 100 100 100 100 100 100 100 100 100 100 100 100 100 100 99 100 100 100 100 100 95 98 100 100 100 100 100 100 100 100 100 100 100 100 100 100 100 100 100 100 100 100 100 100 100 100 100 100
100 100 100 100 100 100 100 100 100 99 100 100 97 100 100 100 100 100 100 98 97 94 87 100 100 100 100 100 100 100 100 100 85 86 100 94 99 100 100 100 100 100 100 100 100 100 100 100 100 100 100 100 100 100
100 100 100 100 100 100 100 100 100 100 100 100 100 100 100 100 100 99 99 90 91 100 100 100 100 100 100 100 100 100 96 100 60 100 96 100 100 100 100 100 100 100 100 100 100 100 100 100 100 100 100 100 100 100
100 100 100 100 100 100 100 100 100 100 100 100 100 100 100 100 100 100 100 100 100 100 100 100 100 100 100 100 100 100 100 100 100 100 100 100 100 100 100 100 100 100 100 100 100 100 100 100 100 100 100 100 100 100
100 100 100 100 100 100 100 100 100 100 100 100 100 100 100 100 100 100 100 100 100 100 100 100 100 95 100 100 100 100 100 100 100 100 100 100 100 100 100 100 100 100 100 100 100 100 100 100 100 100 100 100 100 100
100 100 100 100 100 100 100 100 100 100 100 100 100 100 100 100 100 100 100 100 100 100 100 100 100 100 100 100 100 100 100 100 100 100 100 100 100 100 100 100 100 100 100 100 100 100 100 100 100 100 100 100 100 100
100 100 100 100 100 100 100 100 100 100 100 100 100 100 100 100 100 100 100 100 100 100 100 100 100 100 100 100 100 100 100 100 100 100 100 100 100 100 100 100 100 100 100 100 100 100 100 100 100 100 100 100 100 100
100 100 100 100 100 100 100 100 100 100 100 100 100 100 100 100 100 100 100 100 100 100 100 100 100 100 100 100 100 100 100 100 100 100 100 100 100 100 100 100 100 100 100 100 100 100 100 100 100 100 100 100 100 100
98 100 100 100 100 100 100 100 100 100 100 100 100 100 100 100 100 100 100 100 100 100 100 100 100 100 100 100 100 100 100 100 100 100 100 100 100 100 100 100 100 100 100 100 100 100 100 100 100 100 100 100 45 17
100 73 99 100 100 100 100 100 100 100 100 100 100 100 100 100 100 100 100 100 100 100 100 100 100 100 100 100 100 100 100 100 100 100 100 100 100 100 100 100 100 100 100 100 100 100 100 100 100 96 46 33 52 52
5 6 72 100 100 100 100 100 100 100 100 100 100 100 100 100 100 100 100 100 100 100 100 100 100 100 100 100 100 100 100 100 100 100 100 100 100 100 100 100 100 100 100 100 100 100 100 96 73 99 100 100 86 42
43 61 58 88 89 100 98 100 100 100 100 100 100 100 100 100 100 100 100 100 100 100 100 100 100 100 100 100 100 100 100 100 100 100 100 100 100 100 100 100 100 100 100 100 99 100 100 100 100 99 84 75 45 27
100 76 48 72 8 13 95 88 100 100 100 100 100 100 100 100 100 100 100 100 100 100 100 100 100 100 100 100 100 100 100 100 100 100 100 100 100 100 100 100 100 100 100 100 100 100 100 99 99 94 94 95 64 50
100 100 100 100 100 84 74 72 97 99 100 100 100 100 100 100 100 100 100 100 100 100 100 100 100 100 100 100 100 100 100 100 100 100 100 100 100 100 100 100 97 100 100 100 100 100 100 100 100 100 97 85 58 95
25 54 25 53 99 95 100 100 100 100 100 100 100 100 100 100 100 100 100 100 100 100 100 100 100 100 100 100 100 100 100 100 100 100 100 100 100 100 100 100 100 100 100 100 100 100 100 100 100 100 100 86 89 75
97 93 89 98 98 91 100 100 100 100 100 100 100 100 100 100 100 100 100 100 100 100 100 100 100 100 100 100 100 100 100 100 100 100 100 100 100 100 100 100 100 100 100 100 100 100 100 99 92 75 89 84 95 100
100 100 100 100 100 96 97 98 86 85 100 94 100 100 100 100 100 100 100 100 100 100 100 100 98 92 97 99 92 100 99 100 100 99 100 100 100 98 88 87 99 99 100 100 100 100 100 99 99 94 80 86 100 100
100 100 100 97 96 70 94 9 39 99 77 98 100 99 100 100 100 100 100 100 100 96 100 100 100 95 100 100 96 87 82 92 84 93 99 100 100 97 98 100 100 91 99 96 68 85 50 91 66 52 77 92 45 5
100 100 59 100 78 37 88 95 99 99 100 96 56 100 100 100 100 100 100 100 99 98 93 99 96 84 82 82 77 75 71 73 71 49 91 100 100 64 32 84 98 64 71 97 81 94 100 100 100 100 73 100 100 95
100 90 81 41 49 92 100 98 99 100 36 5 45 100 90 99 100 90 88 87 85 90 93 91 90 77 99 97 90 71 17 15 5 58 100 100 100 80 96 100 91 78 96 91 81 84 62 75 66 94 90 79 97 100
97 86 76 61 98 100 100 94 66 60 5 5 32 61 60 85 98 99 96 94 100 100 98 96 87 71 57 51 71 66 90 100 90 11 26 37 58 63 76 67 69 93 100 100 100 100 100 91 99 100 100 100 100 100
98 85 85 92 100 100 89 95 100 95 98 88 94 43 97 86 88 99 100 92 99 81 89 73 64 72 29 55 71 19 87 100 71 9 92 49 46 5 7 5 81 72 47 16 20 92 100 100 100 100 100 100 100 72
65 78 91 98 95 92 26 82 78 72 90 100 99 99 97 76 89 98 100 81 62 95 100 100 100 100 71 5 76 99 84 66 22 95 100 90 85 75 60 10 7 38 57 55 52 28 37 95 100 100 100 100 99 96

GFSWCAN_prec_cloud_060.txt.gz
Cloud_Cover
100 100 100 100 100 100 100 100 100 73 5 4 5 96 100 100 100 54 100 100 100 100 88 37 64 96 100 100 100 100 100 100 100 100 100 100 100 100 9 5 6 5 4 73 100 100 100 100 100 6 7 6 32 81
100 100 100 100 100 100 100 100 83 18 5 0 6 100 100 100 100 5 94 100 100 100 95 53 82 100 95 100 100 100 100 100 100 100 100 100 100 100 81 18 45 4 1 12 100 100 99 100 99 5 13 51 9 5
100 100 100 100 100 100 90 54 66 12 53 39 94 100 100 100 64 21 66 100 81 100 40 74 100 100 100 100 100 100 100 100 100 100 100 100 100 88 100 100 87 5 10 10 100 100 100 100 70 12 100 97 21 18
97 97 94 95 77 11 10 29 74 94 100 100 100 100 100 72 58 6 14 100 100 100 100 100 100 100 100 100 100 100 100 100 100 100 100 100 100 100 100 100 100 21 36 62 100 100 100 100 100 79 22 42 28 62
100 97 98 100 100 98 98 95 100 100 100 100 100 100 32 8 33 55 95 100 80 100 100 100 78 98 100 100 100 100 100 100 100 100 100 100 100 100 100 88 87 5 79 100 100 100 100 100 100 100 92 82 90 58
100 100 100 100 100 100 100 100 100 100 100 100 86 8 5 5 8 99 100 100 100 100 100 100 99 100 100 100 100 100 100 100 100 92 98 99 100 100 100 100 75 5 70 100 100 100 100 100 91 65 57 99 100 100
68 98 100 100 100 76 100 92 61 54 11 53 23 5 71 50 12 99 100 100 100 100 100 100 100 100 100 100 100 100 100 100 100 100 100 100 100 100 99 97 98 48 100 100 100 100 100 100 100 91 96 97 100 100
9 92 100 100 100 100 100 100 73 34 38 5 0 5 71 99 100 100 100 100 100 100 100 100 100 100 100 100 100 99 100 100 100 100 100 100 100 100 23 21 74 74 100 100 100 100 100 100 100 100 100 100 100 100
43 0 0 6 31 22 24 14 5 52 69 12 9 92 100 100 100 100 100 100 100 100 100 100 100 100 100 100 100 100 100 100 100 100 100 100 100 100 100 100 100 100 100 100 100 100 100 100 100 100 100 100 100 100
100 75 0 4 40 68 50 40 73 35 27 59 100 100 100 100 100 100 100 100 100 100 100 100 100 100 100 100 100 91 100 100 98 90 98 99 100 100 100 100 100 100 100 100 100 100 100 100 100 100 100 100 100 100
100 100 81 31 78 5 81 68 32 88 100 100 100 100 100 100 100 100 100 100 100 100 100 100 100 100 97 90 100 97 99 100 100 98 79 100 100 80 100 97 100 100 100 100 100 100 100 100 100 100 100 100 100 100
100 100 100 100 100 88 98 100 100 100 100 100 100 100 100 100 100 100 100 100 100 100 100 100 100 93 100 100 92 100 85 94 80 99 100 99 64 34 82 93 100 100 100 100 100 100 100 100 100 100 100 100 100 100
100 100 100 100 100 100 100 100 100 100 100 100 100 100 100 100 100 100 100 98 100 100 100 100 100 100 100 100 100 100 100 84 87 100 90 60 100 100 100 100 100 100 100 100 100 100 100 100 100 100 100 100 100 100
100 100 100 100 100 100 100 100 100 100 100 100 100 100 100 100 100 100 100 100 100 100 100 100 100 91 100 100 100 100 100 100 79 96 100 100 100 100 100 100 100 100 100 100 100 100 100 100 100 100 100 100 100 100
100 100 100 100 100 100 100 100 100 90 79 100 99 100 100 100 100 100 100 100 100 100 90 100 98 32 99 100 100 100 97 100 100 100 100 100 100 100 100 100 100 100 100 100 100 100 100 100 100 100 100 100 100 100
100 100 100 100 100 100 100 100 71 84 77 78 100 100 100 100 100 100 100 100 100 100 94 84 100 100 100 100 100 100 100 100 100 100 100 100 100 100 100 100 100 100 100 100 100 100 100 100 100 100 100 100 100 100
100 100 100 100 100 100 100 100 100 100 100 100 100 100 100 100 100 100 100 100 100 100 100 100 100 100 100 100 100 100 100 100 100 100 100 100 100 100 100 100 100 100 100 100 100 100 100 100 100 100 100 100 100 100
100 100 100 100 100 100 100 100 100 100 100 100 100 100 100 100 100 100 100 100 100 100 100 96 82 100 100 100 100 100 100 100 100 100 100 100 100 100 100 100 100 100 100 100 100 100 100 100 100 100 100 100 100 100
100 100 100 100 100 100 100 100 100 100 100 100 100 100 100 100 100 100 100 100 100 98 81 74 98 90 99 100 100 100 100 100 100 100 100 100 100 100 100 100 100 100 100 100 100 100 100 100 100 100 100 100 100 100
100 100 100 100 98 100 100 100 92 96 100 100 100 100 100 100 100 100 100 100 100 100 100 100 100 100 100 100 100 100 100 100 100 100 100 100 100 100 100 100 100 100 100 100 100 100 100 100 100 100 100 100 100 100
6 54 100 100 100 100 100 91 100 100 100 100 100 100 100 100 100 100 100 100 100 100 100 100 100 100 100 100 100 100 100 100 100 100 100 100 100 100 100 100 100 100 100 100 100 100 100 100 100 100 99 100 98 93
72 78 100 100 100 100 100 100 98 100 100 100 100 100 100 100 100 100 100 100 100 100 100 100 100 100 100 100 100 100 100 100 100 100 100 100 100 100 100 100 100 100 100 100 100 100 100 100 100 100 100 100 100 99
5 5 7 38 64 94 100 100 100 100 100 100 100 100 100 100 100 100 100 100 100 100 100 100 100 100 100 100 100 100 100 100 100 100 100 100 100 100 100 100 100 100 100 100 100 100 100 100 100 96 89 97 96 99
92 87 99 56 14 66 96 100 100 100 100 100 100 100 100 100 100 100 100 100 100 100 100 100 100 100 100 100 100 100 100 100 100 100 100 100 100 100 100 100 99 100 100 99 99 100 100 100 100 100 100 100 96 100
93 92 66 96 100 100 93 74 97 100 100 100 100 100 100 100 100 100 100 100 100 100 100 100 100 100 100 100 100 100 100 100 100 100 100 100 100 100 100 100 100 100 100 100 100 95 90 94 100 100 100 100 100 100
73 74 94 99 100 100 100 100 99 99 100 100 100 100 100 100 100 100 100 100 100 100 100 100 100 100 100 100 100 100 100 100 100 100 100 100 100 100 99 97 92 97 88 100 100 96 96 100 98 96 91 70 85 100
83 71 95 98 99 90 99 96 75 45 81 100 100 100 100 100 100 100 100 100 100 100 100 100 100 100 100 100 100 100 100 100 100 100 100 100 100 97 94 90 70 76 76 65 52 30 56 70 98 76 82 86 65 78
98 99 94 76 17 8 98 81 77 91 87 100 65 99 96 98 100 100 100 100 100 100 100 100 100 100 100 100 100 100 100 96 80 70 80 76 76 81 98 81 72 69 79 74 87 97 98 100 100 100 100 100 97 27
100 100 28 35 34 56 90 95 100 100 100 98 59 92 98 100 100 100 100 100 100 100 100 100 100 100 100 100 100 100 100 100 100 99 99 100 91 78 100 100 99 96 99 89 43 38 72 100 92 94 92 90 92 88
92 48 5 46 45 93 100 93 95 62 14 65 73 99 94 100 100 97 97 100 95 90 100 98 97 86 86 76 100 99 88 71 38 26 100 100 100 100 98 91 97 89 97 98 86 100 96 54 85 70 32 72 90 99
90 6 25 73 93 99 93 91 43 43 37 5 69 88 92 98 100 100 99 100 100 100 98 92 93 98 50 40 91 76 99 98 83 63 46 65 98 85 100 89 99 94 57 52 63 87 91 90 98 100 97 55 98 100
85 91 39 79 100 100 100 92 35 83 94 67 98 98 96 84 90 98 100 100 99 91 99 99 76 94 82 100 100 99 100 100 99 100 92 100 92 78 92 84 81 79 94 98 95 98 99 100 98 90 98 98 100 100
80 15 56 74 98 100 100 92 85 94 90 100 100 100 100 28 90 100 100 76 74 100 99 98 97 100 98 75 63 95 78 77 100 94 97 89 92 64 66 81 100 100 100 100 100 100 100 71 57 93 92 85 84 89

GFSWCAN_prec_cloud_063.txt.gz
Cloud_Cover
100 76 60 8 94 100 100 100 100 100 100 100 73 91 79 78 100 100 100 100 100 100 23 41 4 2 0 37 50 39 100 30 92 100 100 100 100 100 100 100 100 100 71 24 12 5 37 100 100 100 82 35 20 67
100 100 100 100 100 100 100 100 100 100 100 100 81 95 80 96 100 100 100 100 100 100 60 63 5 0 0 56 100 100 87 66 100 100 100 100 100 100 100 100 100 55 28 5 3 5 4 21 88 100 100 71 23 67
100 100 100 100 100 100 100 100 100 100 100 90 62 40 90 53 100 76 100 99 100 100 47 86 8 65 2 73 94 40 6 58 100 100 100 100 100 100 100 100 100 95 83 5 49 100 72 5 59 100 100 100 84 87
100 100 100 100 100 100 100 100 100 100 100 7 5 6 5 82 100 100 100 100 100 100 100 28 20 5 3 30 86 5 22 99 100 100 100 100 100 100 100 100 100 100 60 44 100 100 55 11 27 100 100 100 100 100
100 100 100 100 100 100 100 100 100 100 79 5 5 4 20 81 100 100 100 100 98 97 100 99 94 68 63 65 51 100 100 100 100 100 100 100 100 100 100 100 100 100 95 100 100 100 100 40 12 100 100 100 100 100
71 100 100 100 100 100 100 100 98 67 14 5 9 100 100 100 100 93 100 100 93 71 100 100 67 100 100 100 100 100 100 100 100 100 100 100 100 100 100 100 100 100 100 100 100 100 67 100 100 100 100 100 100 100
100 100 100 100 100 70 88 100 100 100 64 87 100 100 100 99 58 52 58 57 86 100 100 100 75 100 100 100 100 100 100 100 100 100 100 100 100 100 100 100 100 100 100 100 100 94 44 100 21 93 100 100 100 100
78 76 84 100 100 100 100 100 100 100 100 100 100 100 100 100 85 90 100 68 95 100 100 100 100 100 100 100 100 100 100 100 100 100 100 100 100 100 100 100 100 100 100 100 98 60 83 36 37 6 17 71 99 100
100 69 34 36 100 100 100 100 100 100 100 100 100 85 86 94 80 83 100 69 96 100 100 100 100 100 100 100 100 100 100 100 100 100 100 100 100 87 100 100 100 100 100 100 91 99 100 69 8 81 100 78 5 77
73 100 36 70 5 46 79 100 78 94 84 26 10 11 90 100 50 100 100 100 100 100 100 100 100 100 100 100 100 100 100 100 100 100 100 100 100 100 100 100 100 100 100 100 100 100 100 100 100 93 97 100 100 100
0 10 69 39 88 100 83 98 100 54 52 80 100 100 100 100 100 100 100 100 100 100 100 100 100 100 100 100 100 100 100 100 100 100 100 97 93 100 100 100 100 100 100 100 100 100 100 100 100 100 100 100 100 100
26 6 39 93 24 22 98 100 41 14 84 98 100 100 100 100 100 100 100 100 100 100 100 100 100 100 100 100 100 100 100 100 100 90 100 100 100 100 100 100 100 100 100 100 100 100 100 100 100 100 100 100 100 100
94 5 5 2 51 40 35 100 100 100 100 100 100 100 100 100 100 100 100 100 100 100 100 100 100 100 100 100 100 100 100 100 99 100 100 100 100 89 93 55 59 96 100 100 100 100 100 100 100 100 100 100 100 100
100 100 100 100 100 100 54 100 100 100 100 100 100 100 100 100 100 100 100 100 100 100 100 100 100 100 100 100 100 100 100 100 99 100 59 94 100 100 100 100 100 100 100 100 100 100 100 100 100 100 100 100 100 100
100 100 100 100 100 100 100 100 100 100 100 100 100 100 100 100 100 100 100 100 100 100 100 100 100 72 100 100 100 100 98 63 84 74 88 100 100 100 100 100 100 100 100 100 100 100 100 100 100 100 100 100 100 100
100 100 100 100 100 100 100 100 100 100 100 100 100 100 100 100 100 100 100 100 100 100 100 100 100 100 100 100 100 99 77 99 98 100 100 100 100 100 100 100 100 100 100 100 100 100 100 100 100 100 100 100 100 100
82 100 100 100 100 100 100 100 100 100 100 100 100 100 100 100 100 100 100 100 100 100 100 100 100 100 100 100 100 100 99 100 100 100 100 100 100 100 100 100 100 100 100 100 100 100 100 100 100 100 98 100 100 100
100 100 100 100 100 100 100 100 100 100 100 100 100 100 100 100 100 100 100 100 100 100 88 96 98 100 100 100 100 100 100 100 100 100 100 100 100 100 100 100 100 100 100 100 100 100 100 100 100 100 100 100 100 100
100 100 100 100 100 100 100 100 99 99 100 100 100 100 100 100 100 100 100 100 99 100 100 98 89 97 100 100 100 100 100 100 100 100 100 100 100 100 100 100 100 100 100 100 100 100 100 100 100 100 100 100 100 100
100 100 100 100 100 100 100 100 100 100 100 100 100 100 100 100 100 100 100 100 100 100 100 100 100 100 100 100 100 100 100 100 100 100 100 100 100 100 100 100 100 100 100 100 99 97 100 100 100 100 100 100 100 100
100 100 100 98 100 100 100 100 100 100 100 100 100 100 100 100 100 100 100 100 100 100 100 100 100 100 100 100 100 100 100 100 100 100 100 100 100 100 100 100 100 100 98 98 99 100 100 100 100 100 100 100 100 100
97 100 100 100 100 97 98 100 100 100 100 100 100 100 100 100 100 100 100 100 100 100 100 100 100 100 100 100 100 100 100 100 100 100 100 100 100 100 100 100 100 100 100 100 100 100 100 100 100 100 100 100 100 100
28 74 99 100 100 100 100 100 100 96 93 100 100 97 99 100 100 100 100 100 100 100 100 100 100 100 100 100 100 100 100 100 100 100 100 100 100 100 100 100 100 100 100 100 100 100 100 100 100 100 100 100 100 100
5 34 66 72 96 100 100 100 100 100 100 100 100 100 100 100 100 100 100 100 100 100 100 100 100 100 100 100 100 100 100 100 100 100 100 100 100 100 100 100 100 100 100 100 100 100 100 100 100 100 100 100 100 100
12 54 15 20 69 100 82 99 100 100 100 100 100 100 100 100 100 100 100 100 100 100 100 100 100 100 100 100 100 100 100 100 100 100 100 100 99 95 100 100 100 100 100 100 100 100 100 100 100 100 100 94 67 88
71 89 66 92 86 52 70 94 97 100 100 100 100 100 100 100 100 100 100 100 100 100 100 100 100 100 100 100 100 100 100 100 100 100 100 100 100 100 100 100 100 97 100 87 100 100 100 100 95 63 80 54 97 100
75 93 90 100 99 100 100 95 77 99 100 100 98 100 100 100 100 100 100 100 100 100 100 100 100 100 100 100 100 100 100 100 100 100 100 100 100 100 98 100 100 100 100 91 88 97 100 100 100 100 100 100 97 100
99 100 100 100 97 62 72 56 69 93 93 100 22 93 59 86 100 100 100 100 100 100 100 100 100 100 100 100 100 100 100 100 100 100 100 100 96 100 100 93 100 98 100 100 100 100 100 100 94 88 100 100 100 91
94 68 7 74 10 47 89 94 100 100 100 86 41 98 98 98 100 100 100 100 99 99 99 100 100 100 100 100 100 100 100 100 100 98 100 100 100 75 82 93 82 71 83 61 62 87 98 100 99 100 98 100 100 88
64 26 30 60 66 94 100 100 98 99 76 55 82 100 96 100 100 100 100 100 96 94 95 83 74 18 100 58 100 94 99 40 8 6 92 100 99 98 100 100 100 100 97 72 79 72 84 55 81 81 74 53 73 100
63 5 33 54 96 98 90 88 65 35 9 5 29 73 95 100 99 97 88 84 78 72 84 92 100 92 68 97 100 100 100 100 100 96 83 90 100 100 100 100 100 100 98 88 100 100 100 100 100 100 45 27 24 77
18 86 49 92 100 100 97 9 35 88 100 88 81 97 91 58 87 91 98 100 95 90 100 100 100 100 100 100 99 97 96 98 100 100 100 100 100 100 100 99 100 100 100 100 100 100 100 100 76 88 100 100 64 73
86 28 66 85 89 100 100 98 56 92 99 99 100 100 99 41 90 94 100 99 43 87 79 98 100 98 100 78 42 83 88 97 100 94 100 91 100 100 98 100 100 100 100 100 100 100 100 89 59 92 78 61 56 60

GFSWCAN_prec_cloud_066.txt.gz
Cloud_Cover
24 18 25 100 100 99 100 100 100 100 100 100 100 100 100 100 96 60 24 100 100 100 100 89 9 5 98 100 72 88 100 70 14 11 11 50 8 100 100 56 100 100 100 100 97 10 100 47 91 4 0 0 3 5
98 24 85 100 90 100 100 100 100 100 100 100 100 100 95 100 98 64 100 100 100 100 96 94 23 5 6 16 30 96 100 95 46 38 68 100 100 100 100 100 100 100 100 100 30 17 100 100 91 5 5 1 0 0
100 92 100 89 97 100 100 100 100 100 100 100 100 100 100 91 96 34 100 100 100 100 100 100 32 5 0 1 0 5 6 77 43 7 89 95 100 100 100 100 100 100 100 100 100 63 97 96 100 7 14 6 5 0
100 100 48 33 100 100 100 100 100 100 100 100 100 100 100 94 94 100 100 100 100 100 100 90 54 6 5 5 0 3 29 91 80 90 100 97 77 100 100 100 97 100 100 100 56 99 100 100 100 23 94 38 5 5
100 100 100 100 100 100 100 100 100 100 100 100 100 100 100 100 100 100 100 100 100 98 100 100 100 90 5 12 1 0 0 81 77 95 100 100 98 100 100 100 90 100 100 100 100 100 100 100 100 100 99 47 17 5
100 100 100 100 100 100 100 100 100 100 100 100 100 100 100 100 100 100 100 94 69 100 100 100 96 100 94 63 85 14 8 6 82 100 100 100 100 100 99 90 100 100 100 100 100 100 100 100 100 100 100 100 99 22
100 100 100 100 100 100 100 100 100 100 100 100 100 100 76 47 84 100 85 39 96 100 100 100 97 100 100 100 83 58 5 64 41 92 99 80 100 100 100 100 100 100 100 100 100 100 100 100 100 78 57 100 100 95
100 100 100 100 100 100 100 100 100 100 99 89 42 90 51 46 100 100 100 100 100 100 100 100 100 100 100 100 100 100 81 25 66 98 85 70 100 100 100 100 100 100 100 100 100 100 100 100 100 61 40 100 100 98
100 96 86 100 90 48 81 100 100 100 23 16 49 82 100 100 100 98 69 100 99 100 100 100 100 100 100 100 100 100 100 100 93 100 100 100 100 100 100 100 100 100 100 99 100 100 100 100 100 89 100 100 100 98
45 62 100 94 100 100 96 77 75 100 100 76 97 98 100 99 100 52 100 100 100 100 100 100 100 100 100 100 100 100 100 100 100 100 100 99 84 100 100 100 100 100 100 100 100 100 100 100 100 88 97 100 99 100
99 100 100 100 100 100 100 100 100 100 100 99 94 100 82 96 100 97 100 100 100 100 98 63 97 100 98 100 100 100 100 100 99 99 100 100 100 100 100 100 100 100 100 56 100 100 100 100 100 100 100 100 100 100
13 69 98 100 100 100 100 100 100 100 76 73 67 23 46 67 100 81 100 100 100 90 100 100 96 100 100 100 100 100 91 100 100 100 100 100 100 100 100 100 100 100 100 100 100 100 100 100 100 100 100 100 100 100
4 82 100 100 100 100 98 100 100 56 100 89 100 98 100 100 99 33 100 100 100 100 100 100 100 100 100 100 100 100 100 100 100 100 100 100 100 100 100 100 100 100 100 100 100 100 100 100 100 100 100 100 100 100
100 100 100 100 100 100 100 100 100 100 100 100 100 100 98 100 100 100 100 100 100 100 100 100 100 100 100 100 100 100 100 100 100 100 100 100 100 100 100 100 100 100 100 100 100 100 100 100 100 100 100 100 100 100
47 100 100 100 100 100 100 100 100 100 100 100 100 100 100 100 100 100 100 100 100 100 100 100 100 100 100 100 100 100 100 100 100 97 99 100 100 100 100 100 100 100 100 100 100 100 100 100 100 100 100 100 100 100
96 100 100 100 100 100 100 100 100 100 100 100 100 100 100 100 100 100 100 100 100 100 100 100 100 100 100 100 100 100 100 100 100 100 100 100 100 100 100 100 100 100 100 100 100 100 100 100 100 100 100 100 100 100
100 100 100 100 100 100 100 100 100 100 100 100 100 100 100 100 100 100 100 100 100 100 100 100 100 97 97 100 100 100 100 100 100 100 100 100 100 100 100 100 100 100 100 100 100 100 100 100 100 100 100 100 100 100
100 100 100 100 100 100 100 100 100 100 100 100 100 100 100 100 100 100 100 100 100 100 98 92 97 100 100 100 100 100 100 100 100 100 100 100 100 100 100 100 100 100 100 100 100 100 100 100 100 100 100 100 100 100
100 100 100 100 100 100 100 100 100 100 100 100 100 100 100 100 100 100 100 100 100 100 68 79 86 100 100 100 100 100 100 100 100 100 100 100 100 100 100 100 100 100 100 100 100 100 100 100 100 100 100 100 100 100
100 100 100 100 100 100 100 100 100 100 100 100 100 100 100 100 100 100 100 100 100 100 99 99 100 100 100 100 100 100 100 100 100 100 100 100 100 100 100 100 100 100 100 100 100 100 100 100 100 100 100 100 100 100
100 100 100 100 100 100 100 100 100 100 100 100 100 100 100 100 100 100 100 100 100 100 100 100 100 100 100 100 100 100 100 100 100 100 100 100 100 100 100 100 100 100 100 100 100 100 100 100 100 100 100 100 100 100
100 100 100 100 100 100 100 100 100 100 100 100 100 100 100 100 100 100 100 100 100 100 100 100 100 100 100 100 100 100 100 100 100 100 100 100 100 100 100 100 100 100 100 100 100 98 100 100 100 100 100 100 100 100
15 88 100 100 100 100 100 100 100 100 100 100 100 100 100 100 100 100 100 100 100 100 100 100 100 100 100 100 100 100 100 100 100 100 100 100 100 100 100 100 100 100 100 100 100 100 100 100 100 100 100 100 100 100
83 61 10 50 100 100 100 100 100 100 100 100 100 100 100 100 100 100 100 100 100 100 100 100 100 100 100 100 100 100 100 100 100 100 100 100 100 100 100 100 100 100 100 100 100 100 100 100 100 100 100 100 97 65
25 46 6 48 5 37 85 100 100 100 100 100 100 100 100 100 100 100 100 100 100 100 100 100 100 100 100 100 100 100 100 100 100 100 100 100 100 100 100 100 100 100 100 100 100 100 100 100 99 68 25 100 48 100
61 90 61 94 97 49 90 86 96 100 100 100 100 100 100 100 100 100 100 100 100 100 100 100 100 100 100 100 100 100 100 100 100 100 100 100 100 100 100 100 100 100 100 100 100 99 75 82 100 100 100 86 94 100
92 76 86 93 99 91 99 99 89 89 97 99 99 100 100 100 100 100 100 100 100 100 100 100 100 100 100 100 100 100 100 100 100 100 100 100 100 100 100 100 100 100 100 91 92 98 100 100 100 100 100 100 100 100
99 100 100 99 71 13 84 84 100 100 100 99 97 99 100 93 100 100 96 100 100 100 100 100 100 100 100 100 100 100 100 100 100 100 100 100 99 86 78 87 99 95 82 89 100 100 100 100 100 100 100 100 100 100
91 71 6 41 32 84 99 100 100 100 100 83 60 98 100 100 100 99 100 100 100 100 100 100 94 88 94 97 95 98 84 72 69 30 96 100 91 68 92 100 90 86 97 74 60 96 99 98 100 100 99 99 100 100
75 28 11 37 41 99 100 99 98 100 96 86 99 99 98 100 100 100 100 100 100 100 100 98 81 57 100 80 100 100 100 61 7 5 82 100 92 89 100 100 100 100 100 99 100 81 91 56 54 27 20 37 49 79
61 5 34 12 99 100 100 100 91 66 29 8 27 76 89 100 99 100 100 99 100 100 99 97 100 90 71 100 100 100 99 98 100 100 96 100 100 100 100 100 100 100 100 100 100 100 76 76 93 91 87 64 10 72
66 84 47 86 100 100 99 97 69 90 97 86 68 96 89 89 93 95 99 100 99 95 100 100 100 100 100 100 100 99 95 93 100 100 100 100 100 100 100 100 100 100 100 100 100 100 100 99 68 84 100 89 55 55
33 10 94 93 96 100 96 90 76 64 91 97 94 100 91 32 90 94 100 98 40 65 88 99 99 84 80 76 84 100 97 100 100 98 100 100 100 100 81 100 100 100 100 100 100 100 100 77 56 62 55 78 69 62

GFSWCAN_prec_cloud_069.txt.gz
Cloud_Cover
56 8 5 100 100 100 100 100 62 57 100 100 100 100 100 100 100 99 79 63 41 100 77 77 95 94 65 64 100 100 100 100 100 100 100 100 100 100 100 100 100 100 100 100 61 57 82 100 100 100 99 100 100 87
13 22 93 42 83 100 100 93 89 100 100 100 100 100 100 100 100 100 96 90 76 99 45 100 85 73 66 69 100 100 100 100 100 100 100 100 100 100 99 100 100 100 100 100 92 12 8 98 100 100 81 100 100 100
97 100 100 100 100 98 56 100 100 100 100 100 100 100 100 100 100 100 100 100 44 66 14 100 100 76 88 39 100 100 100 100 100 100 100 100 100 100 100 100 100 100 100 100 67 21 29 100 100 100 16 43 100 100
35 86 99 100 100 100 100 100 100 100 100 100 100 100 100 100 100 100 100 85 43 79 100 85 100 100 47 45 100 100 100 100 93 100 97 99 50 7 30 83 82 100 100 100 56 97 100 100 100 100 84 86 88 100
100 100 100 100 100 100 100 100 100 100 100 100 100 100 100 100 100 100 100 86 4 85 100 100 100 100 61 86 100 100 76 14 20 96 100 41 5 76 86 90 100 100 100 100 95 100 100 100 100 100 100 81 68 100
100 100 100 100 100 100 100 100 100 100 100 100 100 100 100 100 99 71 100 92 96 100 100 100 100 100 100 98 100 100 18 5 6 20 100 65 5 9 54 64 99 100 100 100 100 100 100 100 100 100 100 100 93 98
100 100 100 100 100 100 100 100 100 100 100 100 100 100 100 99 92 100 80 6 56 100 100 100 100 76 100 100 99 29 5 63 16 46 99 51 72 27 13 5 59 100 100 100 100 100 100 100 100 90 100 100 100 100
100 100 100 100 100 100 100 100 100 100 100 100 100 100 100 100 100 100 92 97 100 100 100 100 100 100 100 100 100 49 88 85 65 34 94 37 100 53 24 5 69 100 100 100 100 100 100 100 100 100 100 100 98 100
100 100 100 100 100 100 100 100 100 100 100 100 100 100 100 100 100 100 100 100 100 100 100 100 100 100 100 100 100 100 58 100 98 100 86 43 100 78 75 92 100 100 100 100 100 100 100 96 100 100 94 100 100 100
100 100 100 100 100 100 100 100 100 100 100 100 86 100 100 99 99 100 100 100 100 98 100 100 100 100 100 100 100 100 100 100 100 90 86 91 91 11 99 100 71 86 100 100 100 100 100 100 100 100 99 100 100 100
100 100 77 70 22 94 78 83 100 99 100 100 100 100 72 55 69 100 100 100 100 100 100 100 98 100 100 100 100 100 100 100 100 100 78 100 100 95 100 82 98 100 100 100 100 100 100 100 100 100 100 100 100 100
100 100 100 82 34 100 99 62 73 69 100 94 74 100 100 97 99 100 100 100 100 75 100 100 97 100 100 100 100 100 100 100 100 100 100 100 56 100 100 98 100 100 100 100 100 100 100 100 100 100 100 100 100 100
87 93 100 100 100 100 100 100 100 99 70 100 100 100 95 100 100 100 100 100 100 100 100 100 100 100 100 100 98 100 100 100 100 100 100 86 100 100 100 100 100 93 100 100 100 100 100 100 100 100 100 100 100 100
89 28 28 100 71 99 100 100 100 100 86 86 100 99 82 100 100 99 42 100 100 100 100 100 100 99 100 100 100 100 100 100 100 100 100 100 100 100 100 100 100 100 100 100 100 100 100 100 100 99 100 100 100 100
90 93 44 51 100 100 93 100 100 100 100 100 100 100 100 100 100 100 100 100 100 100 100 100 100 100 100 100 100 100 100 100 100 100 100 100 100 100 100 100 100 100 100 100 100 100 100 100 100 100 100 100 100 100
94 98 91 84 100 100 100 100 100 100 100 100 100 100 100 100 100 100 100 100 100 100 100 100 100 100 100 100 100 100 100 100 100 100 100 100 100 100 100 100 100 100 100 100 100 100 100 100 100 100 100 100 100 100
76 100 100 100 100 100 100 100 100 100 100 100 100 100 100 100 100 100 100 100 100 100 100 100 100 100 100 100 100 100 100 100 100 100 100 100 100 100 100 100 100 100 100 100 100 100 100 100 100 100 100 100 100 100
100 100 100 100 100 100 100 100 100 100 100 100 100 100 100 100 100 100 100 100 100 100 100 100 100 100 100 100 100 100 100 100 100 100 100 100 100 100 100 100 100 100 100 100 100 100 100 100 100 100 100 100 100 100
100 100 100 100 100 100 100 100 100 100 100 100 100 100 100 100 100 100 100 100 100 100 100 100 100 100 100 100 100 100 100 100 100 100 100 100 100 100 100 100 100 100 100 100 100 100 100 100 100 100 100 100 100 100
100 100 100 100 100 100 100 100 100 100 100 100 100 100 100 100 100 100 100 100 100 100 100 100 100 100 100 100 100 100 100 100 100 100 100 100 100 100 100 100 100 100 100 100 100 100 100 100 100 100 100 100 100 100
100 100 100 100 100 100 100 100 100 100 100 100 100 100 100 100 100 100 100 100 100 100 100 100 100 100 100 100 100 100 100 100 100 100 100 100 100 100 100 100 100 100 100 100 100 100 100 100 100 100 100 100 100 100
100 100 100 100 100 100 100 100 100 100 100 100 99 88 94 90 99 100 100 99 100 100 100 100 100 100 100 100 100 100 100 100 100 100 100 100 100 100 100 100 100 100 100 100 100 100 100 100 100 100 100 100 100 99
100 100 100 100 100 100 100 100 100 100 100 100 100 94 91 94 100 99 97 100 100 100 100 100 100 100 100 100 100 100 100 100 100 100 100 100 100 100 100 100 100 100 100 100 100 100 100 100 100 100 100 100 100 100
100 100 100 100 100 100 100 100 100 100 100 100 100 100 100 100 100 100 100 100 100 100 100 100 100 100 100 100 100 100 100 100 100 100 100 100 100 100 100 100 100 100 100 100 100 100 100 100 100 100 100 100 98 74
100 78 40 67 57 80 81 99 100 100 100 100 100 100 100 100 100 100 100 100 100 100 100 100 100 100 100 100 100 100 100 100 100 100 100 100 100 100 100 100 100 100 100 100 100 100 100 100 95 58 55 51 41 78
78 91 53 87 79 67 83 71 77 91 65 88 98 100 100 100 100 100 100 100 100 100 100 100 100 100 100 100 100 100 100 100 100 100 100 100 100 100 100 100 100 100 100 98 95 78 74 82 55 13 22 41 97 98
80 96 85 100 98 93 87 100 94 72 74 75 84 63 71 66 94 100 100 100 100 100 100 100 100 100 100 100 100 100 100 100 100 100 100 100 100 100 100 100 100 100 100 98 98 99 97 100 99 100 100 93 100 100
98 90 71 68 29 64 76 94 100 98 94 100 89 93 99 93 100 100 100 100 100 100 100 100 100 100 100 100 100 100 100 100 100 100 100 100 99 92 72 77 94 100 68 87 100 100 100 100 100 100 100 100 90 92
99 57 59 100 100 100 100 100 100 100 100 92 98 100 100 100 100 98 100 100 100 100 100 100 100 98 70 80 75 67 50 43 62 60 39 19 28 69 89 84 67 60 69 5 61 92 99 99 64 12 24 66 81 97
82 28 12 27 48 98 100 100 100 100 100 69 92 100 94 100 100 100 100 100 100 98 100 98 99 79 57 5 84 85 100 56 6 7 6 46 90 84 100 99 100 100 100 78 19 5 81 33 26 6 5 5 5 5
28 5 29 28 100 100 100 100 100 90 34 10 22 76 90 100 99 100 99 100 100 100 92 86 99 78 33 51 62 49 97 100 100 99 81 95 100 100 100 100 100 100 100 100 100 86 39 35 47 33 5 5 11 48
72 87 46 69 100 99 100 99 85 94 88 91 76 94 100 100 98 98 92 92 100 89 100 100 93 100 98 100 100 98 95 100 100 100 100 100 100 99 99 100 100 100 100 100 100 100 88 68 60 54 54 52 54 55
70 65 97 95 94 97 88 75 61 80 94 99 100 100 100 94 86 87 85 87 97 72 92 90 97 98 92 89 94 100 95 100 100 100 100 100 100 99 81 95 100 100 77 72 87 85 68 34 24 42 52 45 38 57

GFSWCAN_prec_cloud_072.txt.gz
Cloud_Cover
100 100 100 60 5 8 7 25 100 100 100 99 100 100 100 100 100 100 100 97 66 26 75 6 26 98 100 72 99 100 100 100 100 96 84 97 100 100 100 100 100 100 100 93 79 96 100 100 99 26 63 62 98 100
100 100 100 67 37 96 100 74 100 100 100 99 54 100 100 100 100 100 100 95 100 54 16 94 46 99 100 94 94 100 100 100 77 71 10 5 97 100 99 100 100 100 96 100 100 100 100 100 100 96 95 13 7 90
68 100 100 98 89 100 100 100 100 100 100 100 52 100 100 100 100 100 97 100 100 100 77 94 4 98 97 94 37 83 100 100 93 97 100 100 93 100 100 100 100 100 100 100 86 98 100 100 100 92 28 80 75 63
83 100 100 100 100 100 100 100 100 97 100 53 100 100 100 100 100 100 93 99 100 100 100 61 28 10 70 100 61 78 100 100 73 99 8 54 32 100 100 100 100 100 100 100 100 99 100 100 100 71 93 84 43 84
100 100 100 100 100 34 64 81 92 50 95 100 100 100 100 100 100 100 100 100 100 76 85 51 93 100 20 10 79 52 100 100 13 18 65 19 66 100 100 100 100 100 100 100 100 100 100 96 96 92 100 100 100 100
100 100 100 100 100 100 100 100 100 100 100 100 100 100 100 100 100 100 100 89 83 90 97 100 100 60 100 49 24 24 100 96 34 5 5 84 100 100 100 100 100 100 100 100 100 100 100 100 100 100 100 100 99 13
100 100 100 100 100 100 100 100 100 100 100 100 100 100 100 100 100 85 100 100 97 61 88 100 100 100 88 66 40 8 100 99 25 24 5 55 100 100 100 100 100 100 100 95 98 86 89 100 100 100 100 100 77 100
100 100 100 100 100 100 100 100 100 100 100 100 100 100 100 100 100 100 89 98 20 25 100 100 100 100 100 100 90 26 50 33 6 95 87 94 100 100 100 100 100 100 100 94 56 36 23 94 100 100 100 98 100 100
100 100 100 100 100 100 100 100 100 100 100 100 100 100 100 100 100 100 78 82 94 97 100 100 79 100 100 100 100 100 58 100 90 100 94 96 100 100 100 100 100 100 73 17 6 34 87 91 100 100 92 76 100 100
100 100 100 100 100 100 100 100 100 100 100 100 100 98 100 100 52 100 100 100 100 100 100 100 100 100 100 100 100 97 100 100 100 99 70 83 98 92 87 100 100 71 64 39 5 7 36 91 96 54 51 34 55 100
100 100 100 100 100 100 100 100 100 100 99 100 100 100 100 100 100 100 100 100 100 100 100 100 100 100 100 100 100 100 100 100 100 99 77 100 98 70 45 92 71 36 43 43 29 41 80 94 98 60 100 95 95 100
100 100 89 92 87 75 85 99 51 87 100 100 100 100 100 100 100 100 100 100 100 100 100 100 100 100 100 100 100 99 100 99 100 100 99 100 96 100 100 85 45 54 56 27 50 83 96 100 100 100 100 100 100 100
96 100 78 90 57 54 30 94 96 100 100 95 49 92 97 94 70 96 100 100 100 100 100 100 100 100 100 100 100 100 100 100 100 100 100 100 100 100 100 100 93 62 33 65 100 63 100 100 100 100 100 100 100 100
77 29 68 41 14 99 100 100 100 100 100 100 99 91 100 99 83 84 100 100 100 100 100 100 100 100 100 100 100 100 100 100 100 100 100 100 100 100 100 100 100 100 100 94 100 100 100 100 100 100 100 100 100 100
77 90 100 100 98 100 100 100 99 96 70 94 94 100 100 100 100 100 100 100 100 100 100 100 100 100 100 100 100 100 100 100 100 100 100 100 100 100 100 100 100 100 100 100 100 100 100 100 100 100 100 100 100 100
77 82 100 100 100 100 100 100 97 100 98 91 71 100 100 100 100 100 100 100 100 100 100 100 100 100 100 100 100 100 100 100 100 100 100 100 100 100 100 100 100 100 100 100 100 100 100 100 98 100 100 100 100 100
100 100 100 97 100 100 100 100 98 100 100 99 98 100 100 100 100 100 100 100 100 100 100 100 100 100 100 100 100 100 100 100 100 100 100 100 100 100 100 100 100 100 100 100 100 100 100 100 85 88 100 100 100 99
100 100 100 100 100 100 100 100 100 100 100 100 100 100 100 100 100 100 100 100 100 100 100 100 83 85 100 100 100 100 100 100 100 100 100 100 100 100 100 100 100 100 100 100 100 100 100 100 100 100 98 98 100 100
100 100 100 100 100 100 100 100 100 100 100 100 100 100 100 100 100 100 100 100 100 100 100 100 100 100 100 100 100 100 100 100 100 100 100 100 100 100 100 100 100 100 100 100 100 100 100 100 100 100 100 100 100 100
100 100 100 100 100 100 100 100 100 100 100 100 100 100 100 100 100 100 100 100 100 100 100 100 100 100 100 100 100 100 100 100 100 100 100 100 100 100 100 100 100 100 100 100 100 100 100 100 100 100 100 100 100 100
100 100 100 100 100 100 100 100 100 100 100 100 100 100 100 100 100 100 100 100 100 100 100 100 100 100 100 100 100 100 100 100 100 100 100 100 100 100 100 100 100 100 100 100 100 100 100 100 100 100 100 100 100 100
100 100 100 100 100 100 100 100 100 100 100 100 100 100 100 100 100 100 100 100 100 100 100 100 100 100 100 100 100 100 100 100 100 100 100 100 100 100 100 100 98 100 100 100 100 100 100 100 100 100 100 100 100 92
100 100 100 99 90 76 98 100 98 96 100 100 100 100 100 100 99 96 100 100 100 100 100 100 100 100 100 100 100 100 100 100 100 100 100 100 100 100 100 100 100 100 100 100 100 99 94 59 54 81 78 71 81 91
96 93 90 83 63 86 91 100 98 100 91 96 99 100 100 100 97 99 100 100 100 100 100 100 100 100 100 100 100 100 100 100 100 100 100 100 100 100 100 100 99 86 73 54 65 88 99 97 74 61 69 68 68 74
100 100 94 100 58 68 65 68 94 99 99 100 100 100 100 99 99 100 100 100 100 100 100 100 100 100 100 100 100 100 100 100 100 100 100 100 100 100 100 100 100 100 100 100 99 80 76 81 73 66 67 75 76 100
100 100 100 100 100 100 96 98 100 100 100 100 100 100 100 100 100 100 100 100 100 100 100 100 100 100 100 100 100 100 100 100 100 100 100 100 100 100 100 100 100 97 100 100 98 83 85 99 100 100 100 90 69 94
65 98 86 98 100 100 100 100 100 100 99 100 100 100 62 79 100 100 100 100 100 100 100 100 100 100 100 100 100 100 100 100 100 100 100 100 100 100 100 91 82 100 100 100 100 100 100 100 100 100 100 100 100 100
92 6 31 63 64 100 97 94 100 100 100 100 96 93 99 100 100 100 100 100 100 100 100 100 100 100 100 100 100 100 100 100 100 100 100 95 78 91 100 96 84 56 78 98 100 100 100 100 100 100 100 100 100 100
70 93 7 5 50 99 100 100 100 100 100 100 100 100 100 100 100 100 100 100 100 100 100 100 100 100 100 100 100 100 100 84 72 67 71 68 69 92 98 100 94 88 99 100 68 100 100 100 48 52 70 86 100 100
78 71 10 58 83 100 100 100 100 100 100 100 99 100 100 100 100 100 100 100 100 100 100 100 100 100 100 100 62 53 84 88 83 46 8 11 69 100 100 100 100 100 100 100 100 83 42 61 83 78 68 84 80 90
30 5 30 100 100 100 100 100 100 100 100 100 100 99 100 100 100 100 100 100 100 100 100 100 100 81 33 44 58 44 56 100 98 78 82 98 100 100 100 100 100 100 100 100 100 99 96 94 86 89 77 70 67 77
39 26 6 75 100 100 100 67 100 100 100 100 100 99 100 100 100 100 100 100 100 100 94 79 65 73 74 54 81 78 76 100 100 100 100 100 100 97 99 100 94 100 100 100 100 98 82 74 86 70 91 85 68 72
76 56 72 100 100 100 100 92 66 90 99 100 100 100 100 100 100 100 100 100 100 100 100 100 100 95 63 77 81 93 89 100 100 90 99 96 99 63 90 99 99 99 100 100 99 80 74 67 87 73 86 76 80 88

GFSWCAN_prec_cloud_075.txt.gz
Cloud_Cover
100 100 99 94 89 69 100 96 62 91 100 100 100 100 100 100 100 100 100 100 100 100 100 98 30 100 99 44 62 100 100 100 100 100 56 100 100 100 100 100 100 100 100 84 100 100 100 100 100 100 100 100 18 5
100 97 42 100 25 91 33 18 6 49 100 100 100 100 100 100 100 100 100 100 100 100 100 79 13 25 95 39 96 100 100 100 100 96 41 99 100 100 100 56 100 98 100 100 100 100 100 100 100 100 100 53 5 5
100 92 63 6 98 100 84 86 12 93 100 84 100 95 100 100 100 100 100 100 100 100 100 44 7 5 5 68 80 100 100 100 100 100 100 74 100 100 100 100 100 100 100 100 100 99 100 100 100 100 100 35 10 56
100 78 91 100 100 100 95 84 73 10 80 100 100 100 100 100 100 100 100 100 100 100 100 100 19 47 17 90 69 68 100 100 100 100 62 8 72 100 100 100 86 96 100 100 100 100 100 90 100 100 100 84 100 97
100 100 87 100 100 100 65 40 50 97 100 100 100 100 100 100 100 100 100 100 100 100 100 87 72 39 26 100 100 44 100 100 100 87 64 19 6 49 100 100 100 100 100 83 100 100 100 100 100 94 100 100 100 79
100 98 100 100 100 100 100 100 100 100 100 100 100 100 100 100 100 100 100 100 100 100 100 100 100 7 69 100 100 100 100 100 100 83 42 5 5 2 44 24 100 100 100 100 100 100 100 100 100 100 100 99 88 64
100 100 100 59 100 100 91 100 100 100 100 100 100 100 100 100 100 100 100 100 100 100 100 98 79 62 16 100 100 95 99 100 100 98 33 55 40 8 5 56 100 100 100 100 100 100 100 100 100 100 100 100 91 57
100 100 100 100 100 100 99 100 82 97 100 100 100 100 100 100 100 100 100 100 100 100 97 94 100 100 74 92 40 7 100 100 100 97 19 40 20 10 26 98 100 100 100 100 100 100 100 100 100 100 100 58 62 27
100 100 100 100 100 100 100 100 100 100 100 100 100 100 100 100 100 100 100 76 93 88 52 100 100 100 100 99 44 32 96 83 98 81 46 22 13 44 9 100 100 100 100 100 100 100 100 100 100 99 68 16 5 53
100 100 100 100 100 100 100 100 100 100 100 100 100 100 100 100 100 76 89 100 84 72 100 100 100 100 100 100 100 100 100 97 99 94 28 96 100 16 60 100 100 100 100 100 100 100 100 100 100 100 15 5 74 86
100 100 100 100 100 100 100 100 100 100 100 100 100 100 100 100 100 100 100 100 100 100 72 100 100 100 100 100 100 100 100 100 100 16 31 14 51 86 97 100 100 100 100 100 100 100 100 100 100 57 62 47 88 62
100 86 100 100 100 100 100 100 100 100 100 100 100 100 100 96 100 100 100 100 89 56 100 100 100 100 100 100 100 100 100 100 100 26 86 54 93 94 63 99 100 100 100 100 100 100 100 62 21 35 97 100 100 100
100 93 62 94 100 100 88 94 100 93 81 87 37 97 100 99 98 100 100 94 92 100 100 100 100 100 100 100 100 100 100 100 100 100 100 100 100 100 100 100 100 100 100 100 100 77 98 99 100 100 100 100 100 100
22 8 24 59 98 81 80 96 99 100 99 100 100 100 99 100 91 95 100 100 100 100 100 100 100 100 100 100 100 100 100 100 100 100 100 100 100 100 100 100 100 100 100 100 100 100 100 100 100 100 100 100 100 100
5 83 92 93 97 92 100 99 100 99 64 100 100 99 100 100 100 100 100 100 100 100 100 100 100 100 100 100 100 100 100 100 100 100 100 100 100 100 100 100 100 100 100 100 100 100 100 100 100 100 100 100 100 100
100 93 72 100 100 99 100 100 100 100 84 96 89 100 100 100 100 100 100 100 100 100 100 100 100 100 100 100 100 100 100 100 100 100 100 100 100 100 100 100 100 100 100 100 100 100 100 100 100 100 100 100 100 100
100 100 100 100 100 100 100 96 73 88 100 100 100 100 100 100 100 100 100 100 100 100 100 100 100 100 100 100 100 100 100 100 100 100 100 100 100 100 100 100 100 100 100 100 100 100 100 100 100 100 100 100 100 98
100 100 100 100 100 100 100 100 100 100 100 100 100 100 100 100 100 100 100 100 100 100 100 100 100 100 100 100 100 100 100 100 100 100 100 100 100 100 100 100 100 100 100 100 100 100 100 100 100 100 100 100 98 100
100 100 100 100 100 96 100 100 100 100 100 100 100 100 100 100 100 100 100 100 100 100 100 100 100 100 100 100 100 100 100 100 100 100 100 100 100 100 100 100 100 100 100 100 100 100 100 100 100 100 100 100 100 100
100 100 100 100 100 100 100 100 99 100 100 100 100 100 100 100 100 100 100 100 100 100 100 100 100 100 100 100 100 100 100 100 100 100 100 100 100 100 100 100 100 100 100 100 100 100 100 100 100 100 100 100 100 100
100 100 100 100 100 100 100 100 100 100 100 100 100 100 100 100 100 100 100 100 100 100 100 100 100 100 100 100 100 100 100 100 100 100 100 100 100 100 100 100 100 100 100 100 100 100 100 100 100 100 100 100 100 100
100 100 100 100 100 100 100 100 100 100 100 100 100 100 100 100 100 100 100 100 100 100 100 100 100 100 100 100 100 100 100 100 100 100 100 100 100 100 100 100 100 100 100 100 100 100 100 100 100 100 100 100 100 86
97 100 100 88 98 93 100 100 100 100 100 100 100 100 100 100 100 100 100 100 100 100 100 100 100 100 100 100 100 100 100 100 100 100 100 100 100 100 100 100 100 100 100 94 80 79 83 89 92 100 100 100 100 100
100 100 97 100 85 100 96 98 100 100 100 100 100 100 100 100 100 100 100 100 100 100 100 100 100 100 100 100 100 100 100 100 100 100 100 100 100 100 100 100 91 78 85 92 98 100 100 100 100 87 91 87 94 100
88 81 70 72 72 75 89 99 100 100 100 100 100 100 100 100 100 100 100 100 100 100 100 100 100 100 100 100 100 100 100 100 100 100 100 100 100 100 100 100 100 100 100 100 100 100 100 90 86 79 80 82 98 100
100 94 86 96 100 96 100 100 100 100 100 100 100 100 100 100 98 100 100 100 100 100 100 100 100 100 100 100 100 100 100 100 100 100 100 100 100 100 100 100 100 100 100 100 100 95 93 100 98 100 100 95 75 97
100 100 100 100 100 100 100 99 94 96 100 100 100 100 100 100 100 100 100 100 100 100 100 100 100 100 100 100 100 100 100 100 100 100 100 100 100 100 100 100 100 99 100 100 100 100 100 100 100 100 100 100 100 100
91 88 76 99 98 100 100 100 100 100 100 100 100 100 100 100 100 100 100 100 100 100 100 100 100 100 100 100 100 100 100 100 100 100 100 100 100 100 100 94 80 45 86 100 100 100 100 100 100 100 100 100 100 100
100 97 32 54 92 100 100 100 100 100 100 100 100 100 100 100 100 100 100 100 100 100 100 100 100 100 100 100 100 100 100 100 100 100 100 99 89 90 100 100 100 100 100 100 100 100 100 100 88 100 100 100 100 100
98 99 73 98 100 100 100 100 100 100 100 100 100 100 100 100 100 100 100 100 100 100 100 100 100 100 100 100 100 100 100 100 100 100 66 82 100 100 100 100 100 100 100 100 100 89 51 91 94 100 98 100 100 100
99 98 100 100 100 100 100 100 100 100 100 100 100 99 100 100 100 100 100 100 100 100 100 100 100 100 100 100 100 100 100 98 99 100 100 100 100 100 100 100 100 100 100 100 100 100 99 96 100 100 100 100 98 94
92 96 78 100 100 100 100 100 100 100 100 100 100 100 100 100 100 100 100 100 100 100 100 100 100 100 100 100 99 100 99 100 100 100 100 100 100 100 100 100 100 100 100 100 100 100 100 100 100 100 100 100 100 98
99 99 98 100 100 100 100 100 100 100 100 100 100 100 100 100 100 100 100 100 100 100 100 100 100 100 99 100 100 98 100 100 99 90 95 57 67 41 100 100 100 100 100 100 100 100 100 100 100 100 100 100 100 100

GFSWCAN_prec_cloud_078.txt.gz
Cloud_Cover
5 88 97 100 100 100 100 92 82 100 100 100 100 100 100 100 100 100 100 100 100 100 100 100 100 100 85 84 8 2 38 99 46 30 44 72 99 100 100 100 100 100 100 100 100 100 54 100 100 100 100 100 100 100
100 100 100 100 100 21 82 100 80 100 100 100 100 100 100 100 100 91 100 100 100 100 100 100 100 100 99 82 37 36 0 0 86 29 32 10 94 100 100 100 100 100 100 100 100 97 82 100 100 100 100 100 100 89
100 100 100 99 99 100 100 89 100 99 100 100 98 100 100 100 100 100 100 100 100 100 100 100 100 100 100 65 10 93 3 61 22 11 100 68 77 100 100 100 100 100 100 100 100 100 100 100 100 100 100 100 100 70
100 69 90 100 100 100 100 100 100 73 100 100 100 100 100 100 100 100 100 100 100 100 100 100 100 100 38 5 5 5 11 61 49 70 100 96 16 100 100 100 100 100 100 100 100 100 100 100 100 100 100 80 90 90
81 76 100 97 100 83 99 98 46 71 100 100 100 100 100 100 100 100 100 100 100 100 100 100 100 100 91 44 2 4 0 4 98 97 82 7 8 100 100 100 100 100 99 70 84 100 100 100 100 100 100 100 100 71
100 100 100 100 92 91 75 19 5 96 100 100 100 100 100 100 100 100 100 100 100 100 100 100 100 100 84 5 14 0 5 39 93 100 72 99 8 100 100 100 100 100 100 100 100 100 100 100 100 99 100 100 100 100
100 97 100 100 100 46 82 89 89 100 100 100 100 100 100 100 100 100 100 100 100 100 100 100 100 82 14 8 5 38 100 100 100 100 100 39 28 14 100 100 100 100 100 100 100 96 100 100 100 100 100 100 100 100
100 100 100 100 100 100 100 100 100 100 100 100 100 100 100 100 100 100 100 100 100 100 100 100 98 66 14 100 35 89 44 100 100 100 80 59 98 5 60 100 100 100 100 100 100 100 100 100 100 100 98 57 100 100
100 100 100 100 100 100 100 100 100 100 100 100 100 100 100 100 100 100 100 100 100 100 97 92 100 100 100 83 65 100 100 100 23 94 96 51 79 5 8 96 100 100 100 100 100 100 100 100 100 100 100 100 100 100
100 100 100 100 100 100 100 100 100 100 100 100 100 100 100 100 100 100 100 100 100 97 94 47 86 100 100 100 100 100 88 100 100 100 100 100 10 8 94 70 77 100 100 100 100 99 92 98 100 100 100 100 100 100
100 100 100 100 100 100 100 100 100 100 100 100 100 100 100 100 100 100 100 98 85 98 72 90 100 100 100 96 100 96 96 94 100 81 100 100 70 93 100 54 60 15 80 69 69 62 55 43 72 99 100 100 100 100
100 100 100 100 100 100 100 100 100 100 99 93 100 100 100 100 100 97 100 100 99 99 100 100 100 100 100 100 100 100 88 100 81 71 86 100 100 100 99 100 100 93 91 30 17 52 68 80 90 100 100 100 100 100
100 100 100 100 100 100 100 100 100 100 100 100 100 100 100 100 100 99 100 100 95 100 100 100 100 100 100 100 100 100 100 100 94 91 48 96 100 100 100 100 100 100 100 99 86 97 98 100 100 100 100 100 100 100
92 99 100 100 100 100 100 100 100 100 100 100 100 100 100 99 100 100 62 28 98 100 100 100 100 100 100 100 100 100 100 100 100 100 100 100 100 100 100 100 100 100 100 100 100 100 100 100 100 100 100 100 100 100
5 5 15 91 96 100 100 100 100 75 89 100 90 98 100 100 100 100 100 100 100 100 100 100 100 100 100 100 100 100 100 98 100 100 100 100 100 100 100 100 100 100 100 100 100 100 100 100 100 100 100 100 100 100
15 27 95 100 95 100 99 69 92 78 98 65 96 100 100 100 100 100 100 100 100 100 100 100 100 100 100 100 100 100 96 100 100 100 100 100 100 100 100 100 100 100 100 100 100 100 100 100 100 100 100 100 100 100
98 98 82 100 71 23 57 100 59 73 70 100 100 97 100 100 100 100 100 100 100 100 100 100 100 100 100 100 100 100 100 100 100 100 100 100 100 100 100 100 100 100 100 100 100 100 100 100 100 100 100 100 100 99
99 61 50 6 11 62 28 99 65 98 100 99 100 100 100 100 100 100 100 100 100 100 100 100 100 100 100 100 100 100 100 100 100 100 100 100 100 100 100 100 100 100 100 100 100 100 100 100 100 100 100 100 100 100
100 100 100 56 96 100 100 100 100 100 100 100 100 100 100 100 100 100 100 100 100 100 100 100 100 100 100 100 100 100 100 100 100 100 100 100 100 100 100 100 100 100 100 100 100 100 100 100 100 100 100 100 100 100
100 100 100 100 100 100 93 100 100 100 100 100 100 100 100 100 100 100 100 100 100 100 100 100 100 100 100 100 100 100 100 100 100 100 100 100 100 100 100 100 100 100 100 100 100 100 100 100 100 100 100 100 100 100
100 100 100 100 100 100 100 100 100 100 100 100 100 100 100 100 100 100 100 100 100 100 100 100 100 100 100 100 100 100 100 100 100 100 100 100 100 100 100 100 100 100 100 100 100 100 100 100 100 100 100 100 96 36
100 100 100 100 100 100 100 100 100 100 100 100 100 100 100 100 100 100 100 100 100 100 100 100 100 100 100 100 100 100 100 100 100 100 100 100 100 100 100 100 100 100 99 99 100 100 99 100 98 93 76 31 8 68
100 100 100 100 100 100 100 100 100 100 100 100 100 100 100 100 100 100 100 100 100 100 100 100 100 100 100 100 100 100 100 100 100 100 100 100 100 100 100 100 100 100 100 100 86 74 72 87 75 82 93 95 95 78
99 98 62 92 86 90 79 100 100 100 100 100 100 100 100 100 100 100 100 100 100 100 100 100 100 100 100 100 100 100 100 100 100 100 100 100 97 100 100 100 66 77 89 97 89 88 99 91 90 100 91 87 97 100
97 63 73 94 72 98 100 100 93 100 100 100 100 100 100 100 100 100 100 100 100 100 100 100 100 100 100 100 100 100 100 100 100 100 100 100 100 91 91 100 100 100 98 85 95 98 97 95 82 66 85 99 100 99
98 99 100 100 100 99 100 100 100 100 100 100 100 100 100 100 100 100 100 100 100 100 100 100 100 100 100 100 100 100 100 100 100 100 100 100 100 99 97 96 96 99 99 100 93 100 100 100 93 100 100 60 34 81
99 100 100 100 100 100 100 100 100 100 100 100 100 100 100 100 100 100 100 100 100 100 100 100 100 100 100 100 100 100 100 100 100 100 100 100 100 100 100 100 100 100 100 98 99 100 100 100 99 100 100 100 91 95
93 93 95 100 99 98 100 100 100 100 100 100 100 100 100 100 100 100 100 100 100 100 100 100 100 100 100 100 100 100 100 100 100 100 99 98 100 100 100 100 100 100 100 100 100 100 100 100 100 89 83 84 85 99
100 100 14 51 98 100 100 100 100 100 100 100 100 100 100 100 100 100 100 100 100 100 100 100 100 100 100 100 100 100 100 100 100 100 100 100 100 100 100 100 100 100 100 97 28 66 31 33 63 82 83 100 100 100
100 100 74 98 100 100 100 100 100 100 100 100 100 100 100 100 100 100 100 100 100 100 100 100 100 100 100 100 100 100 100 100 100 100 100 100 100 100 100 100 100 100 100 100 100 56 48 77 61 90 98 100 93 90
100 100 100 100 100 100 100 100 100 100 100 100 100 99 100 100 100 100 100 100 100 100 100 100 100 100 100 100 100 100 100 100 100 100 100 100 100 100 100 100 100 100 100 100 100 81 88 98 100 100 100 98 66 77
100 100 98 100 100 100 100 100 100 100 100 100 100 100 100 100 100 100 100 100 100 100 100 100 100 100 100 100 100 100 100 100 100 100 100 100 100 100 100 100 100 100 100 100 100 100 86 90 100 99 100 100 87 20
100 100 100 100 100 100 99 100 100 100 100 100 100 100 100 100 100 100 100 100 100 100 100 100 100 100 100 100 100 100 100 95 49 8 5 31 5 39 100 100 100 100 97 100 100 100 100 99 100 75 85 79 96 85

GFSWCAN_prec_cloud_081.txt.gz
Cloud_Cover
97 20 4 5 44 96 100 100 100 100 100 100 100 97 100 59 100 100 60 61 100 100 84 100 92 92 100 100 26 76 6 13 65 9 9 100 100 100 96 100 35 100 100 100 100 100 99 100 100 100 100 100 100 100
4 17 39 99 100 100 100 100 100 100 100 100 100 100 100 100 100 100 100 78 95 100 100 100 66 100 95 100 46 55 15 20 5 5 5 98 100 95 74 72 17 79 99 100 100 100 100 100 100 100 100 100 98 26
71 100 100 100 84 100 68 100 100 100 100 93 100 100 100 100 100 100 100 100 100 100 100 100 100 100 100 100 100 100 99 98 5 92 9 100 100 93 74 11 62 100 100 100 100 100 100 100 100 100 100 100 100 27
100 100 100 94 100 100 100 100 100 100 100 98 100 100 100 100 100 100 100 100 100 100 100 100 100 100 100 100 100 100 90 73 5 95 100 74 6 0 1 59 66 100 100 100 100 100 100 100 100 100 100 100 98 98
100 39 69 99 89 67 97 100 100 100 100 32 92 100 100 100 100 100 100 100 100 100 100 100 100 100 100 100 93 100 92 83 6 24 89 99 15 4 0 2 100 100 100 100 99 100 100 100 100 100 100 100 100 100
100 100 100 91 6 19 99 100 100 92 7 81 100 100 100 100 100 100 100 100 100 100 100 100 100 100 100 100 78 72 70 94 10 5 12 22 21 39 46 2 100 100 100 100 100 100 100 100 100 100 100 100 100 100
100 100 100 99 99 27 6 55 75 66 100 100 100 100 100 100 100 100 95 100 100 100 100 100 100 55 100 72 94 74 5 6 4 5 15 41 100 98 94 7 100 100 100 100 100 100 100 100 100 100 100 100 100 100
100 100 90 89 100 100 100 100 100 100 100 100 100 100 100 100 100 100 100 100 100 100 100 100 99 96 99 96 100 74 8 5 4 17 81 93 90 19 38 49 100 100 100 100 100 100 100 100 100 100 100 100 100 100
100 100 100 100 100 100 100 100 100 100 100 100 100 100 100 100 100 100 100 100 100 100 100 96 100 100 100 85 75 85 80 56 5 56 100 100 100 100 54 89 100 100 100 100 100 100 100 100 100 100 100 100 100 100
100 100 100 100 100 100 100 100 100 100 100 100 100 100 100 100 100 100 100 100 100 100 98 66 94 74 77 100 99 89 100 81 96 100 100 100 100 100 75 79 100 100 100 100 100 100 100 100 100 100 100 100 100 100
100 100 100 100 100 100 100 100 100 100 100 100 100 100 100 100 100 100 100 100 98 97 100 83 88 91 78 80 69 87 92 71 98 100 100 100 100 100 93 96 100 100 100 100 100 100 100 100 100 100 100 100 100 100
100 100 100 100 100 100 100 100 100 100 100 71 63 100 100 100 100 100 100 100 99 100 94 17 63 74 100 100 100 97 100 100 97 100 100 100 100 100 60 57 100 100 100 100 100 100 100 100 100 100 100 100 100 100
100 100 100 100 100 100 100 100 100 100 100 100 100 99 100 100 100 100 100 100 100 82 92 100 100 100 100 100 100 100 100 100 100 100 98 100 100 100 100 100 100 100 100 100 100 100 100 100 100 100 100 100 100 100
100 100 100 100 100 100 100 100 100 100 100 100 100 100 100 100 100 100 100 100 100 100 100 100 100 100 100 100 100 100 100 100 99 98 100 100 100 100 100 100 100 100 100 100 100 100 100 100 100 97 100 100 100 100
100 100 100 100 100 100 100 100 100 100 100 100 100 100 100 100 100 100 100 100 100 100 100 100 100 100 100 100 100 100 100 100 84 94 94 100 100 100 100 100 100 100 100 100 100 100 100 100 100 100 100 100 100 100
100 100 100 100 100 100 100 100 100 100 100 100 100 95 100 100 100 100 100 100 100 100 100 100 100 100 100 100 100 100 100 100 100 100 100 100 100 100 100 100 100 100 100 100 100 100 100 100 100 100 100 100 100 100
13 98 92 10 91 100 100 100 100 100 100 94 89 100 95 97 100 100 100 100 100 100 100 100 100 100 100 100 100 100 100 100 100 100 100 100 100 100 100 100 100 100 100 100 100 100 100 100 100 100 100 100 100 100
53 20 9 5 40 81 59 26 58 62 32 90 98 100 100 100 100 100 100 100 100 100 100 100 100 100 100 100 100 100 100 100 100 100 100 100 100 100 100 100 100 100 100 100 100 100 100 100 100 100 100 100 100 100
98 95 84 40 5 19 86 55 19 63 95 94 99 99 100 100 100 100 100 100 100 100 100 100 100 100 100 100 100 100 100 100 100 100 100 100 100 100 100 100 100 100 100 100 100 100 100 100 100 100 100 100 100 100
100 100 100 100 100 100 100 76 60 90 100 100 100 100 100 100 100 100 100 100 100 100 100 100 100 100 100 100 100 100 100 100 100 100 100 100 100 100 100 100 100 100 100 100 100 100 100 100 100 100 100 100 100 100
100 100 100 100 100 99 97 89 100 100 100 100 100 100 100 100 100 100 100 100 100 100 100 100 100 100 100 100 100 100 100 100 100 100 100 100 100 100 100 100 100 100 100 100 100 100 100 100 100 100 100 100 100 100
100 100 100 100 100 100 100 100 100 100 100 100 100 100 99 100 100 100 100 100 100 100 100 100 100 100 100 100 100 100 100 100 100 100 100 100 100 100 100 100 100 100 100 100 100 100 100 100 100 94 79 88 78 52
100 100 100 100 100 100 100 100 100 100 100 100 100 100 100 100 100 100 100 100 100 100 100 100 100 100 100 100 100 100 100 100 100 100 100 100 100 100 100 100 100 100 100 100 100 100 100 99 100 84 56 69 38 32
100 100 100 100 100 100 100 100 100 100 100 100 100 100 100 100 100 100 100 100 100 100 100 100 100 100 100 100 100 100 100 100 100 100 100 100 100 100 100 100 100 100 100 99 100 99 85 62 76 97 38 57 27 5
100 100 100 100 100 100 100 100 100 100 100 100 100 100 100 100 100 100 100 100 100 100 100 100 100 100 100 100 100 100 100 100 100 100 100 100 100 100 100 100 100 100 100 100 99 81 62 75 90 70 12 5 11 71
99 92 81 83 93 98 98 100 100 100 100 100 100 100 100 99 100 100 100 100 100 100 100 100 100 100 100 100 100 100 100 100 100 100 100 100 100 100 100 100 99 100 93 84 99 98 100 86 65 73 77 68 29 62
100 100 100 100 100 100 97 97 98 97 71 94 100 99 100 100 100 100 100 100 100 100 100 100 100 100 100 100 100 100 100 100 100 100 100 100 100 100 100 100 100 100 100 100 100 100 100 100 100 99 62 5 22 17
38 6 65 97 88 76 95 100 100 100 100 100 100 100 99 100 100 100 100 100 100 100 100 100 100 100 100 100 100 100 100 100 100 100 100 100 100 100 100 100 100 100 100 100 100 100 100 100 100 82 8 5 56 94
99 68 45 50 38 28 83 98 100 100 95 90 98 99 82 100 100 100 100 100 100 100 100 100 100 100 100 100 100 100 100 100 100 100 100 100 100 100 100 100 100 100 100 100 100 100 100 81 18 48 54 84 100 85
93 15 5 6 82 99 100 99 98 80 5 17 66 94 92 99 100 100 100 100 100 100 100 100 100 100 100 100 100 100 100 100 100 100 100 100 100 100 100 100 100 100 100 100 100 98 69 90 59 20 5 26 46 84
90 16 24 21 98 99 98 53 28 96 64 20 42 32 49 85 97 100 100 100 100 100 100 100 100 100 100 100 100 100 100 100 100 100 100 100 100 100 100 100 100 100 90 81 41 5 63 100 71 92 34 5 5 5
22 33 5 39 78 88 97 100 98 90 73 72 92 63 98 74 92 84 100 100 100 100 100 100 100 100 100 100 100 100 100 100 100 100 100 100 100 100 100 82 76 11 24 13 9 22 5 6 56 18 18 100 95 29
68 29 27 30 71 92 89 100 99 100 100 88 71 84 84 83 96 90 100 99 97 100 100 100 100 100 100 100 100 100 100 100 100 100 96 89 83 94 100 90 84 6 30 84 97 17 22 5 29 86 22 58 85 55

GFSWCAN_prec_cloud_084.txt.gz
Cloud_Cover
100 100 100 97 37 10 5 22 38 50 80 89 99 58 57 51 87 96 100 100 100 100 95 46 58 16 100 100 100 100 100 14 4 5 6 84 68 12 100 100 100 100 100 100 100 100 78 100 100 100 95 100 100 100
45 66 17 87 98 99 100 100 100 100 100 100 100 100 100 86 99 100 100 100 100 100 87 92 47 100 100 100 100 100 94 16 4 5 34 6 8 100 100 100 100 100 40 87 6 28 100 100 100 100 100 100 100 100
100 100 100 100 100 100 100 100 100 100 100 100 100 100 100 100 100 96 100 100 100 100 22 78 92 100 100 100 100 100 87 90 100 6 29 69 6 71 100 100 100 98 99 68 2 22 100 100 100 100 100 100 100 100
100 100 100 87 68 85 100 100 100 100 100 100 100 100 100 100 100 100 100 100 100 100 98 61 88 100 83 100 100 100 100 100 54 90 29 48 68 3 100 100 100 100 98 98 82 100 100 100 100 100 100 100 100 100
100 83 99 100 98 66 42 41 65 99 100 100 100 100 100 100 100 100 100 100 100 40 20 75 73 100 100 95 99 100 100 100 58 89 91 54 5 13 85 100 100 96 22 80 100 100 100 100 100 100 100 100 100 100
96 100 100 50 99 30 87 84 100 100 100 100 100 100 100 100 100 100 100 100 60 99 100 90 95 100 100 100 100 100 100 100 39 100 85 49 84 52 100 37 100 92 100 100 100 100 100 100 100 100 100 100 100 100
100 95 14 69 96 99 98 98 100 100 100 100 100 100 23 100 100 100 100 100 77 73 100 100 100 100 100 100 100 100 100 100 87 89 9 20 84 100 100 97 78 15 11 79 98 100 100 100 100 100 100 100 100 100
100 86 94 100 93 50 99 100 68 90 53 55 93 100 100 100 100 100 100 100 100 100 100 100 100 100 100 100 100 96 45 35 38 27 22 5 72 100 22 2 24 8 23 7 39 100 100 100 100 100 100 100 100 100
100 100 100 92 93 76 100 51 11 73 100 100 100 100 100 100 100 100 100 100 97 100 100 100 100 100 95 70 40 83 14 66 5 70 14 5 26 24 2 99 58 95 4 5 92 100 100 100 100 100 100 100 100 100
100 100 100 100 100 100 100 100 100 100 100 100 100 100 100 100 100 100 100 100 100 100 100 99 92 100 100 100 100 100 54 10 61 60 28 22 5 0 27 100 33 5 5 5 100 100 100 100 100 100 100 100 100 100
100 100 100 100 100 100 100 100 100 100 84 75 100 100 100 100 100 100 100 100 100 100 55 86 100 100 41 100 100 32 87 96 100 13 49 100 90 32 7 74 91 98 9 12 100 100 100 100 100 100 100 100 100 100
100 100 100 100 100 100 100 100 100 100 100 100 81 100 100 100 100 100 88 100 55 28 24 46 89 97 94 71 15 99 100 99 81 14 28 99 100 100 100 99 100 100 99 100 100 100 100 100 100 100 99 100 100 100
100 100 100 100 100 99 100 100 100 99 100 100 100 99 100 92 99 97 100 99 100 100 100 100 100 100 100 100 100 96 100 100 90 96 33 98 100 100 100 100 100 100 95 100 100 100 100 100 100 100 100 100 100 100
100 100 100 100 100 100 100 100 100 100 100 100 100 100 100 100 100 100 100 100 100 100 100 100 100 100 100 100 100 100 57 98 100 100 100 100 100 100 100 100 100 94 100 100 100 100 100 100 100 100 100 100 100 100
100 100 100 100 100 100 100 100 100 100 100 100 100 100 100 100 100 100 100 100 100 100 100 100 100 100 100 100 100 100 100 100 100 53 99 100 100 100 100 100 100 100 100 100 100 100 100 100 100 100 100 100 100 100
100 100 100 100 100 100 100 100 100 100 100 100 100 100 100 100 100 100 100 100 100 100 100 100 100 100 100 100 100 100 100 100 100 98 100 100 100 100 100 100 100 100 100 100 100 100 100 100 100 100 100 100 100 100
60 100 100 100 100 100 100 100 100 100 100 100 100 100 99 98 100 100 78 100 100 100 100 100 100 100 100 100 100 100 100 99 97 99 94 100 100 100 100 100 100 100 100 100 100 100 100 100 100 100 100 100 100 100
95 84 89 99 72 88 100 100 100 100 100 100 96 100 100 91 89 85 100 100 100 100 100 100 100 100 100 100 100 100 100 100 100 100 100 100 100 100 100 100 100 100 100 100 100 100 100 100 100 100 100 100 100 100
43 26 73 27 27 34 30 49 38 56 92 79 99 100 100 100 100 100 100 100 100 100 100 100 100 100 100 100 100 100 100 100 100 100 100 100 100 100 100 100 100 100 100 100 100 100 100 100 100 100 100 100 100 100
66 27 16 37 9 29 6 76 5 6 79 85 97 98 100 100 100 100 100 100 100 100 100 100 100 100 100 100 100 100 100 100 100 100 100 100 100 100 100 100 100 100 100 100 100 100 100 100 100 100 100 100 100 100
100 54 47 100 100 100 94 71 76 84 100 92 100 100 100 100 100 100 100 100 100 100 100 100 100 100 100 100 100 100 100 100 100 100 100 100 100 100 100 100 100 100 100 100 100 100 100 100 100 100 100 100 100 100
100 100 100 97 100 100 98 100 100 100 100 100 100 100 100 100 100 100 100 100 100 100 100 100 100 100 100 100 100 100 100 100 100 100 100 100 100 100 100 100 100 100 100 100 100 100 100 100 100 100 100 100 100 100
100 100 100 100 100 100 100 100 100 100 100 100 100 100 100 100 100 100 100 100 100 100 100 100 100 100 100 100 100 100 100 100 100 100 100 100 100 100 100 100 100 100 100 100 100 100 100 100 100 100 100 100 100 97
100 100 100 100 100 100 100 100 100 100 100 100 100 100 100 100 100 100 100 100 100 100 100 100 100 100 100 100 100 100 100 100 100 100 100 100 100 100 100 100 100 100 99 99 94 96 100 100 100 93 87 79 64 59
100 100 100 100 100 100 100 100 100 100 100 100 100 100 100 100 100 100 100 100 100 100 100 100 100 100 100 100 100 100 100 100 100 100 100 100 100 100 100 100 100 100 100 97 95 96 100 100 100 100 100 88 63 99
100 100 100 100 100 100 100 100 100 100 100 100 100 100 98 100 100 100 100 100 100 100 100 100 100 100 100 100 100 100 100 100 100 100 100 100 100 100 100 100 100 100 100 100 100 100 99 93 85 84 98 100 69 11
100 100 100 100 100 100 100 100 100 100 100 100 100 100 100 100 100 100 98 100 100 100 100 100 100 100 100 100 100 100 100 100 100 100 100 100 100 100 100 100 100 100 100 100 100 100 100 100 100 100 85 87 79 10
100 100 100 100 100 100 97 85 98 100 100 99 93 97 96 100 100 100 100 100 100 100 100 100 100 100 100 100 100 100 100 100 100 100 100 100 100 100 100 100 100 100 100 100 100 100 100 95 65 23 19 57 56 63
78 13 37 74 60 39 92 97 99 77 95 100 63 95 98 94 99 95 100 97 98 97 89 100 100 100 100 100 100 100 100 100 100 100 100 100 100 100 100 100 100 100 100 100 97 100 97 64 43 6 20 17 55 61
17 6 5 48 63 100 100 84 79 53 28 77 82 100 96 100 100 100 98 100 100 100 100 100 100 100 100 100 100 100 100 100 100 100 100 100 100 100 100 100 100 100 100 100 98 71 49 33 67 78 85 96 95 100
28 5 5 39 100 100 100 63 23 5 5 16 63 52 87 99 98 100 98 100 100 100 100 100 100 100 100 100 100 100 100 100 100 100 100 100 100 100 100 100 100 93 76 72 54 37 73 91 72 63 5 5 33 60
5 5 32 76 99 100 100 98 83 81 98 96 93 85 98 59 89 78 94 93 100 99 100 100 100 100 100 100 100 100 100 100 100 100 100 100 100 100 100 100 100 100 96 18 5 44 96 74 88 92 78 68 63 21
28 26 68 79 81 100 91 100 62 98 98 98 100 100 97 66 90 86 94 100 92 100 100 100 99 100 100 100 100 100 100 100 100 100 100 100 100 100 100 79 21 13 56 79 16 6 5 9 5 56 62 74 82 63

GFSWCAN_prec_cloud_087.txt.gz
Cloud_Cover
100 100 100 100 100 100 100 100 100 100 100 100 100 100 100 100 100 100 100 100 100 100 100 100 100 100 100 98 87 100 100 80 86 88 91 42 99 9 11 99 100 100 100 100 100 100 95 100 42 7 27 100 100 100
100 100 100 100 100 100 99 99 100 100 100 100 100 100 99 100 100 100 100 100 100 100 100 93 93 100 90 100 100 100 100 98 98 41 32 5 49 16 4 60 46 100 100 100 100 100 59 83 49 98 96 92 100 100
100 99 76 100 100 100 100 100 100 100 100 100 97 98 69 99 70 47 100 100 100 100 100 100 79 56 83 100 100 98 43 95 100 84 96 74 19 5 2 3 36 100 100 100 100 100 100 86 98 94 100 100 100 100
100 100 100 100 100 100 100 92 80 99 100 100 100 100 100 100 100 100 100 100 100 100 100 82 70 80 99 100 100 100 100 100 100 100 94 96 78 17 9 0 68 100 100 100 96 100 100 100 100 90 100 100 100 100
100 100 100 93 100 91 90 78 99 98 100 100 100 100 100 100 100 100 100 100 99 56 34 34 95 100 100 100 100 99 100 100 100 100 100 89 63 5 2 23 85 100 100 100 100 100 91 100 100 100 100 100 100 100
100 100 100 97 100 80 86 96 94 68 98 100 100 100 100 100 100 100 100 100 100 100 97 73 6 0 40 100 100 100 100 100 100 71 79 94 6 88 87 11 59 100 100 99 100 100 55 64 100 100 100 100 100 100
100 98 40 100 100 100 100 79 51 100 99 100 100 100 100 100 100 100 91 99 100 100 100 100 99 19 100 100 96 100 100 100 100 100 100 77 19 67 78 87 17 100 94 96 8 5 42 64 100 100 100 100 100 100
100 95 97 97 100 100 100 100 100 100 100 100 100 100 100 100 100 100 100 100 100 100 100 98 100 100 98 100 100 100 100 100 100 100 100 57 6 5 13 92 100 100 93 9 0 2 7 98 100 100 100 100 100 100
100 100 92 89 100 80 100 100 99 100 100 100 100 100 100 100 100 100 100 100 100 100 96 100 100 100 100 100 100 100 100 100 100 99 40 15 99 59 0 72 100 100 99 6 5 56 4 99 100 100 100 100 100 100
100 100 100 100 100 87 56 82 100 100 100 100 100 100 100 100 100 100 100 100 100 100 100 100 100 100 100 100 100 100 92 100 100 74 14 100 10 4 0 1 99 100 100 100 67 86 100 100 100 100 100 100 100 100
100 100 100 100 96 100 100 100 100 100 100 100 100 100 100 100 100 100 100 100 100 100 100 100 100 100 100 100 100 99 98 99 71 89 98 79 93 19 13 20 74 100 100 60 100 42 100 100 100 100 100 100 100 100
100 100 100 100 100 100 100 100 100 100 98 100 100 100 100 100 100 100 100 100 84 60 96 100 100 100 100 100 81 97 100 99 81 65 93 100 43 87 100 100 100 100 99 34 11 14 95 100 100 100 100 100 100 100
100 100 100 100 100 100 100 100 100 100 100 100 83 67 100 100 100 100 100 100 78 39 97 100 100 100 100 100 90 100 100 71 87 100 70 78 100 100 100 100 100 100 100 97 97 100 98 100 100 100 100 100 100 100
100 100 100 98 100 100 100 100 100 100 100 100 100 100 100 100 100 100 100 100 100 100 97 93 100 100 100 100 100 100 100 99 100 100 75 100 100 100 100 100 100 100 98 100 100 100 100 100 100 100 100 100 100 100
100 100 100 100 100 100 100 100 100 100 100 100 100 100 100 100 100 100 100 100 100 100 100 100 100 97 100 98 100 95 100 100 99 76 100 100 100 100 100 100 100 100 100 100 100 100 100 100 100 100 100 100 100 100
100 98 100 100 100 100 100 100 100 100 100 100 100 100 100 100 100 100 100 100 100 100 100 100 100 100 100 100 100 100 100 100 100 99 100 100 100 100 100 100 100 100 100 100 100 100 100 100 100 100 100 100 100 100
100 100 100 100 100 100 100 92 100 100 100 100 100 100 100 100 100 100 100 100 100 100 100 100 100 100 100 100 100 100 100 100 94 96 100 100 100 100 100 100 100 100 100 100 100 100 100 100 100 100 100 100 100 100
100 100 95 100 100 100 100 97 100 100 100 100 100 100 100 100 100 100 100 100 100 100 100 100 100 100 100 100 100 100 100 100 100 100 100 100 100 100 100 100 100 100 100 100 100 100 100 100 100 100 100 100 100 100
85 97 100 98 99 98 65 87 99 70 91 93 100 100 100 100 100 100 100 100 100 100 100 100 100 100 100 100 100 100 100 100 100 100 100 100 100 100 100 100 100 100 100 100 100 100 100 100 100 100 100 100 100 100
40 66 32 42 99 100 100 83 77 9 91 84 83 99 100 100 100 100 100 100 100 100 100 100 100 100 100 100 100 100 100 100 100 100 100 100 100 100 100 100 100 100 100 100 100 100 100 100 100 100 100 100 100 100
5 41 24 5 6 28 100 60 99 36 87 72 100 98 100 100 100 100 100 100 100 100 100 100 100 100 100 100 100 100 100 100 100 100 100 100 100 100 100 100 100 100 100 100 100 100 100 100 100 100 100 100 100 100
99 99 100 100 99 78 99 94 88 87 86 94 100 100 100 100 100 100 100 100 100 100 100 100 100 100 100 100 100 100 100 100 100 100 100 100 100 100 100 100 100 100 100 100 100 100 100 100 100 100 100 100 100 100
100 100 100 100 100 99 100 100 100 100 100 100 100 100 100 100 100 100 100 100 100 100 100 100 100 100 100 100 100 100 100 100 100 100 100 100 100 100 100 100 100 100 100 100 100 100 100 100 100 100 100 100 100 100
100 100 100 100 100 100 100 100 100 100 100 100 100 100 100 100 100 100 100 100 100 100 100 100 100 100 100 100 100 100 100 100 100 100 100 100 100 100 100 100 100 100 100 100 100 100 100 100 100 100 100 100 100 100
100 100 100 100 100 100 100 100 100 100 100 100 100 100 100 100 100 100 100 100 100 100 100 100 100 100 100 100 100 100 100 100 100 100 100 100 100 100 100 100 100 100 100 100 100 100 100 100 100 99 98 84 93 82
100 100 100 100 100 100 100 100 100 100 100 100 99 100 100 100 100 100 100 100 100 100 100 100 100 100 100 100 100 100 100 100 100 100 100 100 100 100 100 100 95 93 96 100 96 91 80 77 88 98 100 92 57 92
100 100 100 100 100 100 100 100 99 92 83 100 96 94 92 100 99 100 100 100 100 100 100 100 100 100 100 100 100 100 100 100 100 100 100 100 100 100 100 100 100 100 100 100 100 100 100 100 100 95 100 89 52 6
100 100 100 100 100 100 100 100 100 100 100 100 100 97 100 94 100 100 100 100 100 100 100 100 100 100 100 100 100 100 100 100 100 100 100 100 100 100 100 100 100 100 100 100 100 100 100 87 34 22 35 81 98 58
94 98 79 62 52 86 100 99 100 100 100 99 91 100 100 98 100 99 100 100 100 100 100 100 100 100 100 100 100 100 100 100 100 100 100 100 100 100 100 100 100 100 100 98 84 59 47 50 16 5 28 56 88 86
5 18 10 49 82 100 99 90 97 99 92 89 90 99 90 100 100 95 84 86 99 100 100 100 100 100 100 100 100 100 100 100 100 100 100 100 100 100 100 100 100 99 100 100 97 99 93 91 63 71 86 91 100 94
19 5 29 39 100 78 10 66 31 6 7 6 32 56 91 99 99 100 100 100 100 100 100 100 100 100 100 100 100 100 100 100 100 100 100 100 100 100 100 100 100 100 100 99 74 97 100 96 68 26 32 77 91 99
5 40 56 89 100 100 99 70 30 26 56 53 45 79 81 31 93 96 100 100 100 100 95 89 96 96 98 100 100 100 100 100 100 100 100 100 100 100 100 100 100 100 100 100 100 91 68 87 100 97 83 64 61 55
68 19 63 92 99 100 90 100 100 93 100 96 99 91 88 27 91 98 100 95 91 86 90 99 100 100 100 100 100 100 100 100 100 100 100 100 100 100 100 100 100 100 93 78 60 52 65 54 77 67 96 92 85 96

GFSWCAN_prec_cloud_090.txt.gz
Cloud_Cover
100 100 100 100 100 100 100 100 100 100 100 100 100 100 100 100 100 100 100 100 100 100 100 100 100 100 100 100 100 100 100 96 100 100 97 48 56 13 41 2 0 29 100 100 100 100 100 100 100 100 90 78 77 27
100 100 100 100 100 100 100 100 100 100 100 100 100 100 100 100 100 100 100 100 100 100 100 100 100 100 100 100 100 100 38 99 100 100 83 63 69 17 14 32 0 19 100 100 100 100 100 100 100 100 100 100 88 42
100 100 100 100 100 100 100 100 100 100 100 100 100 100 100 100 100 100 100 100 100 100 100 100 100 100 100 100 100 100 94 93 100 100 100 79 58 60 41 5 5 2 100 100 100 100 100 100 100 88 77 16 52 99
100 100 100 100 100 100 100 100 100 100 100 100 100 100 100 100 100 100 100 100 100 100 100 100 100 100 100 100 100 100 100 100 100 100 100 100 100 91 5 12 4 8 96 100 100 100 100 100 48 8 32 34 98 92
100 100 100 100 100 100 95 98 100 100 100 100 100 100 100 100 100 100 100 100 100 100 100 92 73 100 100 100 100 100 100 100 100 100 100 100 100 74 5 5 2 0 2 99 100 100 100 100 99 100 23 74 100 87
100 100 100 100 100 100 100 100 100 100 94 100 100 100 100 100 100 100 100 100 100 100 100 97 79 90 100 100 100 94 86 100 100 100 100 90 6 77 95 20 33 1 2 45 100 100 100 50 5 17 18 80 81 93
100 100 99 96 100 100 100 100 100 100 100 84 100 100 100 100 100 100 90 73 100 100 100 100 45 16 43 76 94 100 99 20 100 100 89 25 16 86 32 8 98 3 0 69 100 100 100 100 5 62 63 100 100 90
100 89 99 84 100 100 94 98 12 69 100 73 56 100 100 100 100 100 100 100 100 100 100 100 52 95 45 10 8 96 100 100 100 100 100 100 81 89 99 38 100 1 0 0 89 100 100 82 19 97 100 97 100 100
99 100 90 100 96 75 100 100 100 99 100 68 89 100 100 100 100 100 100 100 100 100 100 100 100 99 99 20 71 100 100 100 100 100 100 100 91 94 79 100 23 0 0 17 6 94 100 100 96 100 100 100 100 100
100 100 100 100 100 91 100 100 100 100 100 100 100 100 100 100 100 100 100 100 100 100 93 100 100 100 100 100 100 100 100 100 100 100 100 100 34 8 93 100 26 5 3 100 99 100 100 100 100 100 100 100 100 100
100 100 100 100 100 100 100 100 100 100 100 100 100 100 100 100 100 100 100 94 95 100 100 100 100 100 100 100 100 100 100 98 100 100 77 92 77 13 74 65 28 6 5 100 100 100 100 100 98 100 100 100 100 100
100 100 100 100 100 100 100 100 100 100 100 100 100 100 100 100 100 100 100 100 100 100 100 100 100 99 100 100 100 100 100 100 92 91 94 100 23 93 100 100 100 94 21 68 100 100 100 100 91 100 100 100 100 100
100 100 100 100 100 100 100 100 100 100 100 100 100 100 100 100 95 84 99 100 100 100 100 100 100 100 100 100 100 100 100 70 88 100 100 100 100 100 100 100 100 100 100 100 100 100 100 100 99 84 100 100 100 100
100 100 100 100 100 100 100 100 100 99 100 100 96 17 88 62 96 100 99 100 100 100 100 95 100 100 100 100 100 100 99 98 100 100 95 100 100 100 100 100 100 100 100 100 100 100 100 100 100 100 100 100 100 100
100 100 100 100 100 100 100 100 100 100 100 100 94 91 58 96 100 100 97 100 100 100 100 100 100 100 100 100 100 100 100 99 100 92 99 89 100 100 100 100 100 100 100 100 100 100 100 100 100 100 100 100 100 100
100 100 100 100 100 100 100 100 100 100 100 100 100 100 100 99 100 100 100 100 100 100 100 100 100 100 100 100 100 100 99 100 100 99 100 96 100 100 100 100 100 100 100 100 100 100 100 100 100 100 100 100 100 100
90 84 100 100 100 100 100 100 100 100 100 100 100 100 100 100 100 100 100 100 100 100 100 100 100 100 100 100 100 100 100 100 100 100 91 90 100 100 100 100 100 100 100 100 100 100 100 100 100 100 100 100 100 100
93 83 100 99 100 100 100 100 100 100 100 100 100 100 100 100 100 100 100 100 100 100 100 100 100 100 100 100 100 100 100 100 95 99 100 100 100 100 100 100 100 100 100 100 100 100 100 100 100 100 100 100 100 100
100 100 100 100 100 100 100 100 100 100 100 100 100 100 100 100 100 100 100 100 100 100 100 100 100 100 100 100 100 100 100 100 100 100 100 100 100 100 100 100 100 100 100 100 100 100 100 100 100 100 100 100 100 100
22 99 69 100 99 66 94 86 100 100 100 100 100 100 100 100 100 100 100 100 100 100 100 100 100 100 100 100 100 100 96 100 96 90 100 100 100 100 100 100 100 100 100 100 100 100 100 100 100 100 100 100 100 100
5 5 27 48 85 71 77 82 67 100 100 100 98 100 100 100 100 100 100 100 100 100 100 100 100 100 100 100 100 100 100 100 100 100 100 100 100 100 100 100 100 100 100 100 100 100 100 100 100 100 100 100 100 100
19 5 7 5 42 93 95 79 93 62 97 100 99 100 100 100 100 100 100 100 100 100 100 100 100 100 100 100 100 100 100 100 100 100 100 100 100 100 100 100 100 100 100 100 100 100 100 100 100 100 100 100 100 100
100 100 99 90 96 58 99 99 76 100 100 100 100 100 100 100 100 100 100 100 100 100 100 100 100 100 100 100 100 100 100 100 100 100 100 100 100 100 100 100 100 100 100 100 100 100 100 100 100 100 100 100 100 100
100 100 100 100 100 100 100 100 100 100 100 100 100 100 100 100 100 100 100 100 100 100 100 100 100 100 100 100 100 100 100 100 100 100 100 100 100 100 100 100 100 100 100 100 100 100 100 100 100 100 100 100 100 100
100 100 100 100 100 100 100 100 100 100 100 100 100 100 100 100 100 100 100 100 100 100 100 100 100 100 100 100 100 100 100 100 100 100 100 100 100 100 100 100 100 100 100 100 100 100 100 100 100 100 100 100 100 100
100 100 100 100 100 100 100 100 100 100 100 100 100 100 100 100 100 100 100 100 100 100 100 100 100 100 100 100 100 100 100 100 100 100 100 100 100 100 100 100 100 100 100 100 100 100 100 100 100 100 100 100 100 100
100 100 100 100 100 100 100 100 100 100 100 100 100 100 100 100 100 100 100 100 100 100 100 100 100 100 100 100 100 100 100 100 100 100 100 100 100 100 100 100 100 100 100 100 100 100 100 100 100 100 100 100 100 81
100 100 87 72 76 92 60 82 99 100 100 100 100 100 100 100 100 100 100 100 100 100 100 100 100 100 100 100 100 100 100 100 100 100 100 100 100 100 100 100 100 100 100 100 100 100 100 100 100 100 100 98 100 94
88 88 95 99 99 100 100 100 100 100 100 94 55 99 96 96 100 97 98 96 100 98 100 100 100 100 100 100 100 100 100 100 100 100 100 100 100 100 100 100 100 100 100 100 100 100 100 100 100 100 85 74 91 71
24 27 35 50 63 100 100 100 93 100 100 93 95 100 94 100 100 100 100 100 100 100 100 100 100 100 100 100 100 100 100 100 100 100 100 100 100 100 100 100 100 100 100 100 100 100 100 100 98 76 86 100 94 72
31 28 32 17 98 99 93 74 62 45 8 33 83 87 88 98 95 94 97 100 100 100 100 100 100 100 100 100 100 100 100 100 100 100 100 100 100 100 100 100 100 100 100 100 100 100 100 100 100 100 100 100 100 100
18 62 56 74 100 100 99 58 48 52 96 82 91 90 41 56 93 75 96 100 100 100 100 100 100 100 100 100 100 100 100 100 100 100 100 100 100 100 100 100 100 100 100 100 100 100 83 66 89 61 51 60 64 57
80 37 80 93 95 100 80 95 91 88 90 96 99 100 100 34 92 96 95 85 78 77 79 94 68 73 87 97 100 100 100 100 100 100 100 100 100 100 100 100 100 100 97 94 87 92 98 99 100 100 100 100 100 91

GFSWCAN_prec_cloud_093.txt.gz
Cloud_Cover
100 100 100 100 100 100 100 92 73 61 86 100 100 100 100 100 100 100 100 100 100 100 100 100 100 100 100 100 100 100 100 98 100 100 100 100 100 30 31 5 5 25 95 100 89 100 99 100 98 100 100 100 100 92
100 100 100 100 100 100 100 100 100 100 100 100 100 100 100 100 100 100 100 100 100 100 100 100 100 100 100 100 100 100 85 100 100 100 100 100 100 62 86 79 5 0 5 100 100 100 100 100 100 100 100 100 100 99
100 100 100 100 100 100 100 100 100 100 100 100 100 100 100 100 100 100 100 100 100 100 100 100 100 100 100 100 100 99 77 100 100 100 100 100 99 100 99 60 5 2 2 100 100 100 100 100 100 99 100 100 100 100
100 100 100 100 100 100 100 100 100 100 100 100 100 100 100 100 100 100 100 100 100 100 100 100 100 100 100 100 100 100 100 100 88 100 100 100 100 100 82 80 5 3 4 100 100 100 100 100 100 100 100 100 100 98
100 100 100 100 100 100 100 100 100 100 100 100 100 100 100 100 100 100 100 100 100 100 100 100 100 100 100 100 100 100 100 100 100 100 100 100 81 93 89 94 98 18 1 97 100 100 100 100 100 100 99 100 99 83
100 100 100 100 100 100 100 100 92 95 100 100 100 100 100 100 100 100 100 100 100 100 100 100 100 100 100 100 100 100 100 100 100 100 100 51 54 62 55 51 84 4 0 1 100 100 100 100 99 50 100 61 90 89
100 100 100 97 56 93 100 100 100 100 100 100 100 100 100 100 100 100 100 100 100 100 100 100 100 100 100 100 100 100 100 100 100 100 100 92 82 93 100 94 100 5 3 5 74 100 100 100 100 100 99 100 97 97
100 100 98 98 99 80 46 99 100 100 100 100 100 100 100 100 100 100 100 100 100 100 100 100 56 86 24 28 26 95 100 100 100 100 100 100 97 100 100 100 100 37 1 0 0 99 100 100 100 100 100 90 98 60
100 97 100 100 100 78 48 6 42 58 100 100 98 100 100 100 100 100 100 100 100 99 100 95 49 84 100 100 85 85 8 97 90 100 86 81 90 96 100 100 100 93 1 0 0 0 36 100 100 100 100 100 100 100
100 100 100 95 100 100 97 65 53 54 100 100 100 100 100 100 100 100 100 100 100 100 99 76 61 87 100 99 55 100 93 100 100 90 100 100 27 4 15 100 100 85 5 0 0 0 0 0 91 100 100 100 100 100
100 100 100 100 100 100 100 100 100 100 100 100 100 100 100 100 100 100 100 100 97 99 100 76 68 100 100 100 100 100 100 99 100 66 89 62 31 6 46 12 100 68 4 0 0 0 2 13 100 100 100 100 100 100
100 100 59 99 100 100 100 100 100 100 100 100 100 100 100 100 100 100 95 100 100 61 99 100 100 100 100 100 100 100 75 100 100 63 98 54 14 84 77 96 100 100 78 5 5 5 24 99 100 100 100 100 100 100
100 100 100 100 100 98 100 100 100 100 100 100 100 100 100 100 86 78 100 99 96 97 100 100 100 100 100 100 98 100 100 95 100 100 83 34 100 100 99 100 100 100 100 100 82 22 35 100 100 100 100 100 100 100
100 100 100 100 100 100 100 100 100 100 100 100 100 70 100 100 97 94 100 89 96 100 100 100 100 100 100 100 100 100 100 99 100 100 86 100 100 100 100 100 100 100 100 100 100 100 98 100 100 100 100 100 100 100
100 100 100 100 100 100 100 100 100 100 100 100 100 100 100 100 100 95 99 96 100 100 100 100 100 100 100 100 100 100 100 100 100 100 100 100 100 100 100 100 100 100 100 100 100 100 100 100 100 100 100 100 100 100
100 100 100 100 100 100 100 100 100 100 100 98 44 100 91 99 99 100 100 100 100 100 100 100 100 100 100 100 100 100 100 100 100 100 100 100 100 100 100 100 100 100 100 100 100 100 100 100 100 100 100 100 100 100
100 100 100 100 100 100 100 100 100 100 100 97 80 96 98 98 96 100 100 100 100 100 100 100 100 100 100 100 100 100 100 100 100 100 100 91 96 100 100 100 100 100 100 100 100 100 100 100 100 100 100 100 100 100
83 100 100 100 100 100 100 100 100 100 100 100 100 100 100 100 100 100 100 100 100 100 100 100 100 100 100 100 100 100 100 100 100 100 100 100 100 97 100 100 100 99 100 100 100 100 100 100 100 100 100 100 100 100
100 100 100 100 100 100 100 100 100 100 100 100 100 100 100 100 100 100 100 100 100 100 100 100 100 100 100 100 100 100 100 100 100 100 100 100 100 100 100 100 100 100 100 100 100 100 100 100 100 100 100 100 100 100
100 100 100 100 100 100 100 100 100 100 100 100 100 100 100 100 100 100 100 100 100 100 100 100 100 100 100 100 100 100 100 100 100 100 100 100 100 100 100 100 100 100 100 100 100 100 100 100 100 100 100 100 100 100
100 100 100 100 100 100 100 100 100 100 100 100 100 100 100 100 100 100 100 100 100 100 100 100 100 100 100 100 100 100 100 100 100 100 100 100 100 100 100 100 100 100 100 100 100 100 100 100 100 100 100 100 100 100
40 64 55 48 72 61 100 100 98 99 100 100 100 100 100 100 100 100 100 100 100 100 100 100 100 100 100 100 100 100 100 100 100 100 100 100 100 100 100 100 100 100 100 100 100 100 100 100 100 100 100 100 100 100
5 40 64 79 95 88 100 100 79 99 92 100 100 100 100 100 100 100 100 100 100 100 100 100 100 100 100 100 100 100 100 100 100 100 100 100 100 100 100 100 100 100 100 100 100 100 100 100 100 100 100 100 100 100
100 94 88 98 86 87 74 80 88 98 100 100 100 100 100 100 100 100 100 100 100 100 100 100 100 100 100 100 100 100 100 100 100 100 100 100 100 100 100 100 100 100 100 100 100 100 100 100 100 100 100 100 100 100
100 89 94 100 100 100 100 100 100 100 100 100 100 100 100 100 100 100 100 100 100 100 100 100 100 100 100 100 100 100 100 100 100 100 100 100 100 100 100 100 100 100 100 100 100 100 100 100 100 100 100 100 100 100
100 100 100 100 100 100 100 100 100 100 100 100 100 100 100 100 100 100 100 100 100 100 100 100 100 100 100 100 100 100 100 100 100 100 100 100 100 100 100 100 100 100 100 100 100 100 100 100 100 100 100 100 100 100
100 100 100 100 100 100 100 100 100 100 100 100 100 100 100 100 100 100 100 100 100 100 100 100 100 100 100 100 100 100 100 100 100 100 100 100 100 100 100 100 100 100 100 100 100 100 100 100 100 100 100 100 100 100
100 100 100 100 100 99 98 94 100 100 100 100 100 100 100 96 100 100 100 100 100 100 100 100 100 100 100 100 100 100 100 100 100 100 100 100 100 100 100 100 100 100 100 100 100 100 100 100 100 100 100 100 100 100
100 100 99 100 100 100 100 97 100 94 100 87 59 96 98 99 100 100 100 100 100 100 100 100 100 100 100 100 100 100 100 100 100 100 100 100 100 100 100 100 100 100 100 100 100 100 100 100 100 100 100 95 70 60
74 82 90 92 95 100 100 100 99 100 100 97 94 99 87 99 100 100 100 100 100 100 100 100 100 100 100 100 100 100 100 100 100 100 100 100 100 100 100 100 100 100 100 100 100 100 100 100 100 100 100 94 88 77
26 15 30 16 91 100 97 76 40 54 8 43 49 56 94 99 99 95 93 100 100 100 100 100 100 100 100 100 100 100 100 100 100 100 100 100 100 100 100 100 100 100 100 100 100 100 100 100 99 83 82 93 99 97
36 76 48 74 100 68 80 55 77 80 94 69 72 76 23 11 86 78 94 90 91 88 89 91 93 100 96 97 100 100 100 100 100 100 100 100 100 100 100 100 100 100 100 100 100 100 100 100 100 100 100 97 57 65
82 65 81 94 99 99 96 90 93 94 93 99 96 100 100 33 89 99 98 91 85 92 99 99 99 98 97 100 98 100 100 100 100 100 100 100 100 100 100 100 100 100 100 100 100 100 100 100 100 100 100 90 94 91

GFSWCAN_prec_cloud_096.txt.gz
Cloud_Cover
100 100 100 100 100 100 100 100 96 73 29 74 81 5 89 100 100 100 100 100 100 100 100 100 100 100 100 100 100 100 100 100 100 100 100 100 100 100 94 63 92 50 80 96 99 100 90 15 16 90 89 19 57 17
100 100 100 100 100 100 100 100 100 98 94 27 5 86 100 100 100 100 100 100 100 100 100 100 100 100 100 100 100 100 100 100 100 100 100 100 100 100 100 98 65 79 32 94 60 62 73 30 100 100 98 100 100 12
100 100 100 100 100 100 100 100 100 100 94 97 100 100 100 100 100 100 100 100 100 100 100 100 100 100 100 100 100 100 100 100 100 100 100 100 100 100 100 88 99 100 79 53 100 100 100 100 100 100 100 100 100 100
100 100 100 100 100 100 100 100 100 100 100 100 100 100 100 100 100 100 100 100 100 100 100 100 100 100 100 93 88 100 100 100 100 100 100 100 100 100 100 100 86 100 100 99 100 100 100 100 100 100 100 100 100 100
100 100 100 100 100 100 100 100 100 100 100 100 100 100 100 100 100 100 100 100 100 100 100 100 100 100 100 100 100 100 100 100 100 100 100 100 100 100 100 92 52 47 41 95 100 100 100 100 100 100 100 100 100 100
100 100 100 100 100 91 83 100 100 100 100 100 100 100 100 100 100 100 100 100 100 100 100 100 100 100 100 100 100 98 100 100 100 100 100 100 100 100 100 100 51 13 5 13 9 100 100 100 100 100 66 94 100 100
100 100 94 47 94 100 84 91 99 100 100 100 100 100 100 100 100 100 100 100 100 100 100 100 100 100 100 100 100 100 100 100 100 100 100 100 97 98 92 100 96 5 5 70 6 78 100 100 100 79 96 100 100 100
100 99 100 99 90 85 83 100 100 100 100 100 100 100 100 100 100 100 100 100 100 100 100 100 100 100 100 100 100 100 100 100 100 100 100 100 87 95 100 100 100 11 5 9 24 37 39 100 100 90 92 100 99 89
100 100 100 21 59 89 25 7 81 100 100 100 100 100 100 100 100 100 100 100 100 100 100 100 100 100 100 100 100 100 93 100 76 99 91 95 100 99 100 100 100 43 5 10 75 10 5 14 100 100 100 93 74 98
100 99 21 100 99 97 72 90 53 100 100 100 100 100 100 100 100 100 100 100 100 100 83 93 100 100 55 100 100 88 84 90 90 24 76 100 51 61 92 100 100 92 5 5 5 5 3 5 0 58 100 100 100 98
100 97 97 99 100 100 96 66 98 100 100 100 100 100 100 100 100 100 100 100 100 100 100 100 81 28 89 88 99 92 99 89 72 87 71 48 6 12 28 73 100 97 55 5 5 0 0 0 0 0 40 100 100 100
100 100 100 100 100 100 100 100 100 100 100 100 100 100 100 100 100 100 100 100 100 100 100 100 76 70 100 78 98 100 100 100 89 81 99 49 99 100 93 97 79 79 90 100 58 0 1 0 0 0 18 83 100 100
100 100 100 100 100 100 100 100 100 100 98 100 100 100 100 96 84 89 100 98 100 93 100 100 99 100 100 88 98 100 100 84 55 99 86 82 100 100 100 96 100 100 100 100 100 100 30 28 46 49 65 100 100 100
100 100 97 100 100 100 100 100 100 100 100 100 100 100 69 80 98 100 96 100 98 98 100 100 100 98 88 99 75 98 100 100 100 100 100 100 100 100 100 100 100 100 100 100 100 100 100 100 100 100 100 100 99 100
100 100 100 100 100 100 100 100 100 100 100 100 96 87 100 100 100 100 100 100 98 100 100 100 100 100 100 100 100 100 92 100 100 100 100 100 100 100 100 100 100 100 100 100 100 100 100 100 100 100 100 100 100 100
100 100 100 100 100 93 99 74 100 100 100 100 100 100 99 100 100 100 100 100 100 100 100 100 100 100 100 100 100 100 100 100 100 100 100 100 100 100 100 100 100 100 100 100 100 100 100 100 100 100 100 100 100 100
100 100 100 100 100 100 100 100 94 56 62 81 100 100 100 100 100 100 100 100 99 100 100 100 100 100 100 100 100 100 100 100 100 100 100 100 100 100 100 100 100 100 100 100 100 100 100 100 100 100 100 100 100 100
100 100 100 100 100 100 100 100 100 100 100 100 99 100 100 100 100 100 100 100 100 100 100 100 98 100 100 100 100 100 100 100 100 100 100 100 100 100 99 100 100 100 100 100 100 100 100 100 100 100 100 100 100 100
100 99 100 100 100 100 100 100 96 96 100 99 100 100 100 100 100 100 100 100 100 100 100 100 100 100 100 100 100 100 100 100 100 100 100 100 100 100 100 100 100 100 100 100 100 100 100 100 100 100 100 100 100 100
100 100 100 100 100 100 99 100 99 99 100 100 100 100 100 100 100 100 100 100 100 100 100 100 100 100 100 100 100 100 100 100 100 100 100 100 100 100 100 100 100 100 100 100 100 100 100 100 100 100 100 100 100 100
100 100 100 100 100 100 100 100 100 100 100 100 100 100 100 100 100 100 100 100 100 100 100 100 100 100 100 100 100 100 100 100 100 100 100 100 100 100 100 100 100 100 100 100 100 100 100 100 100 100 100 100 100 100
100 96 99 100 100 86 99 100 100 100 100 100 100 100 100 100 100 100 100 100 100 100 100 100 100 100 100 100 100 100 100 100 100 100 100 100 100 100 100 100 100 100 100 100 100 100 100 100 100 100 100 100 100 100
64 76 80 88 80 74 100 93 100 100 100 100 100 100 100 100 100 100 100 100 100 100 100 100 100 100 100 100 100 100 100 100 100 100 100 100 100 100 100 100 100 100 100 100 100 100 100 100 100 100 100 100 100 100
62 81 100 100 74 91 78 73 86 100 100 100 100 100 100 100 100 100 100 100 100 100 100 100 100 100 100 100 100 100 100 100 100 100 100 100 100 100 100 100 100 100 100 100 100 100 100 100 100 100 100 100 100 100
61 64 93 84 61 94 100 100 100 100 100 100 100 100 100 100 100 100 100 100 100 100 100 100 100 100 100 100 100 100 100 100 100 100 100 100 100 100 100 100 100 100 100 100 100 100 100 100 100 100 100 100 100 100
86 88 97 100 100 100 100 100 100 100 100 100 100 100 100 100 100 100 100 100 100 100 100 100 100 100 100 100 100 100 100 100 100 100 100 100 100 100 100 100 100 100 100 100 100 100 100 100 100 100 100 100 100 100
99 98 98 99 100 100 100 100 100 100 100 100 100 100 100 100 100 100 100 100 100 100 100 100 100 100 100 100 100 100 100 100 100 100 100 100 100 100 100 100 100 100 100 100 100 100 100 100 100 100 100 100 100 100
100 100 100 100 100 100 91 92 100 100 100 100 100 100 100 100 100 100 100 100 100 100 100 100 100 100 100 100 100 100 100 100 100 100 100 100 100 100 100 100 100 100 100 100 100 100 100 100 100 100 100 100 100 100
100 100 100 100 100 100 100 100 100 100 100 100 100 100 100 100 100 100 100 100 100 100 100 100 100 100 100 100 100 100 100 100 100 100 100 100 100 100 100 100 100 100 100 100 100 100 100 100 100 100 100 100 100 100
77 64 59 67 89 100 100 100 100 100 100 100 100 100 100 100 100 100 100 100 100 100 100 100 100 100 100 100 100 100 100 100 100 100 100 100 100 100 100 100 100 100 100 100 100 100 100 100 100 100 100 100 100 100
42 36 59 100 100 100 100 84 70 82 99 100 100 98 99 100 100 100 100 100 100 100 100 100 100 100 100 100 100 100 100 100 100 100 100 100 100 100 100 100 100 100 100 100 100 100 100 100 100 100 100 100 91 88
30 35 7 88 100 73 100 60 83 94 100 100 100 100 100 100 100 100 100 100 100 100 100 100 100 100 100 100 100 100 100 100 100 100 100 100 100 100 100 100 100 100 100 100 100 100 100 100 100 100 100 100 100 100
45 6 40 68 96 100 100 96 80 97 98 100 100 100 100 99 100 100 100 100 100 100 98 99 100 100 100 100 99 100 100 99 100 100 96 91 97 98 96 100 98 98 100 100 100 100 98 94 100 100 100 100 99 100

GFSWCAN_prec_cloud_099.txt.gz
Cloud_Cover
40 97 100 100 100 100 100 100 100 100 100 99 39 9 5 5 8 7 92 100 100 100 100 100 95 100 100 92 100 100 100 100 100 100 100 100 100 100 100 100 100 96 99 96 100 100 99 88 69 19 50 43 60 95
84 80 100 100 100 100 100 100 100 100 100 100 22 5 5 5 18 95 100 100 100 98 100 96 97 40 99 100 100 100 100 100 100 100 100 100 100 100 100 100 100 100 100 100 82 71 71 88 57 96 5 5 52 69
100 100 100 100 100 100 100 100 100 100 99 100 67 5 15 100 100 100 100 100 100 100 100 96 100 100 100 100 100 100 100 100 100 100 100 100 100 100 100 100 97 100 100 98 75 70 100 100 74 24 100 100 96 100
100 76 86 98 100 100 100 100 100 100 100 100 100 100 100 100 100 100 100 100 100 100 100 100 100 100 100 100 100 100 100 100 100 100 100 100 100 100 100 100 100 100 78 67 100 100 100 95 100 100 100 100 100 97
100 97 99 100 100 100 100 100 100 100 100 100 100 100 100 100 100 100 100 100 100 100 100 100 100 100 100 100 100 100 100 100 100 100 100 100 100 100 100 100 100 96 97 100 100 100 100 100 100 100 100 100 100 100
99 81 100 100 100 100 100 100 100 100 100 100 100 100 100 100 100 100 100 100 100 100 100 100 100 100 100 100 100 100 100 100 100 100 100 100 100 100 100 100 100 100 100 100 100 100 100 100 100 100 100 100 100 100
100 100 99 100 100 53 63 100 100 100 100 100 100 100 100 100 100 100 100 100 100 100 100 100 100 98 100 100 100 100 100 100 100 100 100 100 100 100 100 100 100 100 100 61 97 100 100 100 100 100 100 100 100 100
100 100 94 38 89 100 86 100 100 100 100 100 100 100 100 100 100 100 100 100 100 100 100 100 100 100 100 100 100 84 100 100 100 100 100 100 100 100 100 100 100 90 97 92 69 100 100 100 100 100 100 99 100 100
100 100 70 99 32 19 18 89 100 89 100 100 100 100 100 100 100 100 100 100 100 100 100 100 100 100 100 100 100 100 100 99 76 100 100 100 100 100 100 100 100 46 85 100 54 100 74 97 100 100 100 13 76 74
100 95 79 90 100 100 99 100 96 100 100 100 100 100 100 100 100 100 100 100 100 100 100 100 100 100 100 100 100 96 97 99 98 96 82 100 67 98 100 100 100 49 44 66 11 24 5 75 98 11 78 100 49 76
94 99 100 100 100 100 97 100 100 100 100 100 100 100 100 100 100 100 100 100 100 100 100 100 100 100 100 100 100 45 87 75 76 68 95 96 93 76 74 100 100 100 97 14 36 27 46 32 5 18 0 5 100 77
100 100 100 100 100 90 30 100 100 99 100 100 100 100 100 100 100 100 100 88 100 100 100 97 47 100 100 100 100 100 100 100 100 100 93 69 95 100 100 88 100 96 27 8 5 23 60 44 18 45 23 65 96 100
100 100 100 100 100 100 100 100 100 100 100 100 100 100 100 100 96 65 100 100 100 100 92 38 68 100 94 91 89 100 100 83 73 95 59 90 100 100 100 100 100 77 86 61 79 100 100 100 74 96 100 100 100 100
100 100 100 100 100 100 100 100 100 100 100 100 100 100 100 100 100 100 100 100 100 100 100 100 100 100 79 83 69 100 35 72 100 99 61 100 100 100 100 100 87 80 82 100 100 100 100 100 100 100 100 100 100 100
100 100 100 100 100 100 100 100 100 100 100 100 100 100 100 100 100 100 100 99 100 100 96 100 79 73 77 91 71 47 100 100 98 100 100 100 100 100 99 100 100 100 97 100 100 100 100 100 100 100 100 100 100 100
100 100 100 100 100 100 100 100 100 100 100 100 93 100 100 100 100 100 100 100 100 100 100 100 100 97 100 100 99 81 99 100 100 100 100 100 100 100 100 100 100 99 100 100 100 100 100 100 100 100 100 100 100 100
100 100 100 100 99 99 96 100 100 100 100 100 100 100 100 98 100 100 100 100 100 100 100 100 100 100 94 100 100 100 100 100 100 100 100 100 100 100 100 100 100 100 100 100 100 100 100 100 100 100 100 100 100 100
100 100 100 100 100 99 75 28 30 69 100 100 100 100 100 100 100 100 100 100 100 100 100 98 98 100 100 100 100 100 100 100 100 100 100 100 100 100 100 100 100 100 100 100 100 100 100 100 100 100 100 100 100 100
100 100 100 100 100 100 100 100 98 91 100 100 100 100 100 100 100 100 100 100 100 98 100 100 100 100 100 100 100 100 100 100 100 100 100 100 100 100 100 100 100 100 100 100 100 100 100 100 100 100 100 100 100 100
100 100 100 100 100 100 100 100 100 95 100 100 100 100 100 100 100 100 100 100 100 100 100 100 100 100 100 100 100 100 100 100 100 100 100 100 100 100 100 100 100 100 100 100 100 100 100 100 100 100 100 100 100 100
100 100 100 100 100 100 95 100 100 100 100 100 100 100 100 100 100 100 100 100 100 100 100 100 100 100 100 100 100 100 100 100 100 100 100 100 100 100 100 100 100 100 100 100 100 100 100 100 100 100 100 100 100 100
100 100 98 100 100 100 100 100 100 100 100 100 100 100 100 100 100 100 100 100 100 100 100 100 100 100 100 100 100 100 100 100 100 99 100 100 100 100 100 100 100 100 100 100 100 100 100 100 100 100 100 100 100 100
100 100 92 84 100 100 100 100 100 98 100 100 100 100 100 100 100 100 100 100 100 100 100 100 100 100 100 100 100 100 100 100 100 100 100 100 100 100 100 100 100 100 100 100 100 100 100 100 100 100 100 100 100 100
60 97 100 94 74 100 63 82 100 100 100 100 100 100 100 100 100 100 100 100 100 100 100 100 100 100 100 100 100 100 100 100 100 100 100 100 100 100 100 100 100 100 100 100 100 100 100 100 100 100 100 100 100 100
100 55 84 78 52 63 90 100 100 100 100 100 100 100 100 100 100 100 100 100 100 100 100 100 100 100 100 100 100 100 100 100 100 100 100 100 100 100 100 100 100 100 100 100 100 100 100 100 100 100 100 100 100 100
100 99 90 99 98 100 100 100 100 100 100 100 100 100 100 100 100 100 100 100 100 100 100 100 100 100 100 100 100 100 100 100 100 100 100 100 100 100 100 100 100 100 100 100 100 100 100 100 100 100 100 100 100 100
100 99 97 100 100 100 100 100 99 100 100 100 100 100 100 100 100 100 100 100 100 100 100 100 100 100 100 100 100 100 100 100 100 100 100 100 100 100 100 100 100 100 100 100 100 100 100 100 100 100 100 100 100 100
100 100 100 100 100 100 100 100 100 100 100 100 100 100 100 100 100 100 100 100 100 100 100 100 100 100 100 100 100 100 100 100 100 100 100 100 100 100 100 100 100 100 100 100 100 100 100 100 100 100 100 100 100 100
100 100 100 100 100 100 100 100 100 100 100 100 100 100 100 100 100 100 100 100 100 100 100 100 100 100 100 100 100 100 100 100 100 100 100 100 100 100 100 100 100 100 100 100 100 100 100 100 100 100 100 100 100 100
98 94 80 88 100 100 100 100 100 100 100 100 100 100 100 100 100 100 100 100 100 100 100 100 100 100 100 100 100 100 100 100 100 100 100 100 100 100 100 100 100 100 100 100 100 100 100 100 100 100 100 100 100 100
95 94 94 100 100 100 100 100 100 100 100 100 100 98 100 100 100 100 100 100 100 100 100 100 100 100 100 100 100 100 100 100 100 100 100 100 100 100 100 100 100 100 100 100 100 100 100 100 100 100 100 100 96 93
98 85 76 99 100 100 100 100 100 100 100 100 100 100 100 100 100 100 100 100 100 100 100 100 100 100 100 100 100 100 100 100 100 100 100 100 100 100 100 100 100 100 100 100 100 100 100 100 100 100 100 100 100 100
93 89 84 98 100 100 100 100 100 100 100 100 100 100 100 100 100 100 100 100 100 100 100 100 100 100 100 100 100 100 100 100 94 95 99 100 99 98 100 100 100 100 100 100 100 100 100 100 100 100 100 100 100 100

GFSWCAN_prec_cloud_102.txt.gz
Cloud_Cover
75 60 12 17 52 76 100 100 100 100 95 87 40 80 100 100 5 6 20 29 82 88 96 100 99 87 99 92 100 100 100 99 100 100 100 100 100 98 100 100 100 100 94 98 96 100 70 2 0 13 13 26 100 100
100 88 24 89 72 100 100 100 100 100 100 5 7 12 88 100 97 5 40 74 66 94 99 100 100 7 64 62 97 100 100 100 100 100 100 100 100 100 98 100 100 100 82 99 53 26 92 69 89 57 32 7 66 59
8 5 5 6 100 100 100 100 100 100 100 100 98 70 74 8 22 43 17 56 89 100 100 100 100 95 25 71 100 99 100 100 100 100 100 100 100 100 100 75 100 100 100 100 100 100 100 100 77 9 4 5 40 20
64 23 5 74 99 91 82 100 100 100 100 100 93 98 31 5 73 72 100 63 100 100 100 100 98 100 100 100 100 100 100 100 100 100 100 100 100 100 100 100 100 100 100 100 100 55 98 82 61 87 54 87 94 97
62 53 87 100 76 94 100 100 100 100 100 100 100 98 86 53 84 93 100 100 100 100 100 100 100 100 100 100 100 100 100 100 100 100 100 100 100 100 100 100 100 100 100 100 100 100 100 80 100 100 100 100 100 100
99 100 100 100 65 99 100 100 100 100 100 100 100 100 100 92 7 97 100 91 99 100 100 100 100 100 100 100 100 100 100 100 100 100 100 100 100 100 100 100 100 100 72 89 80 100 100 100 100 100 100 100 100 99
100 100 100 100 100 100 100 100 100 100 100 100 100 100 100 100 98 100 100 100 100 100 100 100 100 100 100 100 100 100 100 100 100 100 100 100 100 100 100 100 100 100 100 99 81 100 100 100 100 100 100 100 93 100
100 100 100 100 100 80 95 83 100 100 100 100 100 100 100 100 100 100 100 100 100 100 100 100 100 100 100 100 100 100 100 100 100 100 100 100 100 100 100 100 100 100 100 100 100 98 100 100 100 100 100 100 50 100
100 100 100 100 100 95 100 98 92 100 100 100 100 100 100 100 100 100 100 100 100 100 100 100 100 100 100 100 100 100 100 100 100 100 100 100 100 100 100 100 98 73 100 93 90 96 70 100 100 100 100 100 100 100
100 94 79 61 18 78 97 65 100 98 100 100 100 100 100 100 100 100 100 100 100 100 100 100 96 98 99 100 100 100 100 100 100 100 100 100 100 100 100 100 100 33 84 100 100 95 28 38 74 100 100 100 92 92
100 80 58 85 92 99 100 98 100 100 100 100 100 100 100 100 100 100 100 100 100 100 100 100 100 100 100 100 97 88 99 99 100 90 79 98 100 100 100 100 100 94 27 42 41 28 15 12 21 5 61 95 100 100
100 100 100 84 70 94 100 100 100 100 100 100 100 100 100 100 100 100 100 94 81 100 100 100 100 100 100 100 100 86 46 79 77 46 97 98 100 100 100 100 100 100 47 45 84 5 13 30 20 41 45 24 42 91
100 100 100 100 100 100 100 100 100 100 100 100 100 100 100 100 100 100 100 100 100 100 100 100 100 100 100 100 100 100 100 100 76 17 76 99 100 100 100 99 90 93 90 88 84 83 89 99 100 100 100 99 100 100
100 100 100 100 99 100 100 100 100 100 100 100 100 100 100 100 100 100 100 100 100 100 100 100 100 100 100 100 94 100 98 91 100 97 84 100 99 100 100 100 100 100 100 100 100 94 100 100 100 100 100 100 100 100
100 100 100 100 100 100 100 100 100 100 100 100 100 100 100 100 100 100 100 100 100 100 100 100 94 56 67 99 47 36 100 85 97 100 100 100 92 99 100 100 100 100 100 100 100 96 100 100 100 100 100 100 100 100
100 100 100 100 100 100 100 100 100 100 100 100 100 100 100 100 100 100 100 100 100 100 94 59 100 100 76 59 79 70 64 98 100 100 100 100 100 100 100 100 100 94 100 100 100 99 100 100 96 100 100 100 100 100
100 100 100 100 100 100 100 100 100 100 100 100 100 100 100 100 100 100 100 100 100 98 95 91 99 72 99 91 99 100 100 100 100 100 100 100 100 100 100 100 100 100 100 100 100 100 100 100 100 99 100 100 100 100
100 100 100 100 100 100 100 100 100 100 100 100 100 100 98 100 100 100 100 100 100 100 100 98 82 100 100 100 100 100 100 100 100 99 93 100 100 100 100 100 100 100 100 97 100 100 100 100 100 100 100 100 100 100
100 100 100 100 100 99 53 66 77 99 100 100 100 100 100 100 100 100 100 100 100 99 100 100 100 100 100 100 100 100 100 100 100 95 100 80 78 93 91 77 98 100 100 95 100 100 100 99 100 100 100 100 100 100
100 100 100 100 100 100 100 92 92 96 100 100 98 99 100 100 100 100 100 100 100 99 100 100 100 100 100 100 100 100 100 100 100 100 100 100 100 100 100 100 100 100 97 98 84 99 100 100 100 100 100 100 100 100
100 100 100 100 100 100 100 100 100 99 100 100 100 100 100 100 100 100 100 100 100 100 100 100 100 100 100 100 100 100 100 100 100 100 100 100 100 100 100 100 100 100 100 100 100 100 100 100 100 100 100 100 100 100
100 100 100 100 100 100 100 100 100 100 100 100 100 100 100 100 100 100 100 100 100 100 100 100 100 100 100 100 100 100 100 100 100 100 100 100 100 100 100 100 100 100 100 100 100 100 100 100 100 100 100 100 100 100
100 100 100 100 100 100 100 100 100 99 100 100 100 100 100 100 100 100 100 100 100 100 100 100 100 100 100 100 100 100 100 99 100 100 100 100 100 100 100 100 100 100 100 100 100 100 100 100 100 100 100 100 100 100
66 100 100 100 97 98 92 100 100 100 100 100 100 100 100 100 100 100 100 100 100 100 100 100 100 100 100 100 100 100 100 100 100 100 100 100 100 100 100 100 100 100 100 100 100 100 100 100 100 100 100 100 100 100
95 84 98 96 77 97 94 100 100 100 100 100 100 100 100 100 100 100 100 100 100 100 100 100 100 100 100 100 100 100 100 100 100 100 100 100 100 100 100 100 100 100 100 100 100 100 100 100 100 100 100 100 100 100
100 96 91 100 98 100 100 100 100 100 100 100 100 100 100 100 100 100 100 100 100 100 100 100 100 100 100 100 100 100 100 100 100 100 100 100 100 100 100 100 100 100 100 100 100 100 100 100 100 100 100 100 100 100
95 99 100 99 100 100 100 100 100 100 100 100 100 100 100 100 100 100 100 100 100 100 100 100 100 100 100 100 100 100 100 100 100 100 100 100 100 100 100 100 100 100 100 100 100 100 100 100 100 100 99 100 100 100
94 99 99 97 100 100 100 100 100 100 100 100 100 100 100 100 100 100 100 100 100 100 100 100 100 100 100 100 100 100 100 100 100 100 100 100 100 100 100 100 100 100 100 100 100 100 100 100 100 100 100 100 100 100
100 100 100 100 100 100 100 100 100 100 100 100 100 100 100 100 100 100 100 100 100 100 100 100 100 100 100 100 100 100 100 100 100 100 100 100 100 100 100 100 100 100 100 100 100 100 100 100 100 100 100 100 100 100
100 100 100 100 100 100 100 100 100 100 100 86 98 100 100 100 100 100 100 100 100 100 100 100 100 100 100 100 100 100 100 100 100 100 100 100 100 100 100 100 100 100 100 100 100 100 100 100 100 100 100 100 100 100
100 83 90 100 100 100 100 100 100 100 100 100 100 100 100 100 100 100 100 100 100 100 100 100 100 100 100 100 100 100 100 100 100 100 100 100 100 100 100 100 100 100 100 100 100 100 100 100 100 95 97 100 93 97
69 55 56 89 100 100 100 100 100 100 100 100 100 100 100 100 100 100 100 100 100 100 100 100 100 100 100 100 100 100 98 100 100 98 100 100 100 100 100 100 100 100 100 100 100 99 98 97 100 100 89 82 69 99
99 65 79 96 100 100 97 100 100 100 100 100 100 100 100 100 100 100 100 100 100 100 100 100 100 100 93 89 100 100 100 71 50 52 56 55 60 51 97 100 100 100 100 100 100 87 82 85 94 86 80 84 44 84

GFSWCAN_prec_cloud_105.txt.gz
Cloud_Cover
95 100 100 92 5 8 55 89 63 90 100 100 100 99 70 75 100 44 10 7 96 80 48 28 62 72 82 56 79 98 99 100 100 97 100 100 100 100 100 100 100 100 76 72 88 100 99 32 4 43 49 10 21 100
71 62 26 94 100 100 100 99 82 99 100 100 96 96 5 5 22 82 32 5 51 100 100 100 100 100 98 22 22 75 100 100 100 100 100 100 100 100 100 100 100 100 72 43 6 99 69 100 92 98 62 5 0 71
77 98 91 43 5 5 14 63 93 100 100 100 99 19 99 24 5 23 14 95 100 100 100 99 94 46 12 8 10 34 89 100 33 40 100 100 100 100 100 100 100 100 100 100 97 74 49 100 88 98 21 5 4 99
95 80 66 22 22 18 5 100 100 100 100 100 100 100 27 100 29 29 94 86 99 100 98 90 80 70 5 77 61 51 94 54 66 53 59 100 100 98 44 81 100 100 100 100 100 100 100 100 100 98 51 16 24 99
85 23 5 5 6 60 99 100 94 100 100 100 100 100 82 61 13 56 83 74 85 100 90 51 85 100 100 100 100 100 100 100 100 100 100 100 100 66 67 51 100 100 100 100 100 100 100 100 79 87 99 90 100 78
100 55 47 49 32 87 100 93 97 100 100 100 100 100 100 100 57 100 100 100 99 100 100 100 100 100 100 100 100 100 100 100 100 100 100 100 100 100 100 100 100 100 100 100 100 100 80 100 100 84 100 100 99 99
88 40 100 100 100 100 100 100 100 100 100 100 100 100 100 100 100 100 97 98 95 95 100 100 100 100 100 100 100 100 100 100 100 100 100 100 100 100 100 100 100 100 100 100 100 100 89 100 100 100 100 100 100 100
93 100 100 100 100 100 100 100 100 100 100 100 100 100 100 100 99 90 91 99 100 100 100 100 100 100 100 100 100 100 100 100 100 100 100 100 100 100 100 100 100 100 100 100 100 100 100 100 100 100 100 100 100 100
100 100 100 100 100 100 100 99 100 100 100 100 100 100 100 100 100 100 98 100 100 100 100 100 100 100 100 100 100 100 100 100 100 100 100 100 100 100 100 89 100 98 99 100 100 100 100 100 100 100 100 100 97 100
100 100 100 100 100 100 100 100 100 100 100 100 100 100 100 100 93 100 100 100 100 100 100 100 85 99 99 100 100 100 100 100 100 100 100 100 100 100 100 100 6 44 98 100 100 100 100 100 100 100 100 100 100 100
100 100 100 100 100 100 100 100 99 100 100 100 100 100 100 100 100 100 100 100 100 100 100 93 60 91 83 100 100 93 100 100 100 100 100 100 100 100 100 100 100 48 5 43 92 100 92 97 100 99 100 100 100 100
100 100 100 100 100 100 100 99 97 100 100 100 100 100 100 100 100 100 100 94 99 50 88 100 98 100 96 98 100 100 85 100 99 83 100 100 100 100 100 100 100 100 100 81 78 88 62 49 40 25 82 82 96 100
100 100 91 99 100 100 100 100 96 100 100 100 100 100 100 100 100 89 100 100 100 100 100 100 100 100 100 98 100 96 100 91 68 95 100 100 100 100 100 82 98 100 100 100 100 98 75 77 100 100 100 100 100 100
100 100 19 88 99 100 100 100 100 100 100 100 100 100 100 100 100 100 100 100 100 100 100 100 100 100 100 100 100 85 59 66 98 94 95 100 95 99 99 100 100 100 100 100 100 99 91 100 100 100 100 100 100 100
100 100 100 100 100 100 100 100 100 100 100 100 100 100 100 100 100 100 100 100 100 100 100 100 100 100 100 100 97 36 100 100 99 100 100 88 66 35 100 99 82 86 95 93 83 80 85 87 99 100 100 100 100 100
100 100 100 100 100 100 100 100 100 100 100 100 100 100 100 100 100 100 100 100 100 100 100 100 100 100 96 78 95 100 92 100 99 100 83 69 100 94 99 100 100 95 20 67 61 58 59 69 87 99 100 100 100 100
100 100 100 100 100 100 100 100 100 100 100 100 100 100 100 100 100 100 100 100 99 100 99 92 100 86 55 92 100 100 100 86 94 99 96 100 99 95 100 99 100 100 86 37 59 60 86 95 83 85 100 100 100 100
100 100 100 100 100 100 100 100 100 100 100 100 100 100 100 100 100 100 100 100 99 100 100 97 92 98 88 98 95 100 100 100 94 100 72 36 55 68 93 58 58 100 88 93 99 98 100 100 96 99 93 100 100 100
100 100 100 100 100 100 100 100 100 87 98 100 100 100 100 100 100 95 96 100 100 98 98 100 100 88 94 97 100 98 92 100 96 97 95 77 83 66 65 68 80 93 100 100 100 100 100 100 100 100 100 100 100 100
100 100 100 100 100 94 100 97 85 84 97 86 79 86 65 100 92 97 100 100 100 100 100 98 93 100 98 91 99 100 100 100 100 100 100 100 100 100 100 100 100 100 100 100 100 100 100 100 100 100 100 100 100 100
100 100 100 100 100 100 94 59 77 93 97 100 98 99 88 99 100 100 100 100 100 100 100 100 100 100 100 100 100 100 100 100 100 100 100 100 100 100 100 96 100 100 100 100 100 100 100 100 100 100 100 100 100 100
100 100 100 100 100 100 100 100 100 100 100 100 100 100 100 100 100 100 100 100 100 100 100 100 100 100 100 100 100 100 100 100 100 98 82 86 99 100 100 93 77 97 100 100 100 100 100 100 100 100 100 100 100 100
100 100 100 100 100 100 100 100 100 100 100 100 100 100 100 100 100 100 100 100 100 100 100 100 100 100 100 100 100 100 100 100 100 100 100 100 88 88 88 92 100 100 100 100 100 99 100 100 100 100 100 100 100 100
100 100 100 100 79 100 95 100 100 100 100 100 100 100 100 100 100 100 100 100 100 100 100 100 100 100 100 100 100 100 100 100 100 100 100 100 98 97 100 100 100 100 100 100 100 100 100 100 100 100 100 100 100 100
94 100 100 100 100 100 100 100 100 100 100 100 100 100 100 100 100 100 100 100 100 100 100 100 100 100 100 100 100 100 100 100 100 100 100 100 100 100 100 100 100 100 100 100 100 100 100 100 100 100 100 100 100 100
97 93 93 100 85 84 89 99 100 100 100 100 100 100 100 100 100 100 100 100 100 100 100 100 100 100 100 100 100 100 100 100 100 100 100 100 100 100 100 100 100 100 100 100 100 100 100 100 100 100 100 100 100 100
97 90 98 97 100 97 99 100 100 100 98 100 99 100 100 100 100 100 98 100 100 100 100 100 100 100 100 100 100 100 100 100 100 100 100 100 100 100 100 100 100 100 100 100 100 100 100 100 100 100 100 100 100 100
94 86 80 100 100 100 100 100 91 100 100 94 100 100 94 98 100 100 100 100 100 100 100 100 100 100 100 100 100 100 100 100 100 100 100 100 100 100 100 100 100 100 100 100 100 100 100 100 100 100 100 100 100 100
74 62 55 95 100 100 100 100 100 100 100 100 100 100 100 100 100 100 100 97 84 99 100 100 100 100 100 100 100 100 100 100 100 100 100 100 100 100 100 100 100 100 100 100 100 100 100 100 100 100 100 100 100 100
99 98 100 100 100 100 100 100 99 60 39 27 72 93 79 96 100 84 88 100 72 70 64 83 78 82 98 98 100 100 100 100 100 100 100 100 100 100 100 100 100 100 100 100 100 100 100 100 100 100 100 100 100 100
100 100 100 100 100 98 69 81 56 48 32 27 9 5 41 82 98 98 76 100 99 90 53 5 71 74 77 95 98 100 100 100 100 100 100 100 100 100 100 100 100 100 100 100 100 100 100 100 100 100 100 100 100 100
37 54 58 62 100 100 100 100 94 97 99 88 91 41 97 98 97 86 100 100 52 34 33 15 12 98 99 66 76 92 94 100 100 100 100 100 100 100 100 100 100 100 100 100 100 100 100 100 100 96 85 57 74 96
66 77 77 78 78 80 91 96 54 97 92 65 67 53 60 69 96 100 90 74 56 59 75 92 98 77 49 100 98 58 55 61 67 70 76 79 83 85 86 85 85 93 100 85 82 84 88 94 84 84 93 93 42 10

GFSWCAN_prec_cloud_108.txt.gz
Cloud_Cover
100 100 84 33 6 5 61 61 57 66 14 97 55 100 100 100 100 69 25 7 78 99 84 13 93 31 19 33 84 95 60 92 95 96 89 94 100 94 100 100 100 100 100 100 98 94 100 75 100 68 92 100 100 100
100 100 96 46 99 94 5 5 30 5 5 6 57 100 100 98 96 77 98 86 5 99 64 13 5 8 5 19 99 93 27 100 100 100 100 100 100 100 100 100 100 100 100 91 48 100 82 34 100 100 100 22 11 17
100 100 69 86 22 31 100 100 87 99 100 86 100 100 100 52 80 32 79 100 98 100 100 93 18 54 54 60 43 50 81 56 100 100 100 100 100 100 100 100 100 100 100 100 50 26 60 90 100 100 100 6 7 39
100 99 100 56 24 100 97 18 4 19 5 70 100 100 100 35 90 100 92 100 99 64 100 32 44 89 28 5 78 46 27 34 20 92 100 100 100 100 100 100 100 100 100 100 100 100 100 100 100 98 84 84 5 34
100 100 100 20 80 98 57 5 6 38 28 100 100 92 100 100 98 100 100 98 96 66 100 58 66 40 5 95 23 4 16 68 82 100 100 100 100 100 100 100 100 100 100 100 100 100 100 100 98 100 97 36 7 61
97 100 96 86 88 19 5 5 5 83 100 100 100 100 100 100 100 100 100 100 32 73 100 84 5 88 8 78 100 100 100 100 100 100 100 100 100 100 100 100 96 96 100 100 100 68 79 95 74 80 98 78 100 98
100 100 100 100 100 100 23 22 58 100 100 100 100 100 100 100 100 100 70 59 100 70 100 98 100 100 100 100 100 100 100 100 100 100 100 100 100 100 100 100 100 93 65 99 56 100 100 100 100 100 100 74 92 100
100 100 100 100 100 90 100 100 100 100 100 100 100 100 100 100 100 100 100 100 95 100 100 100 100 100 100 100 100 100 100 100 100 100 100 100 100 100 100 95 93 91 100 100 100 100 100 100 100 100 99 97 100 100
100 100 100 100 100 100 100 100 100 100 100 100 100 100 100 100 100 66 100 100 96 100 100 100 100 100 100 100 100 100 100 100 100 100 100 100 100 98 100 100 74 100 100 100 100 100 100 94 100 100 100 99 100 100
99 73 81 100 100 100 100 100 100 100 100 100 100 100 100 100 100 100 97 100 100 100 100 100 100 100 100 100 100 100 100 100 100 99 100 100 100 100 100 100 100 99 100 100 100 100 100 100 100 100 100 100 100 100
100 100 100 100 100 100 100 100 100 100 100 100 100 100 100 100 100 100 100 100 100 100 100 100 100 91 98 99 100 100 100 100 100 98 94 100 100 100 100 100 100 95 63 91 100 100 100 100 100 100 100 100 72 98
100 100 100 100 100 100 100 100 100 100 100 100 100 100 100 100 100 100 100 100 100 53 60 92 84 36 26 62 96 96 100 99 93 100 100 100 100 100 100 100 100 99 49 100 100 100 99 100 100 100 100 100 100 100
100 100 100 100 100 100 100 100 100 100 100 100 100 100 100 100 100 100 100 100 100 100 100 100 100 98 100 100 100 100 95 96 41 89 88 100 99 88 100 100 100 98 100 100 70 80 91 83 84 99 100 100 100 100
81 96 100 100 100 100 100 100 100 100 100 100 100 100 96 86 95 100 100 100 84 29 82 84 100 91 99 97 100 96 99 80 100 100 100 100 98 86 31 95 86 89 84 20 79 96 89 99 92 84 100 100 100 100
37 90 100 100 100 100 100 100 100 84 100 100 100 98 81 95 100 100 100 100 100 69 86 97 98 64 100 99 99 47 100 100 100 91 93 95 71 75 50 50 80 62 52 68 79 94 90 76 79 94 87 98 100 100
100 100 100 100 100 100 100 100 88 100 100 100 100 100 100 100 100 100 100 100 100 100 96 100 100 100 93 42 90 100 99 97 83 92 87 68 57 71 94 33 98 79 89 93 96 89 85 86 82 99 93 99 100 99
100 100 100 100 100 100 100 100 100 100 100 100 100 100 100 100 100 100 100 100 100 100 100 99 92 58 81 90 100 100 92 100 86 87 76 94 84 98 79 78 82 72 66 92 98 77 87 88 86 90 87 100 94 100
100 100 100 100 100 100 100 100 100 100 100 100 100 100 100 100 100 100 99 99 100 100 100 94 89 99 100 99 99 97 100 100 98 100 94 76 57 76 92 67 70 61 78 81 91 100 100 83 70 100 88 100 99 100
100 100 100 100 100 88 100 100 100 100 100 100 100 100 100 92 96 94 96 100 100 100 100 95 76 85 98 100 99 100 97 97 99 85 96 97 93 100 99 84 76 79 76 77 93 83 100 100 77 84 88 79 100 100
100 100 100 100 100 100 100 97 97 100 100 100 100 100 100 100 100 91 91 100 100 100 100 99 89 100 88 99 98 87 94 100 100 100 100 100 100 96 100 100 100 100 92 100 100 94 99 100 100 83 88 95 95 100
100 100 100 100 100 100 100 100 100 100 100 99 88 100 92 100 100 100 100 100 100 100 100 98 100 98 99 96 87 99 100 100 100 100 100 100 100 100 100 97 100 82 79 80 93 100 100 100 100 98 91 100 100 100
100 100 100 100 100 95 92 37 40 89 67 99 99 99 100 100 100 100 100 100 100 100 100 100 100 100 97 100 100 100 100 100 100 100 100 100 100 100 99 99 95 89 90 99 100 100 100 100 99 96 85 100 100 100
100 100 100 100 100 100 100 100 100 100 100 100 100 100 100 100 100 100 100 100 100 100 100 100 100 100 100 100 100 100 100 100 100 100 100 100 100 87 77 76 79 88 96 100 100 100 100 100 100 100 100 100 100 100
100 100 100 100 100 100 100 100 100 100 100 100 100 100 100 100 100 100 100 100 100 100 100 100 100 99 100 100 100 100 100 100 100 86 75 76 79 95 71 80 76 97 99 100 100 100 100 100 100 100 100 100 100 100
100 100 100 100 100 100 100 100 100 100 100 100 100 100 100 100 100 100 100 100 100 100 100 100 100 100 98 90 93 87 89 86 78 81 100 94 100 98 92 98 99 100 100 100 100 100 100 100 100 100 100 100 100 100
97 89 88 86 76 100 100 100 100 100 100 100 100 100 100 100 100 100 100 100 99 100 100 100 100 100 100 100 99 100 100 100 100 100 100 100 100 100 100 100 99 100 100 100 100 100 100 100 100 100 100 100 100 100
97 99 94 99 99 94 95 97 89 92 96 100 100 100 98 100 100 100 100 100 100 100 100 100 100 100 100 100 100 100 100 100 100 96 99 99 98 98 100 98 100 100 100 100 100 100 100 100 100 100 100 100 100 100
94 100 100 100 100 100 100 100 100 100 100 99 96 96 97 100 100 100 100 100 100 100 93 91 92 92 96 100 100 100 100 100 100 100 98 91 98 100 100 100 100 100 100 100 100 100 100 100 100 100 100 100 100 100
70 77 56 98 100 100 100 100 100 96 90 97 65 92 96 100 100 100 96 77 93 92 75 80 100 71 75 86 93 100 100 100 100 100 100 100 100 100 100 100 100 100 100 100 100 100 100 100 100 100 100 100 100 100
92 90 100 98 100 100 100 98 100 92 68 65 77 96 91 100 100 100 53 51 56 96 98 87 86 77 84 74 80 94 96 100 100 100 100 100 100 100 100 100 100 100 100 100 100 100 100 100 100 100 100 100 100 100
87 99 100 100 100 100 100 100 94 51 38 20 8 26 86 96 100 98 81 96 77 23 42 77 92 66 78 79 82 77 77 81 92 98 100 100 100 100 100 100 100 100 100 100 100 100 100 100 100 100 100 100 100 100
26 32 55 87 100 100 63 71 66 91 68 39 68 83 97 69 97 91 100 99 54 42 94 55 87 100 96 70 60 69 68 67 72 76 81 88 97 99 100 100 100 100 100 100 100 100 100 100 99 98 100 90 70 73
63 64 64 74 90 95 99 95 73 97 91 91 99 100 100 80 90 92 98 80 23 71 88 69 89 87 86 79 60 15 48 55 83 66 86 86 76 58 58 67 74 70 64 73 88 95 91 96 96 89 94 83 94 100

GFSWCAN_prec_cloud_111.txt.gz
Cloud_Cover
100 100 100 100 100 100 100 64 5 5 5 51 5 54 96 100 100 100 100 82 82 77 44 77 89 90 75 42 85 8 43 68 95 100 99 84 100 100 100 100 100 100 100 100 100 90 45 12 8 82 99 100 100 100
100 100 100 100 100 95 10 5 5 81 88 5 5 87 99 100 100 100 100 95 99 100 38 14 34 11 5 6 56 78 70 70 100 100 100 100 100 100 100 100 100 100 100 100 100 100 100 99 98 100 100 65 100 100
100 100 100 100 100 16 76 52 63 11 5 5 5 75 78 100 100 100 60 100 100 100 32 58 39 35 3 5 4 100 100 99 65 100 100 100 100 100 100 100 100 100 100 100 83 87 100 98 100 100 100 100 100 100
100 100 96 100 100 96 80 5 79 100 100 15 87 100 85 98 100 100 75 100 98 94 98 15 88 81 73 11 20 100 96 84 84 100 100 100 100 100 100 100 100 100 100 100 100 100 100 98 100 100 97 100 90 76
100 100 100 100 100 99 32 80 100 100 13 3 5 17 75 100 100 100 91 100 100 90 100 91 30 14 6 5 78 80 51 99 98 100 100 100 100 100 100 100 100 100 100 100 100 100 100 100 100 100 100 100 98 91
100 98 100 100 100 95 10 50 100 100 86 5 23 100 100 100 100 100 100 89 100 99 100 69 3 4 5 5 23 51 99 67 5 100 100 100 78 100 100 100 100 100 100 100 100 100 100 100 100 100 97 84 100 99
100 100 75 61 99 100 19 12 5 13 12 5 92 100 100 100 99 100 67 25 56 92 100 100 16 80 97 100 100 100 100 100 100 100 100 100 98 100 100 96 65 100 87 98 100 100 94 100 100 100 100 100 86 100
100 100 95 93 98 100 100 92 85 100 50 58 100 100 100 100 100 100 99 100 100 100 100 99 64 97 100 100 100 100 100 100 100 100 100 100 100 100 99 100 100 96 98 96 96 94 100 95 95 94 100 100 92 100
99 100 100 100 100 100 93 100 100 100 100 100 100 100 100 100 100 100 100 100 89 73 95 100 100 100 100 100 100 100 100 100 100 100 100 100 100 100 100 100 100 99 100 100 100 100 100 100 100 100 100 100 100 77
100 100 100 100 100 100 100 100 100 100 100 100 100 100 100 100 100 100 100 100 100 100 100 100 100 100 100 100 100 100 100 100 100 100 100 100 100 100 100 100 100 100 100 100 100 100 99 100 100 100 100 100 100 100
100 100 100 100 100 100 100 100 100 100 100 100 100 100 100 100 100 100 100 100 99 100 100 100 100 100 100 100 100 100 100 100 100 100 100 100 100 100 100 100 100 98 100 100 100 100 100 100 100 100 100 59 100 100
100 100 100 100 91 99 100 100 100 100 100 100 100 100 100 100 100 96 77 76 100 100 100 100 100 100 100 100 100 100 100 100 100 100 100 100 100 100 100 100 100 100 100 99 88 98 100 100 100 100 100 100 100 100
100 100 100 100 100 100 100 100 100 100 100 100 100 100 100 100 100 96 86 100 100 100 100 100 100 92 99 100 100 100 100 100 100 100 100 100 97 97 72 88 58 76 73 91 75 47 96 100 90 93 100 100 100 100
100 100 100 100 100 100 100 100 100 100 100 100 100 100 98 94 100 100 100 100 100 100 100 100 100 100 100 100 100 100 100 80 93 100 85 98 95 79 74 65 63 55 23 26 34 56 93 99 90 82 88 82 86 97
100 100 100 100 100 100 100 100 100 100 100 100 99 100 100 100 100 100 100 100 100 99 100 100 100 100 100 100 100 99 100 100 100 90 99 99 92 72 77 80 77 73 50 51 74 88 91 74 70 81 91 76 84 86
96 100 100 100 100 100 100 100 100 100 100 98 61 100 100 100 100 100 100 100 100 100 100 100 100 100 100 99 100 98 100 76 77 94 82 76 74 86 93 82 79 66 55 76 99 96 90 92 90 95 73 71 80 95
100 96 98 100 100 100 100 100 100 100 100 82 92 100 100 100 100 100 100 100 100 100 100 96 88 19 86 97 100 87 79 99 99 87 84 90 68 100 95 82 100 61 59 80 81 70 88 78 81 73 69 97 85 91
100 100 100 100 100 100 100 100 100 100 91 95 100 100 100 100 100 100 100 100 100 100 99 92 76 92 99 96 95 95 100 100 90 76 71 85 65 63 67 66 89 65 77 75 56 57 6 24 38 99 86 87 75 87
100 100 100 100 100 99 100 100 100 60 100 100 100 100 100 100 100 100 100 100 100 100 100 100 100 86 97 92 96 95 94 96 94 89 96 83 86 98 87 78 89 96 88 79 88 87 84 72 86 70 92 74 84 84
100 100 100 100 100 96 100 97 100 100 100 100 100 89 88 97 98 91 99 89 100 100 100 96 85 99 74 88 97 100 100 94 100 92 95 100 99 88 68 99 100 100 93 86 84 68 73 84 79 81 94 100 92 91
100 100 100 100 100 100 100 93 100 100 94 92 98 98 100 100 94 97 100 100 100 100 100 91 97 98 100 99 100 95 91 94 100 83 97 100 100 100 100 86 95 91 77 84 96 92 76 82 95 98 98 97 99 99
100 100 100 100 100 100 99 91 87 94 77 91 99 76 75 91 90 95 86 100 99 98 97 97 100 100 100 100 100 100 92 83 73 52 85 100 100 100 100 100 100 100 100 95 76 80 91 100 100 100 100 100 100 100
100 100 100 100 100 73 90 81 39 68 46 93 93 75 87 88 69 82 95 96 99 98 99 100 100 100 100 100 100 96 96 87 89 98 100 100 100 100 94 95 89 100 84 86 84 98 100 100 100 100 100 100 100 100
100 100 100 100 89 100 97 100 100 100 100 100 100 100 100 100 98 98 100 100 100 95 99 100 100 91 96 99 96 95 99 88 92 100 100 100 86 99 99 92 75 81 81 89 87 91 100 100 100 100 100 100 100 100
100 100 100 100 96 100 100 100 100 100 100 100 100 100 100 100 100 100 100 100 100 100 100 100 100 100 100 99 87 91 99 100 94 99 97 98 93 74 83 89 100 96 95 98 89 92 91 83 87 93 100 100 100 100
95 94 100 100 100 100 100 100 100 100 100 100 100 100 100 100 100 100 100 100 100 100 100 100 96 79 98 97 84 81 88 87 99 86 96 92 89 91 98 100 100 100 99 98 100 96 98 100 100 100 100 100 100 100
98 89 93 100 100 100 100 100 100 100 100 100 100 100 100 100 100 100 100 100 92 100 99 94 84 76 90 87 87 94 99 100 100 99 100 100 100 100 100 98 95 100 99 98 97 99 100 100 100 100 100 100 100 100
100 100 100 100 100 100 100 100 98 100 100 96 100 99 75 67 93 100 96 100 95 54 88 100 92 82 89 89 82 87 95 99 100 100 100 100 100 100 100 100 100 100 100 100 100 100 100 100 100 100 100 100 100 100
94 99 95 99 100 100 100 97 100 96 100 76 81 100 99 94 100 99 99 100 94 89 76 91 98 80 68 62 73 88 88 90 97 100 100 100 100 100 100 100 100 100 100 100 100 100 100 100 100 100 100 100 100 100
85 87 91 100 96 100 100 97 95 91 85 97 91 98 96 100 100 96 56 44 85 100 100 95 89 80 97 88 76 79 91 82 85 74 92 99 97 100 100 100 100 100 100 100 100 100 100 100 100 100 100 100 100 100
100 100 100 100 100 98 88 92 82 77 58 51 59 73 94 100 99 100 88 70 60 19 14 80 88 86 38 56 82 71 69 64 72 73 75 80 99 100 100 100 100 100 100 100 100 100 100 100 100 100 100 100 100 100
99 93 64 82 100 99 93 61 57 57 89 83 93 78 96 29 96 91 99 100 49 73 100 100 100 100 92 95 90 73 15 54 59 58 61 66 69 71 75 76 82 93 97 99 99 100 100 100 100 100 100 98 99 96
51 50 74 83 84 97 86 99 82 86 92 100 98 98 92 17 54 85 100 71 23 14 54 99 100 100 90 48 9 26 62 82 100 93 100 100 84 66 49 76 66 75 78 70 62 84 79 89 81 69 88 100 100 100

GFSWCAN_prec_cloud_114.txt.gz
Cloud_Cover
86 74 97 100 100 100 100 100 100 100 68 6 5 5 5 10 76 51 82 92 82 100 33 1 12 38 98 96 100 80 9 53 56 88 83 98 100 100 100 100 100 100 100 100 100 100 68 9 24 33 84 100 100 100
100 100 80 100 100 100 100 100 100 100 99 20 5 5 14 90 52 96 100 99 90 100 14 5 5 5 4 15 80 100 8 87 89 70 98 100 100 100 100 100 100 100 100 100 100 83 8 12 90 98 75 100 100 100
100 100 96 100 100 100 100 99 100 69 17 98 12 5 29 87 82 99 100 100 100 100 100 94 10 4 0 3 4 5 5 23 97 100 100 100 100 100 100 100 100 100 100 100 100 100 100 93 87 100 100 100 100 96
100 100 100 100 97 100 100 67 7 73 92 27 5 5 5 97 100 98 100 100 100 100 94 42 42 64 5 3 0 0 3 22 100 100 100 100 100 100 100 100 100 100 100 100 100 100 92 96 100 100 96 94 100 100
100 100 100 100 98 92 100 78 99 100 98 88 82 5 99 95 97 98 100 100 100 97 96 31 58 71 5 5 5 4 5 99 100 100 100 100 100 100 100 100 100 100 100 100 100 100 100 100 100 100 100 100 100 100
72 100 100 100 100 92 89 97 100 100 100 100 58 5 6 71 100 99 100 91 11 99 100 71 38 66 34 5 4 21 56 78 100 100 100 100 100 100 100 100 100 100 100 100 100 100 100 100 100 100 100 100 100 100
100 100 100 100 100 100 100 100 100 100 100 100 100 81 60 99 86 100 100 92 77 97 100 93 12 46 32 68 10 50 98 94 99 100 100 100 100 100 100 100 100 100 99 100 100 100 100 100 100 100 100 100 100 100
94 100 94 100 100 97 100 100 100 100 100 100 11 11 100 100 99 100 100 100 100 100 100 99 73 82 99 100 100 100 100 100 100 100 100 100 100 100 99 100 100 74 37 89 100 100 100 100 100 100 100 100 95 98
100 100 100 87 100 100 100 100 100 100 100 77 80 100 100 100 100 100 100 100 99 85 83 100 95 96 100 100 100 100 100 100 100 100 100 100 97 100 100 100 100 100 100 100 100 100 100 100 100 100 100 100 99 100
94 90 100 100 100 100 100 100 100 100 99 100 100 100 100 100 100 100 100 100 100 100 100 100 57 98 100 100 100 100 100 100 100 100 100 100 100 100 100 100 99 100 100 100 100 100 100 91 100 100 100 100 100 100
17 22 100 100 100 100 100 100 100 100 100 100 100 100 100 100 100 100 100 100 99 100 100 79 68 100 100 100 100 100 100 100 100 100 100 100 100 100 100 100 100 100 100 100 100 100 100 100 100 100 100 100 100 100
16 91 100 100 100 100 100 100 100 100 100 100 100 100 100 100 100 100 98 100 100 70 98 100 100 100 100 100 100 100 100 100 100 100 100 100 100 100 100 100 100 100 100 100 100 100 100 100 100 100 100 100 99 100
72 94 100 100 100 100 100 100 100 100 100 100 100 100 100 100 100 100 100 100 100 100 100 100 100 100 100 100 100 100 100 100 100 100 100 100 100 100 100 100 100 99 91 46 13 26 73 98 97 98 99 100 100 100
100 100 100 100 100 100 100 100 100 100 100 100 100 100 100 100 100 100 100 77 45 100 100 100 100 100 100 100 100 100 100 100 100 97 85 100 100 100 100 100 100 100 88 21 42 65 81 96 85 82 92 92 92 93
100 100 100 100 100 100 100 100 100 100 100 100 100 100 100 100 100 100 100 42 73 100 100 100 100 100 100 100 100 100 100 100 100 65 99 100 96 66 72 81 28 5 28 18 68 95 96 78 72 79 95 88 89 87
100 100 100 100 100 100 100 100 100 100 100 98 100 100 100 100 100 100 100 100 99 100 100 100 100 100 100 100 100 100 100 100 98 98 99 99 72 91 93 78 79 61 56 70 100 98 91 89 93 96 77 76 89 85
100 100 100 100 100 100 100 100 100 100 100 100 100 100 100 100 100 100 100 100 100 100 100 100 100 100 100 100 100 100 99 100 100 98 84 92 58 100 99 86 99 61 52 77 58 59 79 63 84 72 74 98 81 83
100 100 100 100 100 100 100 100 100 100 94 100 100 100 100 100 100 98 100 99 100 100 100 100 100 100 100 100 99 96 100 100 97 95 89 98 80 81 79 63 62 80 66 75 60 55 43 45 66 100 84 84 85 86
100 100 100 100 100 100 100 100 99 100 100 100 100 100 97 100 100 100 100 100 99 100 100 100 100 100 94 96 94 98 100 96 93 90 84 82 93 91 98 83 94 100 94 87 93 100 100 98 92 87 86 84 88 86
100 100 100 100 100 100 100 100 90 98 83 100 100 100 97 100 100 99 95 89 99 100 100 100 100 97 67 85 86 92 93 91 96 93 82 66 100 99 100 100 100 97 91 94 85 82 74 80 83 80 90 99 98 96
100 100 99 85 100 100 67 48 53 60 100 100 100 95 94 100 100 100 100 100 100 100 100 96 100 100 100 100 100 99 99 88 89 84 98 97 83 100 96 84 94 99 100 100 100 98 88 85 74 94 100 100 100 100
100 96 53 48 100 100 83 16 70 64 71 95 98 97 90 96 100 96 96 100 100 97 93 97 100 100 100 100 100 100 98 88 79 70 93 100 97 95 96 91 100 98 93 93 92 92 85 83 79 93 100 100 100 100
100 100 100 100 100 76 87 86 73 66 58 96 100 98 90 86 57 75 96 92 88 92 87 100 100 100 100 100 100 93 77 82 95 93 100 97 100 98 100 99 99 91 85 95 84 63 78 86 90 98 100 100 100 100
100 100 100 100 75 99 94 100 58 82 95 95 81 98 76 44 66 67 97 93 97 95 90 94 93 98 99 99 98 100 100 100 100 100 100 99 100 99 86 85 74 82 89 87 58 71 71 82 84 88 88 91 94 100
100 100 100 79 64 79 98 88 65 65 89 69 55 93 98 62 74 77 96 100 100 100 100 100 100 100 100 100 100 100 100 100 100 100 99 100 95 83 84 92 88 80 76 88 79 70 80 89 91 95 88 89 95 100
100 100 100 100 100 99 100 100 100 100 100 100 100 100 100 100 100 100 100 100 100 100 100 100 100 100 100 100 100 100 99 94 94 88 89 92 90 86 88 86 91 92 99 85 81 82 80 82 77 83 94 99 99 100
100 100 100 100 100 100 100 100 100 100 100 100 100 100 100 100 100 100 100 100 100 98 100 93 94 80 85 87 87 94 94 96 95 94 96 99 98 100 99 99 100 99 93 91 93 92 95 95 89 90 91 97 100 100
97 100 100 100 100 100 100 100 100 100 100 100 99 89 85 85 93 100 94 99 98 85 100 100 96 76 78 86 85 91 88 88 90 99 100 100 100 100 100 100 100 100 100 100 100 100 100 100 100 100 100 100 100 100
100 96 100 100 100 100 100 100 100 100 100 100 100 100 100 99 100 100 100 100 100 100 76 81 94 71 22 65 85 88 84 81 68 78 88 92 92 93 99 100 100 100 100 100 100 100 100 100 100 100 100 100 100 100
56 61 82 91 98 100 100 100 99 98 99 95 94 98 99 100 100 100 91 92 99 98 92 94 85 61 100 76 89 82 95 91 100 35 52 71 87 100 98 98 100 100 100 100 100 100 100 100 100 100 100 100 100 100
70 61 79 70 94 100 100 97 88 75 74 64 54 73 96 98 98 94 66 46 70 31 71 71 43 90 9 67 88 63 45 71 77 81 87 93 91 78 78 74 58 80 98 100 100 100 100 100 100 100 100 100 100 100
63 77 72 94 100 91 90 60 43 50 100 93 99 93 85 28 98 98 97 90 44 89 100 100 36 5 83 100 96 86 47 90 99 87 46 29 8 37 92 100 71 17 35 78 90 81 78 76 73 74 82 92 91 89
99 78 78 88 98 100 95 80 70 88 97 100 100 100 91 12 32 83 99 95 6 32 78 100 99 100 28 45 57 94 98 98 99 100 100 100 87 93 89 100 81 7 8 92 100 96 99 96 94 99 100 100 100 100

GFSWCAN_prec_cloud_120.txt.gz
Cloud_Cover
100 100 100 100 100 100 100 100 100 100 100 100 100 100 100 87 42 11 38 5 89 95 38 5 5 7 55 38 58 51 15 70 63 58 99 100 100 100 100 100 100 100 100 100 100 100 100 68 76 100 100 100 100 100
100 100 100 100 100 100 100 100 100 100 100 100 100 100 100 99 60 15 94 36 71 89 70 19 5 5 5 6 38 62 68 98 87 71 100 100 100 100 100 100 100 100 100 100 100 100 100 100 100 100 100 100 100 100
100 100 100 100 100 100 100 100 100 100 100 100 100 100 100 25 40 80 98 79 99 100 26 57 4 3 3 5 5 31 17 10 68 77 81 100 100 100 100 100 100 100 100 100 100 94 100 100 100 100 100 100 100 100
100 100 100 100 100 100 100 100 100 100 100 100 100 100 100 99 100 94 83 50 77 79 91 10 1 2 0 5 0 4 2 34 23 76 99 99 100 100 100 100 100 100 100 100 100 100 100 100 100 100 100 100 100 100
100 100 100 100 100 100 100 100 100 100 100 100 100 100 100 100 91 54 45 98 99 96 100 25 5 2 0 5 3 5 14 17 95 100 100 100 100 100 100 100 100 100 100 100 100 100 100 100 100 100 100 100 100 99
100 100 100 100 100 100 100 100 100 100 100 100 100 100 100 52 91 100 100 94 96 99 97 94 5 1 3 3 5 5 11 70 96 100 100 98 100 100 100 100 100 100 100 100 100 95 100 100 100 100 100 100 100 100
100 100 100 100 100 100 100 100 100 100 100 100 100 97 94 92 44 48 56 84 100 95 98 82 39 5 5 5 17 16 58 100 100 100 97 100 100 100 100 100 100 100 100 100 100 100 100 100 100 100 100 100 99 100
92 67 100 100 100 100 100 100 94 45 37 100 100 100 100 98 90 72 59 100 100 100 97 100 28 10 5 79 90 64 87 100 100 68 98 96 100 100 100 100 100 100 100 100 100 100 100 100 99 100 100 82 94 100
5 58 100 100 100 100 100 100 100 81 100 100 100 100 94 78 97 53 51 100 100 99 91 100 60 13 5 95 97 93 99 100 94 92 99 100 100 99 100 100 99 90 88 100 89 82 90 84 94 93 100 100 100 100
70 100 100 100 100 100 100 100 100 100 100 100 100 100 100 100 8 41 99 100 100 100 100 90 23 5 5 29 98 99 100 100 99 55 97 96 100 100 100 100 100 100 87 77 55 90 91 83 100 100 99 100 100 100
57 100 100 100 100 100 100 100 100 100 100 100 100 100 100 100 100 100 100 100 100 98 83 66 33 85 51 59 100 100 99 97 100 100 95 100 100 100 100 100 98 83 100 100 48 72 98 96 100 99 100 100 100 100
100 100 100 100 100 100 100 100 100 100 67 75 100 100 100 100 100 89 92 99 97 72 67 100 75 77 90 100 100 100 100 98 100 97 100 100 100 100 100 100 99 100 100 100 100 100 100 100 100 100 100 100 100 100
100 100 100 100 100 100 100 100 100 100 100 100 100 100 100 100 100 98 98 100 98 80 82 70 88 100 59 46 100 96 99 100 93 93 100 100 100 99 98 100 100 100 100 100 100 100 100 73 86 100 100 100 100 100
100 100 100 100 100 100 100 100 100 100 100 100 100 100 96 96 34 35 100 99 94 99 63 38 98 100 85 96 100 100 100 81 100 100 98 100 100 100 100 100 100 100 95 67 30 5 5 6 66 96 100 100 100 100
100 100 100 100 100 100 100 100 100 100 100 100 100 98 85 99 100 100 100 100 100 80 45 97 94 93 85 89 100 100 100 100 98 100 100 100 100 98 87 48 12 24 31 59 74 65 80 85 95 100 100 100 100 100
100 100 100 100 100 100 100 100 100 100 100 100 100 99 100 100 100 100 100 100 94 92 76 85 97 100 100 99 99 98 99 96 98 100 100 90 80 10 68 74 83 78 66 74 81 87 92 76 98 100 100 100 100 100
7 56 89 100 100 100 100 100 100 100 100 100 100 100 100 100 100 100 100 100 100 100 69 72 100 100 99 100 100 97 100 100 100 100 100 86 98 90 98 96 75 89 100 100 87 98 94 83 74 100 100 100 100 100
61 48 100 100 100 100 100 100 89 100 99 100 100 100 100 100 100 100 100 92 100 100 91 85 86 70 98 100 100 100 98 100 100 99 99 95 100 98 89 92 95 100 100 100 100 99 100 99 100 100 100 100 98 100
71 93 100 100 99 100 100 100 100 100 100 100 100 100 100 100 100 100 100 100 98 98 93 100 100 77 100 100 100 100 100 100 100 100 100 96 100 99 98 98 93 100 100 100 100 100 98 100 100 100 100 100 100 100
100 98 100 100 100 100 100 100 100 100 100 100 100 100 100 100 100 100 100 100 100 100 100 100 100 100 100 100 100 100 100 100 100 100 100 100 99 99 99 91 100 95 98 99 100 76 100 100 100 100 100 99 100 100
100 100 100 100 100 100 100 100 83 87 99 100 100 100 100 100 99 100 100 100 100 100 100 100 100 100 100 100 100 100 100 99 100 98 100 100 100 100 100 100 100 100 100 100 100 100 100 100 100 100 100 100 100 100
100 100 100 100 100 100 100 100 100 93 93 100 100 100 100 100 100 100 100 100 100 100 100 100 100 100 100 100 100 98 100 97 97 87 69 58 100 100 100 100 100 100 100 100 100 100 100 100 100 100 100 100 100 100
100 100 100 100 100 95 100 100 100 99 100 100 98 92 100 100 100 77 100 100 100 100 100 100 100 100 99 100 100 100 100 99 100 100 100 100 100 100 100 100 100 100 100 100 100 100 100 75 83 100 100 100 100 100
100 100 100 100 100 100 94 95 94 100 100 100 100 100 100 89 85 76 99 100 100 100 100 100 100 100 100 100 100 100 100 100 100 100 100 100 100 100 100 100 100 100 100 100 100 100 100 100 99 100 100 100 100 100
100 100 100 100 81 98 80 82 86 52 100 91 83 99 99 100 95 80 100 100 100 100 100 100 100 100 100 100 100 100 100 100 100 100 100 100 100 100 100 100 100 100 100 100 100 100 100 100 100 100 100 100 100 100
71 87 46 80 72 36 84 85 28 87 92 100 100 100 82 68 29 99 100 100 100 100 100 100 100 100 100 100 100 100 100 100 100 100 100 100 100 100 100 100 100 100 100 100 100 100 100 100 100 100 100 100 98 100
75 98 71 92 100 95 100 98 48 61 67 100 100 100 98 98 100 100 100 100 100 100 100 100 100 100 100 100 100 100 100 100 100 100 100 100 100 100 100 100 100 100 100 100 100 100 100 100 100 100 100 100 100 100
84 73 29 73 91 98 100 100 100 100 100 100 100 100 100 100 100 100 100 100 100 100 100 100 100 100 100 100 100 100 100 100 100 100 100 100 100 100 100 100 100 100 100 100 100 100 100 100 100 100 100 100 100 100
92 100 100 100 100 100 100 100 100 100 100 100 100 100 100 100 100 100 100 100 100 100 100 100 100 100 100 100 100 100 100 100 100 100 100 100 100 100 100 100 100 100 100 100 98 100 100 100 100 100 100 100 100 100
98 99 100 100 100 100 100 100 100 100 100 100 100 100 100 100 100 100 100 100 100 100 100 100 100 100 100 100 100 100 100 100 100 100 100 100 100 100 100 100 100 100 100 100 100 100 94 100 100 100 100 100 100 100
99 100 100 100 100 100 100 100 100 100 100 100 100 99 100 100 100 100 100 100 100 100 100 100 92 94 100 100 100 100 100 100 76 82 76 99 100 100 100 100 100 100 100 100 100 100 100 100 100 100 100 100 99 90
98 100 100 100 100 100 100 100 100 100 100 100 90 98 100 100 100 100 100 100 100 100 48 6 5 5 7 12 9 48 37 80 91 75 5 5 85 100 100 100 100 100 100 100 100 100 100 100 100 100 100 100 100 100
100 100 100 100 100 100 100 100 100 100 92 94 99 100 97 80 78 100 100 100 89 79 7 78 89 90 87 99 82 78 69 97 100 98 99 77 94 99 97 100 100 100 100 100 100 100 100 100 100 100 100 100 100 100

GFSWCAN_prec_cloud_123.txt.gz
Cloud_Cover
100 100 100 100 100 100 100 100 100 100 100 100 100 100 100 100 100 100 100 18 98 98 89 5 13 39 64 16 91 68 11 86 69 39 95 100 100 100 100 100 100 100 100 100 100 100 100 100 14 98 100 100 100 100
100 100 100 100 100 100 100 100 100 100 100 100 100 100 100 100 95 99 100 99 100 79 85 25 14 5 5 11 10 5 38 95 97 98 94 93 100 100 100 100 100 100 100 100 100 100 100 100 100 100 100 100 100 100
100 100 100 100 100 100 100 100 100 100 100 100 100 100 100 100 100 100 100 85 100 45 23 35 17 28 3 1 5 18 63 57 100 54 94 89 100 100 100 100 100 100 100 100 100 100 100 100 100 100 100 100 100 100
100 100 100 100 100 100 100 100 100 100 100 100 100 100 100 100 100 92 100 100 100 90 96 86 40 15 1 4 5 5 6 71 92 83 92 99 100 100 100 100 100 100 100 100 100 100 100 100 100 100 100 100 100 100
100 100 100 100 100 100 100 100 100 100 100 100 100 100 100 100 100 100 100 100 100 93 100 66 26 5 5 5 5 8 68 95 100 84 88 96 100 100 100 100 100 100 100 100 100 100 100 100 100 100 100 100 100 100
100 100 100 100 100 100 100 100 100 100 100 100 100 100 100 100 100 100 100 100 99 59 100 86 96 5 5 5 5 5 83 96 100 63 100 100 100 100 100 100 100 100 100 100 100 100 100 100 100 100 100 100 100 99
100 100 100 100 100 100 100 100 100 100 100 100 100 100 100 100 100 100 100 99 95 100 70 87 94 84 6 30 78 65 91 100 100 95 83 96 97 100 100 100 100 100 100 100 100 100 100 100 100 100 100 100 100 100
99 100 100 100 100 100 100 100 100 100 100 100 100 100 100 100 100 100 100 29 60 84 65 100 69 82 3 96 94 100 100 100 100 88 99 97 100 100 100 99 88 100 100 86 100 100 100 94 88 86 80 100 100 100
39 82 100 100 100 100 100 100 100 100 100 100 100 100 100 100 100 89 100 100 75 97 91 100 98 99 9 94 100 100 100 100 89 97 100 100 100 100 100 100 100 100 62 99 83 96 100 86 96 90 85 91 99 100
1 93 87 100 100 100 100 100 100 100 100 100 100 100 100 100 38 32 98 100 100 100 100 67 61 79 50 95 100 100 82 97 100 70 95 96 98 98 100 100 92 76 70 60 13 28 30 51 38 51 97 91 100 100
39 1 86 100 100 100 100 100 100 100 100 100 100 93 62 7 74 100 99 94 58 96 46 51 94 98 91 70 87 70 76 100 92 91 99 100 100 100 99 94 84 86 50 55 36 35 40 75 96 59 100 100 99 100
30 3 96 100 100 100 100 100 100 100 100 69 86 100 99 100 100 85 97 82 97 95 91 85 93 99 100 86 97 100 97 64 85 84 91 98 100 100 100 100 88 31 48 90 100 100 100 100 100 100 100 100 100 100
9 10 100 100 100 100 100 100 75 97 99 100 100 100 100 93 100 100 99 100 96 100 57 86 79 99 70 98 100 77 100 100 83 94 88 100 100 100 100 78 80 100 100 80 100 100 100 100 77 57 79 100 100 100
84 100 100 100 100 100 100 100 100 100 100 100 100 100 98 94 37 100 96 100 92 71 73 82 100 100 92 100 82 100 100 100 98 96 99 100 100 100 100 100 100 100 100 100 82 9 7 5 21 98 100 100 100 100
100 100 100 100 100 100 100 100 100 100 100 100 100 92 48 64 32 27 100 100 93 75 75 96 96 97 90 100 86 91 100 99 100 100 100 100 100 100 100 100 91 90 44 85 97 89 99 85 92 100 100 100 100 100
100 100 100 100 100 100 100 100 100 100 100 100 100 100 84 100 100 100 100 100 100 97 100 100 88 100 100 100 100 100 100 100 100 100 100 100 100 98 94 85 99 95 99 99 100 100 100 100 100 98 100 100 100 100
99 100 100 100 100 100 100 100 100 100 100 99 100 95 93 100 100 100 100 100 99 100 98 100 100 95 100 100 100 100 100 100 100 100 100 90 100 100 100 98 97 96 100 99 100 100 100 100 97 100 100 100 100 100
100 100 100 100 100 100 100 100 100 78 92 96 99 91 100 100 100 100 100 100 100 100 100 99 96 88 100 100 100 100 100 100 100 100 99 100 100 100 100 100 100 95 100 100 100 100 100 99 100 100 100 100 100 100
38 35 100 100 100 93 100 99 90 79 77 100 100 100 100 100 100 100 100 100 100 100 97 65 93 93 100 100 100 100 100 100 100 100 100 100 100 99 98 99 85 100 98 100 100 100 100 100 100 100 100 100 100 100
37 27 84 100 100 98 85 96 84 99 100 100 100 100 100 100 99 100 100 100 100 100 100 100 100 100 100 100 100 100 100 100 100 100 100 100 93 98 100 100 100 100 100 100 100 95 100 100 100 100 100 100 100 100
92 65 100 100 100 100 100 100 92 99 100 100 100 100 100 100 100 100 100 100 100 100 100 100 100 100 100 100 100 100 100 100 100 100 100 100 100 100 100 100 100 100 100 100 100 100 100 100 100 100 100 100 100 100
100 100 100 100 100 100 100 100 100 100 100 100 100 100 100 100 100 100 100 100 100 100 100 100 100 100 100 100 100 100 99 99 99 94 89 86 100 100 100 100 100 100 100 100 100 100 100 100 96 100 100 100 100 100
100 100 100 100 100 100 100 100 100 100 100 100 100 99 100 100 100 77 100 100 100 100 100 100 100 100 100 100 100 100 98 100 100 100 100 100 100 100 100 100 100 100 100 100 100 100 100 90 99 97 100 100 100 100
100 100 100 100 93 100 100 100 100 100 100 100 100 100 96 100 79 94 100 100 100 100 100 100 100 100 100 100 100 100 100 100 100 100 100 100 100 100 100 100 100 100 100 100 100 100 100 100 97 100 100 100 100 100
100 100 100 100 98 100 100 100 100 100 100 100 100 97 99 93 100 100 100 100 100 100 100 100 100 100 100 100 100 100 96 100 100 100 100 100 100 100 100 100 100 100 100 100 100 100 100 100 100 100 100 100 100 100
100 96 93 99 98 88 97 100 99 93 100 100 99 100 100 99 98 96 99 100 100 100 100 100 100 100 100 100 100 100 100 100 100 100 100 100 100 100 100 100 100 100 100 100 100 100 100 100 100 100 100 90 69 98
91 100 72 74 94 88 94 92 100 98 100 100 100 100 100 100 100 99 100 100 100 100 100 100 100 100 100 100 100 100 100 100 100 100 100 100 100 100 100 100 100 100 100 100 100 100 100 100 100 100 100 100 100 100
85 95 78 99 87 93 91 94 95 100 99 92 92 99 100 100 100 100 100 100 100 100 100 100 100 100 100 100 100 100 100 100 100 100 100 100 100 100 100 100 100 99 100 100 100 100 100 100 100 100 100 100 100 100
100 100 99 100 89 98 100 100 100 100 100 100 100 100 100 100 100 100 100 100 100 100 100 100 100 100 100 100 100 100 100 100 100 100 100 100 100 100 100 100 100 100 100 100 99 100 100 100 100 100 100 100 100 100
96 100 91 98 99 100 100 100 100 100 100 100 100 100 100 100 100 100 100 100 100 100 100 100 100 100 100 100 100 100 100 100 100 100 100 100 100 100 100 100 100 100 100 100 100 100 86 99 100 100 96 100 100 100
100 99 100 100 100 100 100 100 100 100 100 100 100 100 100 100 100 100 100 100 100 100 100 100 100 100 100 100 100 100 100 100 100 88 84 100 100 100 100 100 100 100 100 100 100 100 100 98 100 100 100 100 99 85
100 98 81 100 100 100 100 100 100 100 100 100 100 100 100 100 100 100 100 100 100 100 98 100 100 100 100 100 98 56 86 98 98 80 72 97 100 100 100 100 100 100 100 100 100 100 100 100 100 100 100 100 100 100
100 100 100 100 100 100 100 100 100 100 100 100 100 100 100 100 100 100 100 100 100 100 100 100 100 88 78 98 94 65 58 87 77 84 78 54 86 97 97 100 100 100 100 100 100 100 100 100 100 100 100 100 100 100

GFSWCAN_prec_cloud_126.txt.gz
Cloud_Cover
100 100 100 100 100 100 100 100 100 100 100 100 100 100 100 100 100 100 100 100 100 100 98 40 6 34 12 6 84 64 7 45 5 32 84 94 94 70 98 100 100 100 96 100 100 100 100 100 68 100 100 100 100 100
100 100 100 100 100 100 100 100 100 100 100 100 100 100 100 100 100 100 100 100 100 100 79 10 5 5 14 97 8 5 48 77 10 42 41 65 96 71 60 100 100 100 100 100 100 100 100 100 100 100 100 100 100 100
100 100 100 100 100 100 100 100 100 100 100 100 100 100 100 100 100 100 100 100 98 76 69 42 10 38 38 5 5 8 100 53 26 77 54 84 69 96 96 100 100 100 100 100 100 100 100 100 100 100 100 100 100 100
100 100 100 100 100 100 100 100 100 100 100 100 100 100 100 100 100 100 100 98 87 81 97 90 59 82 29 5 5 1 27 43 8 44 90 82 94 77 90 100 100 100 100 100 100 100 100 100 100 100 100 100 100 100
100 100 100 100 100 100 100 100 100 100 100 100 100 100 100 100 100 100 100 91 80 73 96 99 100 97 41 5 5 5 5 62 55 75 41 76 73 68 61 83 100 100 100 100 100 100 100 100 100 100 100 100 100 100
100 100 100 100 100 100 100 100 100 100 100 100 100 100 100 100 100 100 100 100 100 72 92 97 100 87 43 5 5 59 85 100 56 99 55 98 60 100 100 100 100 100 100 100 100 100 100 100 100 100 100 100 100 99
100 100 100 100 100 100 100 100 100 100 100 100 100 100 100 100 100 100 100 100 95 59 85 100 100 92 5 88 71 88 91 96 67 91 82 73 40 100 100 100 100 100 100 100 100 100 100 100 100 100 100 100 100 100
100 100 100 100 100 100 100 100 100 100 100 100 100 100 100 100 100 100 100 99 63 78 100 100 100 67 4 27 54 97 84 61 91 88 28 96 95 100 100 100 100 95 100 100 100 100 100 100 100 96 92 88 95 100
100 100 100 100 100 100 100 100 100 100 100 100 100 100 100 100 100 100 100 56 97 100 100 100 100 75 41 45 100 100 85 91 71 74 73 95 87 100 100 95 95 100 100 64 100 100 100 46 100 43 96 100 98 93
71 100 100 100 100 100 100 100 100 100 100 100 100 100 100 100 100 100 81 82 100 100 100 100 66 56 63 52 98 76 67 76 100 43 86 93 98 100 100 100 100 100 100 98 47 62 46 18 26 17 75 98 93 96
18 15 99 100 100 100 100 100 100 100 100 100 100 100 100 100 100 100 100 100 100 100 100 47 25 22 45 46 82 77 53 58 99 70 100 91 100 100 100 99 94 28 41 67 71 45 17 21 9 57 41 86 99 99
5 10 92 100 100 100 100 100 100 100 100 100 100 100 100 100 100 100 100 100 100 100 92 38 75 44 85 72 12 50 36 50 87 85 99 100 100 100 100 98 97 71 24 10 32 54 100 100 100 100 100 100 100 100
5 5 24 100 100 100 100 100 100 100 100 100 100 100 100 100 100 100 100 100 99 95 78 48 33 78 26 66 28 32 99 100 70 80 88 97 99 97 99 100 30 56 76 97 98 100 100 100 100 100 99 100 100 100
5 5 1 100 100 100 100 100 100 100 100 100 100 100 100 100 100 99 70 44 32 23 25 56 17 6 7 30 70 100 100 100 92 90 76 96 100 100 98 59 34 100 100 100 100 100 100 100 89 80 63 88 89 100
5 4 25 100 100 100 100 100 98 100 100 100 100 100 70 96 53 51 87 98 90 22 94 93 70 79 100 78 95 81 86 100 100 100 100 100 98 97 100 100 100 100 100 100 100 86 99 13 5 49 38 90 5 99
9 57 100 100 100 100 100 100 100 100 100 100 85 88 65 74 100 90 98 86 76 100 100 99 98 100 86 70 90 70 100 100 100 100 100 98 100 100 100 100 100 100 99 88 98 97 100 88 5 44 98 95 60 91
98 100 100 100 100 100 100 100 100 100 100 32 75 100 100 99 99 99 82 92 96 100 100 100 100 100 98 95 100 99 100 100 100 100 100 100 100 100 100 100 98 99 100 100 93 18 61 98 99 100 74 100 26 100
100 100 100 100 100 100 100 100 100 99 72 36 100 100 100 100 100 100 100 100 100 100 100 99 100 100 100 100 100 100 100 100 99 100 100 100 100 100 100 100 100 91 99 98 97 94 100 99 100 100 100 96 99 100
100 99 100 100 100 100 100 100 100 62 29 62 100 98 100 91 100 92 100 100 100 100 100 100 100 78 100 100 100 100 100 100 97 100 100 100 92 87 92 95 51 99 100 57 27 100 100 100 100 97 99 99 96 100
100 100 100 100 100 100 100 90 37 20 72 76 88 91 71 99 100 100 100 100 100 100 100 100 100 100 100 99 99 99 97 90 97 100 100 100 96 88 98 83 100 89 98 100 100 100 77 99 100 96 97 100 100 100
100 100 99 100 100 88 95 68 60 70 26 91 100 100 100 100 100 100 100 100 100 100 100 100 100 100 100 96 95 99 94 100 100 95 100 100 94 100 100 100 100 100 100 99 100 100 99 100 99 100 100 100 96 100
100 100 100 85 76 85 69 80 96 100 100 100 100 100 100 100 100 100 100 100 100 100 99 100 100 100 95 100 98 94 90 88 85 100 99 92 100 99 100 93 100 100 98 98 100 100 100 100 100 100 100 100 100 93
84 100 93 88 74 96 98 45 100 100 100 100 98 97 100 100 100 100 100 100 100 100 100 100 100 100 100 86 89 84 92 94 100 100 100 93 98 95 100 100 100 98 100 99 100 100 100 100 100 100 100 100 100 100
100 100 100 100 100 100 100 100 100 99 100 97 100 100 100 100 98 100 100 100 100 100 100 94 100 100 100 98 100 100 98 100 99 99 97 100 100 97 99 97 98 97 97 100 99 100 99 100 99 100 100 100 100 100
100 100 100 95 99 100 100 100 100 100 100 100 100 100 100 94 100 100 100 100 100 100 100 100 100 100 100 100 100 100 97 100 100 100 98 100 100 100 100 100 100 100 96 95 100 100 100 100 100 100 100 98 99 100
100 100 100 100 100 100 98 100 100 100 100 100 100 100 97 100 100 100 100 100 100 100 99 100 100 100 100 100 100 100 98 97 100 100 98 100 97 100 100 100 100 100 94 98 100 100 100 89 99 100 100 97 73 87
97 100 100 100 100 100 99 100 100 99 100 100 100 100 99 100 100 100 100 100 100 100 100 100 100 100 100 100 100 100 99 97 88 100 100 100 100 100 100 100 100 96 85 99 100 100 100 100 100 100 100 100 100 100
100 100 96 91 91 94 98 100 100 100 100 100 93 100 98 99 100 100 100 100 100 99 100 100 100 100 100 100 100 100 100 72 46 63 100 100 100 100 100 99 99 74 86 95 21 100 85 100 100 100 100 100 97 100
97 100 83 99 99 98 100 99 100 86 72 76 100 100 100 100 100 100 100 100 100 100 100 100 100 100 100 100 99 100 100 100 100 99 64 100 100 100 100 100 99 100 86 99 100 46 5 8 41 63 94 100 100 100
97 100 100 99 87 99 100 100 100 100 100 99 82 94 100 100 100 100 100 100 100 100 100 100 100 100 100 100 100 100 100 100 100 100 100 100 100 100 100 100 100 98 96 100 96 99 94 65 100 100 98 100 97 95
100 100 100 100 100 100 100 100 100 100 100 100 100 99 100 100 100 100 100 100 100 100 98 100 100 100 100 100 100 100 100 100 96 42 83 97 99 100 100 100 100 100 100 100 100 99 6 95 100 100 90 64 57 65
100 100 100 100 100 100 100 100 100 100 100 100 100 100 100 100 100 100 100 100 100 100 99 100 100 100 100 100 100 37 86 98 99 82 85 98 100 100 100 100 99 100 86 95 100 100 90 62 93 22 92 100 56 10
100 100 100 100 100 100 100 100 100 100 100 100 100 100 100 100 100 100 100 100 100 100 100 100 100 98 81 91 85 50 85 67 6 17 5 18 24 43 82 99 99 100 98 91 97 95 82 86 96 41 96 51 69 69